     2              OBSERVATION DATA    GPS                 RINEX VERSION / TYPE
teqc 2000Jul20 Karen Wendt 20030303 23:28:01UTC             PGM / RUN BY / DATE
                                                            COMMENT
L2: 1 -> 1; 150 -> 5; 250 -> 9                              COMMENT
L2: 1 -> 1; 150 -> 5; 250 -> 9                              COMMENT
L2: 1 -> 1; 150 -> 5; 250 -> 9                              COMMENT
L2: 1 -> 1; 150 -> 5; 250 -> 9                              COMMENT
L2: 1 -> 1; 150 -> 5; 250 -> 9                              COMMENT
L2: 1 -> 1; 150 -> 5; 250 -> 9                              COMMENT
L2: 1 -> 1; 150 -> 5; 250 -> 9                              COMMENT
L2: 1 -> 1; 150 -> 5; 250 -> 9                              COMMENT
L2: 1 -> 1; 150 -> 5; 250 -> 9                              COMMENT
L2: 1 -> 1; 150 -> 5; 250 -> 9                              COMMENT
L2: 1 -> 1; 150 -> 5; 250 -> 9                              COMMENT
L2: 1 -> 1; 150 -> 5; 250 -> 9                              COMMENT
L2: 1 -> 1; 150 -> 5; 250 -> 9                              COMMENT
L2: 1 -> 1; 150 -> 5; 250 -> 9                              COMMENT
Original Marker Name: lae3 LAPE3__T6nR15e_S7S8S18S17_GLO    COMMENT
Campaign Name: USGS 2003                                    COMMENT
4-Character Station Name: LAE3                              COMMENT
6-Character Antenna Code: DMRCHT                            COMMENT
Vertical Measurement Point: BCR                             COMMENT
Vertical Offset to Rinex Ref. Point: 0.0348                 COMMENT
Radial Measurement Point: ECF                               COMMENT
Radial Offset to Rinex Ref. Point: 0.1897                   COMMENT
Antenna Height from Field Measurement: 0.8250 m             COMMENT
Additional Antenna Identification Info.:                    COMMENT
Turborogue and Ashtech Choke Ring                           COMMENT
Original XYZ: -2343846.0245 -4703796.4155 3603615.6319      COMMENT
New XYZ position is based on association with SCEC monument COMMENT
E1F2J9P5+0011. Position of that monument is believed to be  COMMENT
valid to within 1 m horizontally; vertical accuracy         COMMENT
should be no worse than 3-times this value.                 COMMENT
                                                            COMMENT
Revised Rinex header created by UCSD GPS archive for        COMMENT
GSAC on 11-Jul-2003 (2003:192) 16:55:12 GMT                 COMMENT
For assistance contact dagnew@ucsd.edu                      COMMENT
or anderson@python.ucsd.edu                                 COMMENT
                                                            COMMENT
T6NR5S S7 S18 S1998 1919                                    MARKER NAME
JMS US GEOLOGICAL SURVEY                                    OBSERVER / AGENCY
LP019992804 ASHTECH Z-XII3 CD00                             REC # / TYPE / VERS
CR619992805 DORNE-MARGOL. TYPE T                            ANT # / TYPE
 -2343862.6204 -4703769.4906  3603598.2948                  APPROX POSITION XYZ
        0.7681        0.0000        0.0000                  ANTENNA: DELTA H/E/N
     1     1     0                                          WAVELENGTH FACT L1/2
     5    C1    L1    L2    P1    P2                        # / TYPES OF OBSERV
    30                                                      INTERVAL
  2003     2    28     0     1    0.000000                  TIME OF FIRST OBS
  2003     2    28    21    44   30.000000                  TIME OF LAST OBS
                                                            END OF HEADER
 03  2 28  0  1  0.0000000  0 10G23G30G16G 6G10G17G26G15G29G18
  20662582.474   -20572826.39149 -16008651.65548  20662582.012    20662587.980
  24123891.458    -3618860.16349  -2791278.58345  24123891.707    24123904.063
  23851469.927    -8839382.75149  -6869362.07745  23851469.652    23851476.081
  20469683.925   -27453929.48749 -21380236.20848  20469683.773    20469689.423
  24529439.003    -4805973.48949  -3723919.21645  24529438.034    24529447.401
  21079168.986   -26237905.55949 -20177983.59747  21079168.405    21079174.644
  21701739.598   -17055772.35249 -13017121.93747  21701739.678    21701746.744
  22424592.727   -16858038.42549 -13126133.25246  22424592.008    22424599.321
  22696671.154   -13280962.80449 -10317531.38846  22696670.982    22696677.825
  21893035.832   -18818286.64849 -14647626.00347  21893035.397    21893041.519
 03  2 28  0  1 30.0000000  0 10G23G30G16G 6G10G17G26G15G29G18
  20658340.330   -20595118.89449 -16026022.39648  20658339.859    20658345.827
  24143193.498    -3517428.55949  -2712241.22145  24143193.784    24143206.067
  23844009.522    -8878585.23249  -6899909.46945  23844009.146    23844015.912
  20475906.265   -27421230.98549 -21354756.86348  20475906.115    20475911.755
  24549558.707    -4700243.57049  -3641532.30345  24549557.766    24549567.107
  21074551.422   -26262170.87749 -20196891.61047  21074550.842    21074557.092
  21696226.425   -17084743.96549 -13039697.16247  21696226.495    21696233.606
  22412597.873   -16921071.37149 -13175249.75146  22412597.152    22412604.449
  22698410.141   -13271823.67249 -10310409.96146  22698410.068    22698416.946
  21878550.983   -18894404.42549 -14706938.46247  21878550.595    21878556.697
 03  2 28  0  2  0.0000000  0 10G23G30G16G 6G10G17G26G15G29G18
  20654186.646   -20616946.40549 -16043030.80948  20654186.195    20654192.130
  24162487.348    -3416039.85449  -2633237.29945  24162487.587    24162499.912
  23836647.598    -8917273.86649  -6930056.39945  23836647.184    23836653.816
  20482220.303   -27388050.56349 -21328901.99948  20482220.154    20482225.800
  24569682.254    -4594493.86349  -3559129.97945  24569681.214    24569690.689
  21069962.842   -26286283.93949 -20215680.98247  21069962.269    21069968.503
  21690828.058   -17113112.10649 -13061802.15447  21690828.142    21690835.245
  22400625.030   -16983988.97349 -13224276.39146  22400624.341    22400631.560
  22700252.845   -13262140.45649 -10302864.58246  22700252.712    22700259.607
  21864132.844   -18970171.64049 -14765977.75247  21864132.476    21864138.584
 03  2 28  0  2 30.0000000  0 10G23G30G16G 6G10G17G26G15G29G18
  20650121.091   -20638311.01249 -16059678.51748  20650120.629    20650126.535
  24181772.162    -3314698.58549  -2554270.33045  24181772.417    24181784.788
  23829383.073    -8955449.38749  -6959803.64945  23829382.762    23829388.965
  20488625.667   -27354390.11949 -21302673.09148  20488625.520    20488631.162
  24589808.736    -4488728.07049  -3476715.15745  24589807.840    24589817.303
  21065402.758   -26310247.21049 -20234353.63447  21065402.176    21065408.430
  21685544.617   -17140876.75649 -13083436.89847  21685544.690    21685551.755
  22388673.850   -17046792.57049 -13273214.19746  22388673.184    22388680.343
  22702198.813   -13251914.72949 -10294896.45746  22702198.565    22702205.455
  21849781.298   -19045589.00849 -14824744.43447  21849780.932    21849787.015
 03  2 28  0  3  0.0000000  0 10G23G30G16G 6G10G17G26G15G29G18
  20646143.914   -20659211.17949 -16075964.32548  20646143.452    20646149.347
  24201047.735    -3213405.34649  -2475340.81745  24201048.142    24201060.496
  23822216.599    -8993108.79249  -6989148.53745  23822216.252    23822222.748
  20495122.743   -27320247.67749 -21276068.59948  20495122.602    20495128.258
  24609938.350    -4382946.38249  -3394287.91845  24609937.394    24609947.043
  21060871.586   -26334058.42349 -20252907.80647  21060871.022    21060877.279
  21680376.679   -17168034.06649 -13104598.39847  21680376.768    21680383.782
  22376744.767   -17109480.03849 -13322061.50746  22376744.083    22376751.263
  22704248.251   -13241144.30449 -10286503.91646  22704248.096    22704254.931
  21835496.942   -19120653.38649 -14883236.06447  21835496.560    21835502.638
 03  2 28  0  3 30.0000000  0 10G23G30G16G 6G10G17G26G15G29G18
  20642255.129   -20679646.66249 -16091888.03648  20642254.665    20642260.556
  24220313.971    -3112162.13149  -2396450.31245  24220314.265    24220326.668
  23815148.544    -9030250.38149  -7018090.05245  23815148.275    23815154.703
  20501711.654   -27285622.57249 -21249088.00648  20501711.521    20501717.221
  24630070.677    -4277149.88449  -3311849.08045  24630069.678    24630079.548
  21056369.535   -26357716.82549 -20271342.89447  21056368.959    21056375.200
  21675324.738   -17194581.61149 -13125284.73847  21675324.835    21675331.864
  22364837.917   -17172050.65049 -13370817.74646  22364837.225    22364844.410
  22706401.543   -13229828.56149 -10277686.44746  22706401.356    22706408.238
  21821280.175   -19195362.66749 -14941450.99747  21821279.792    21821285.861
 03  2 28  0  4  0.0000000  0 10G23G30G16G 6G10G17G26G15G29G18
  20638454.179   -20699620.61649 -16107452.12348  20638453.716    20638459.623
  24239569.692    -3010974.24049  -2317602.91145  24239569.884    24239582.456
  23808178.775    -9066876.09549  -7046629.53045  23808178.570    23808185.386
  20508391.896   -27250517.56849 -21221733.47148  20508391.766    20508397.482
  24650204.936    -4171343.51649  -3229402.50545  24650203.999    24650213.721
  21051896.084   -26381224.86949 -20289660.83247  21051895.506    21051901.762
  21670388.719   -17220520.37449 -13145496.70647  21670388.842    21670395.820
  22352952.794   -17234507.01949 -13419484.98146  22352952.133    22352959.324
  22708658.088   -13217970.21649 -10268446.17146  22708657.933    22708664.774
  21807130.686   -19269718.58649 -14999390.58247  21807130.298    21807136.295
 03  2 28  0  4 30.0000000  0 10G23G30G16G 6G10G17G26G15G29G18
  20634741.129   -20719132.57149 -16122656.21748  20634740.666    20634746.576
  24258814.501    -2909843.25249  -2238799.85045  24258814.732    24258827.370
  23801308.095    -9102983.88849  -7074765.51045  23801307.946    23801314.665
  20515163.655   -27214931.68149 -21194004.23248  20515163.518    20515169.263
  24670340.867    -4065528.16449  -3146948.90845  24670340.048    24670349.662
  21047451.521   -26404580.97949 -20307860.38448  21047450.943    21047457.215
  21665569.066   -17245847.56549 -13165232.12447  21665569.199    21665576.169
  22341089.661   -17296847.87749 -13468062.20146  22341088.996    22341096.177
  22711018.226   -13205568.10749 -10258782.18846  22711017.979    22711024.806
  21793048.875   -19343718.87449 -15057053.06347  21793048.447    21793054.428
 03  2 28  0  5  0.0000000  0 10G23G30G16G 6G10G17G26G15G29G18
  20631115.597   -20738184.78249 -16137502.06048  20631115.146    20631121.059
  24278047.537    -2808773.69049  -2160044.64945  24278047.807    24278060.430
  23794535.402    -9138574.78649  -7102498.68645  23794535.104    23794541.432
  20522026.612   -27178866.82449 -21165901.75848  20522026.477    20522032.231
  24690477.998    -3959707.36449  -3064491.10945  24690477.139    24690486.829
  21043035.486   -26427787.39849 -20325943.28348  21043034.910    21043041.133
  21660865.819   -17270563.31549 -13184491.07647  21660865.935    21660872.841
  22329248.262   -17359074.94849 -13516550.76146  22329247.534    22329254.725
  22713481.380   -13192623.95949 -10248695.83146  22713481.234    22713488.053
  21779034.626   -19417363.98949 -15114438.77147  21779034.188    21779040.127
 03  2 28  0  5 30.0000000  0 10G23G30G16G 6G10G17G26G15G29G18
  20627578.354   -20756772.79149 -16151986.19148  20627577.915    20627583.821
  24297269.404    -2707763.09749  -2081335.40345  24297269.710    24297282.420
  23787861.608    -9173642.71549  -7129824.24945  23787861.407    23787868.080
  20528981.603   -27142318.22849 -21137422.34248  20528981.472    20528987.228
  24710616.583    -3853878.58549  -2982027.14845  24710615.666    24710625.467
  21038648.922   -26450839.10149 -20343905.62748  21038648.317    21038654.507
  21656280.128   -17294661.08149 -13203268.48347  21656280.239    21656287.087
  22317429.369   -17421183.10649 -13564946.66846  22317428.675    22317435.824
  22716048.677   -13179132.84049 -10238183.26946  22716048.456    22716055.354
  21765089.052   -19490647.95349 -15171543.07447  21765088.633    21765094.571
 03  2 28  0  6  0.0000000  0  9G23G30G16G 6G17G26G15G29G18
  20624128.823   -20774900.08149 -16166111.31348  20624128.363    20624134.268
  24316478.984    -2606817.30749  -2002676.64945  24316479.191    24316491.981
  23781287.740    -9208189.94749  -7156744.23245  23781287.578    23781293.692
  20536028.034   -27105289.11849 -21108568.50448  20536027.894    20536033.635
  21034291.241   -26473738.81849 -20361749.53448  21034290.644    21034296.796
  21651811.769   -17318142.17149 -13221565.36247  21651811.893    21651818.675
  22305632.574   -17483175.34449 -13613252.23946  22305631.912    22305639.046
  22718719.314   -13165098.11549 -10227247.11946  22718719.169    22718726.071
  21751211.847   -19563572.67549 -15228367.44547  21751211.420    21751217.376
 03  2 28  0  6 30.0000000  0  9G23G30G16G 6G17G26G15G29G18
  20620767.203   -20792565.38349 -16179876.45148  20620766.740    20620772.630
  24335676.150    -2505936.89149  -1924068.85845  24335676.231    24335689.205
  23774812.926    -9242213.89249  -7183256.35145  23774812.868    23774819.194
  20543166.209   -27067777.82149 -21079338.94048  20543166.062    20543171.807
  21029962.826   -26496484.75449 -20379473.62348  21029962.230    21029968.363
  21647461.445   -17341003.24749 -13239379.11247  21647461.534    21647468.295
  22293858.250   -17545049.79849 -13661466.04046  22293857.564    22293864.689
  22721493.846   -13150517.69749 -10215885.75746  22721493.767    22721500.597
  21737403.678   -19636134.68349 -15284909.18747  21737403.259    21737409.195
 03  2 28  0  7  0.0000000  0  9G23G30G16G 6G17G26G15G29G18
  20617493.020   -20809771.25949 -16193283.59148  20617492.577    20617498.444
  24354859.929    -2405126.57949  -1845515.69045  24354860.101    24354873.131
  23768437.588    -9275715.87149  -7209361.76045  23768437.265    23768443.805
  20550395.684   -27029786.75549 -21049735.52948  20550395.517    20550401.274
  21025663.346   -26519078.61149 -20397079.20448  21025662.757    21025668.855
  21643228.966   -17363244.76649 -13256710.08047  21643229.054    21643235.772
  22282105.927   -17606808.12949 -13709589.33946  22282105.290    22282112.393
  22724371.921   -13135393.89949 -10204100.95946  22724371.745    22724378.568
  21723664.157   -19708335.72649 -15341169.65647  21723663.761    21723669.699
 03  2 28  0  7 30.0000000  0  9G23G30G16G 6G17G26G15G29G18
  20614305.762   -20826520.26549 -16206334.71548  20614305.303    20614311.173
  24374029.324    -2304391.12649  -1767020.85145  24374029.560    24374042.755
  23762161.999    -9308696.94749  -7235061.37845  23762161.736    23762167.515
  20557716.015   -26991318.02249 -21019759.91748  20557715.860    20557721.639
  21021392.474   -26541522.36149 -20414567.82248  21021391.873    21021397.926
  21639114.232   -17384867.38049 -13273558.78447  21639114.333    21639121.037
  22270375.405   -17668452.25549 -13757623.65246  22270374.740    22270381.843
  22727352.888   -13119728.75549 -10191894.33846  22727352.721    22727359.533
  21709993.122   -19780177.13349 -15397149.89947  21709992.735    21709998.642
 03  2 28  0  8  0.0000000  0  9G23G30G16G 6G17G26G15G29G18
  20611206.122   -20842808.90849 -16219027.12848  20611205.669    20611211.526
  24393184.955    -2203728.88649  -1688583.08645  24393185.169    24393198.488
  23755985.996    -9341152.30049  -7260351.19145  23755985.703    23755991.593
  20565128.027   -26952367.65049 -20989409.00048  20565127.888    20565133.635
  21017150.945   -26563811.52249 -20431935.98848  21017150.350    21017156.385
  21635118.408   -17405865.26849 -13289920.68447  21635118.529    21635125.199
  22258667.420   -17729977.80049 -13805565.56046  22258666.766    22258673.864
  22730437.571   -13103518.33349 -10179262.81246  22730437.465    22730444.245
  21696391.651   -19851652.99949 -15452845.30047  21696391.261    21696397.134
 03  2 28  0  8 30.0000000  0  9G23G30G16G 6G17G26G15G29G18
  20608193.145   -20858642.17049 -16231364.69748  20608192.685    20608198.505
  24412325.339    -2103146.69149  -1610207.68045  24412325.668    24412338.998
  23749909.125    -9373085.51649  -7285234.18245  23749908.831    23749914.934
  20572630.829   -26912940.38249 -20958686.47048  20572630.684    20572636.431
  21012938.033   -26585950.34249 -20449187.00548  21012937.456    21012943.476
  21631240.949   -17426241.29849 -13305798.02347  21631241.054    21631247.708
  22246981.148   -17791389.26249 -13853418.57546  22246980.486    22246987.595
  22733625.121   -13086767.24749 -10166209.99646  22733625.009    22733631.854
  21682859.107   -19922766.61749 -15508258.43147  21682858.719    21682864.581
 03  2 28  0  9  0.0000000  0  9G23G30G16G 6G17G26G15G29G18
  20605266.947   -20874019.26549 -16243346.80448  20605266.481    20605272.278
  24431450.359    -2002645.83649  -1531895.64145  24431450.528    24431463.953
  23743932.290    -9404494.26949  -7309708.57545  23743932.096    23743937.863
  20580224.544   -26873035.05449 -20927591.43248  20580224.407    20580230.154
  21008754.032   -26607937.54349 -20466319.87448  21008753.453    21008759.470
  21627482.297   -17445992.68449 -13321188.61147  21627482.396    21627489.092
  22235316.955   -17852684.86049 -13901181.30746  22235316.281    22235323.349
  22736915.869   -13069474.12149 -10152734.79246  22736915.781    22736922.586
  21669395.953   -19993515.77049 -15563387.56247  21669395.540    21669401.395
 03  2 28  0  9 30.0000000  0  9G23G30G16G 6G17G26G15G29G18
  20602427.864   -20888938.59749 -16254972.22548  20602427.406    20602433.183
  24450559.690    -1902226.63849  -1453647.24845  24450559.879    24450573.415
  23738055.864    -9435375.96249  -7333772.21845  23738055.478    23738061.344
  20587909.628   -26832649.77349 -20896122.40048  20587909.477    20587915.263
  21004599.292   -26629770.68449 -20483332.70248  21004598.699    21004604.737
  21623843.196   -17465115.80749 -13336089.65147  21623843.285    21623849.995
  22223675.262   -17913862.07749 -13948851.78746  22223674.600    22223681.649
  22740310.167   -13051637.01449 -10138835.70346  22740310.111    22740316.845
  21656002.831   -20063896.95149 -15618229.96947  21656002.412    21656008.231
 03  2 28  0 10  0.0000000  0  9G23G30G16G 6G17G26G15G29G18
  20599675.569   -20903401.84449 -16266242.25548  20599675.112    20599680.884
  24469652.770    -1801892.61549  -1375465.22745  24469653.111    24469666.765
  23732279.257    -9465730.81549  -7357425.33545  23732278.956    23732285.243
  20595685.786   -26791785.83949 -20864280.39348  20595685.624    20595691.452
  21000473.789   -26651450.38449 -20500225.96348  21000473.205    21000479.235
  21620323.754   -17483610.21449 -13350500.77147  21620323.831    21620330.571
  22212055.949   -17974921.72749 -13996430.65546  22212055.284    22212062.315
  22743807.744   -13033257.25049 -10124513.76946  22743807.650    22743814.333
  21642679.685   -20133910.16049 -15672785.64347  21642679.265    21642685.084
 03  2 28  0 10 30.0000000  0  9G23G30G16G 6G17G26G15G29G18
  20597009.884   -20917409.92549 -16277157.60248  20597009.427    20597015.214
  24488729.199    -1701646.63249  -1297351.80645  24488729.515    24488743.181
  23726603.281    -9495558.27649  -7380667.48445  23726603.052    23726609.323
  20603552.903   -26750443.88249 -20832065.90547  20603552.767    20603558.575
  20996377.494   -26672976.57649 -20516999.60948  20996376.901    20996382.908
  21616924.174   -17501474.84549 -13364421.15947  21616924.255    21616931.014
  22200459.001   -18035863.96649 -14043918.05147  22200458.313    22200465.289
  22747408.436   -13014335.29749 -10109769.35246  22747408.337    22747414.969
  21629426.700   -20203554.60549 -15727053.97347  21629426.290    21629432.118
 03  2 28  0 11  0.0000000  0  9G23G30G16G 6G17G26G15G29G18
  20594430.447   -20930964.77649 -16287719.78448  20594429.993    20594435.777
  24507788.114    -1601492.43949  -1219309.90545  24507788.611    24507802.154
  23721027.474    -9524859.26649  -7403499.42345  23721027.124    23721033.292
  20611510.744   -26708625.33049 -20799480.03947  20611510.578    20611516.382
  20992310.125   -26694350.68949 -20533654.74848  20992309.527    20992315.560
  21613644.427   -17518709.52749 -13377850.67847  21613644.495    21613651.291
  22188884.127   -18096689.92949 -14091314.83147  22188883.476    22188890.413
  22751112.036   -12994872.69949 -10094603.65046  22751111.923    22751118.509
  21616243.810   -20272830.53449 -15781035.14647  21616243.436    21616249.247
 03  2 28  0 11 30.0000000  0  9G23G30G16G 6G17G26G15G29G18
  20591937.650   -20944064.38949 -16297927.24648  20591937.189    20591942.952
  24526829.803    -1501429.81449  -1141339.37345  24526830.208    24526843.690
  23715552.327    -9553630.08349  -7425918.19345  23715551.997    23715558.480
  20619559.684   -26666327.99249 -20766521.10047  20619559.526    20619565.320
  20988272.307   -26715569.49149 -20550188.87148  20988271.722    20988277.770
  21610485.343   -17535310.32849 -13390786.26747  21610485.422    21610492.162
  22177331.967   -18157396.65649 -14138618.70247  22177331.303    22177338.252
  22754918.979   -12974866.94949 -10079014.72546  22754918.848    22754925.405
  21603131.804   -20341734.25249 -15834726.28847  21603131.433    21603137.210
 03  2 28  0 12  0.0000000  0  9G23G30G16G 6G17G26G15G29G18
  20589530.704   -20956712.83749 -16307783.14348  20589530.235    20589535.994
  24545853.017    -1401464.79449  -1063444.88145  24545853.249    24545866.666
  23710177.985    -9581873.68449  -7447926.23945  23710177.766    23710184.103
  20627698.956   -26623555.82149 -20733192.16247  20627698.811    20627704.609
  20984263.356   -26736636.45249 -20566604.67148  20984262.777    20984268.846
  21607446.427   -17551279.38049 -13403229.58447  21607446.536    21607453.223
  22165801.806   -18217987.61249 -14185832.36447  22165801.185    22165808.091
  22758828.570   -12954321.87949 -10063005.54546  22758828.401    22758834.990
  21590090.177   -20410268.50049 -15888129.52747  21590089.762    21590095.494
 03  2 28  0 12 30.0000000  0  9G23G30G16G 6G17G26G15G29G18
  20587209.948   -20968908.27049 -16317286.05348  20587209.492    20587215.264
  24564857.515    -1301597.35249   -985626.42545  24564857.772    24564871.299
  23704904.193    -9609587.22849  -7469521.16845  23704904.044    23704910.343
  20635929.082   -26580306.43249 -20699491.37147  20635928.933    20635934.717
  20980283.851   -26757548.80349 -20582900.00048  20980283.282    20980289.321
  21604528.456   -17566612.95549 -13415177.73047  21604528.586    21604535.208
  22154294.351   -18278459.79349 -14232953.48847  22154293.701    22154300.520
  22762841.172   -12933235.36249 -10046574.45946  22762841.083    22762847.628
  21577119.538   -20478429.50349 -15941241.93447  21577119.111    21577124.787
 03  2 28  0 13  0.0000000  0  9G23G30G16G 6G17G26G15G29G18
  20584974.777   -20980653.77949 -16326438.36848  20584974.339    20584980.109
  24583842.357    -1201832.26749   -907887.75545  24583842.590    24583856.324
  23699730.623    -9636772.35349  -7490704.32645  23699730.338    23699736.953
  20644249.466   -26536582.58749 -20665420.86347  20644249.324    20644255.116
  20976333.309   -26778309.02549 -20599076.77848  20976332.707    20976338.765
  21601731.203   -17581312.15249 -13426631.55647  21601731.333    21601737.920
  22142809.007   -18338815.25349 -14279983.65646  22142808.353    22142815.197
  22766956.339   -12911610.14149 -10029723.58946  22766956.214    22766962.713
  21564219.680   -20546218.59349 -15994064.53147  21564219.262    21564224.911
 03  2 28  0 13 30.0000000  0  9G23G30G16G 6G17G26G15G29G18
  20582825.947   -20991945.78949 -16335237.31548  20582825.526    20582831.263
  24602807.955    -1102167.65949   -830227.37145  24602808.170    24602822.432
  23694659.612    -9663423.90949  -7511471.81745  23694659.388    23694665.645
  20652660.893   -26492380.38349 -20630977.62347  20652660.760    20652666.537
  20972412.680   -26798911.89049 -20615130.95348  20972412.111    20972418.170
  21599055.743   -17595371.57649 -13437586.86747  21599055.865    21599062.403
  22131346.690   -18399049.68149 -14326919.52346  22131346.038    22131352.902
  22771174.750   -12889442.15249 -10012449.78946  22771174.634    22771181.163
  21551391.544   -20613630.55249 -16046593.26647  21551391.143    21551396.764
 03  2 28  0 14  0.0000000  0  9G23G30G16G 6G17G26G15G29G18
  20580762.405   -21002789.68149 -16343687.06348  20580761.965    20580767.700
  24621753.221    -1002610.70749   -752650.89045  24621753.514    24621767.788
  23689688.267    -9689546.44649  -7531827.00945  23689688.029    23689694.559
  20661162.388   -26447704.89949 -20596165.58447  20661162.245    20661168.008
  20968521.137   -26819362.11949 -20631066.18148  20968520.545    20968526.632
  21596501.359   -17608794.53049 -13448046.23147  21596501.453    21596508.014
  22119906.649   -18459167.27249 -14373764.33747  22119905.988    22119912.843
  22775495.402   -12866736.44749  -9994756.97646  22775495.333    22775501.858
  21538634.499   -20680668.98549 -16098830.92947  21538634.084    21538639.704
 03  2 28  0 14 30.0000000  0  9G23G30G16G 6G17G26G15G29G18
  20578784.262   -21013184.74149 -16351787.07848  20578783.834    20578789.579
  24640677.870     -903162.30149   -675158.99145  24640678.203    24640692.511
  23684818.384    -9715137.78649  -7551768.23745  23684818.122    23684824.868
  20669754.111   -26402555.09349 -20560983.94947  20669753.977    20669759.746
  20964658.943   -26839658.04449 -20646881.18048  20964658.359    20964664.459
  21594068.560   -17621578.26549 -13458007.51247  21594068.678    21594075.248
  22108489.139   -18519166.31649 -14420516.78347  22108488.472    22108495.327
  22779918.694   -12843491.89549  -9976644.28746  22779918.611    22779925.086
  21525948.971   -20747331.52449 -16150775.69547  21525948.566    21525954.158
 03  2 28  0 15  0.0000000  0  9G23G30G16G 6G17G26G15G29G18
  20576891.722   -21023130.00749 -16359536.60948  20576891.295    20576897.040
  24659581.709     -803823.29249   -597752.33845  24659581.907    24659596.427
  23680050.530    -9740195.72049  -7571293.98645  23680050.294    23680056.479
  20678436.388   -26356929.64949 -20525431.69147  20678436.246    20678442.045
  20960826.519   -26859797.54449 -20662574.28948  20960825.942    20960832.021
  21591757.987   -17633720.22949 -13467468.72047  21591758.127    21591764.639
  22097094.588   -18579044.91549 -14467175.38747  22097093.940    22097100.783
  22784444.745   -12819707.28649  -9958110.75546  22784444.627    22784451.118
  21513335.484   -20813615.72549 -16202425.65647  21513335.048    21513340.618
 03  2 28  0 15 30.0000000  0  9G23G30G16G 6G17G26G15G29G18
  20575083.972   -21032629.56449 -16366938.83248  20575083.556    20575089.267
  24678463.503     -704599.32549   -520435.30945  24678463.715    24678478.421
  23675382.782    -9764723.02249  -7590406.05045  23675382.682    23675389.591
  20687208.440   -26310832.30549 -20489511.71447  20687208.314    20687214.132
  20957023.300   -26879783.39549 -20678147.66948  20957022.725    20957028.814
  21589569.183   -17645222.42749 -13476431.41547  21589569.292    21589575.788
  22085722.374   -18638806.05749 -14513742.47047  22085721.733    22085728.542
  22789072.792   -12795386.57649  -9939159.48646  22789072.703    22789079.184
  21500793.570   -20879523.83749 -16253782.55147  21500793.131    21500798.656
 03  2 28  0 16  0.0000000  0  8G23G16G 6G17G26G15G29G18
  20573362.968   -21041673.54549 -16373986.06648  20573362.538    20573368.242
  23670818.188    -9788708.70749  -7609096.19545  23670817.954    23670824.694
  20696072.206   -26264252.97649 -20453216.15447  20696072.077    20696077.885
  20953251.398   -26899604.87049 -20693592.95548  20953250.826    20953256.900
  21587504.340   -17656073.01949 -13484886.37347  21587504.432    21587510.905
  22074374.728   -18698438.46549 -14560209.23347  22074374.039    22074380.792
  22793804.817   -12770519.23649  -9919782.27646  22793804.768    22793811.215
  21488325.394   -20945044.13149 -16304837.24447  21488324.972    21488330.466
 03  2 28  0 16 30.0000000  0  8G23G16G 6G17G26G15G29G18
  20571727.125   -21050270.01649 -16380684.58948  20571726.670    20571732.354
  23666356.361    -9812159.10049  -7627369.27345  23666356.234    23666362.506
  20705026.197   -26217199.40249 -20416551.05247  20705026.089    20705031.881
  20949509.409   -26919269.08749 -20708915.71048  20949508.837    20949514.906
  21585562.282   -17666278.28049 -13492838.47547  21585562.376    21585568.832
  22063050.162   -18757949.35249 -14606581.30447  22063049.509    22063056.226
  22798639.393   -12745113.00049  -9899985.16546  22798639.420    22798645.798
  21475929.842   -21010183.05049 -16355594.77247  21475929.424    21475934.884
 03  2 28  0 17  0.0000000  0  8G23G16G 6G17G26G15G29G18
  20570174.824   -21058427.22849 -16387040.81748  20570174.385    20570180.065
  23661994.073    -9835081.72949  -7645231.02745  23661994.041    23662000.542
  20714068.949   -26169679.57649 -20379522.63747  20714068.828    20714074.625
  20945796.025   -26938782.96449 -20724121.31348  20945795.438    20945801.513
  21583741.840   -17675844.65249 -13500292.74647  21583741.946    21583748.375
  22051747.296   -18817346.13149 -14652864.46447  22051746.614    22051753.358
  22803575.013   -12719175.86349  -9879774.35646  22803575.064    22803581.427
  21463605.573   -21074947.11649 -16406060.20347  21463605.166    21463610.623
 03  2 28  0 17 30.0000000  0  8G23G16G 6G17G26G15G29G18
  20568706.621   -21066142.60849 -16393052.75748  20568706.181    20568711.870
  23657732.740    -9857472.99949  -7662678.69545  23657732.564    23657739.814
  20723200.988   -26121690.59649 -20342128.64747  20723200.847    20723206.654
  20942112.022   -26958142.44449 -20739206.60748  20942111.448    20942117.553
  21582043.817   -17684767.68049 -13507245.70847  21582043.922    21582050.347
  22040466.912   -18876624.65949 -14699055.48047  22040466.253    22040472.997
  22808612.224   -12692705.01649  -9859147.68246  22808612.267    22808618.646
  21451353.445   -21139332.10449 -16456230.24947  21451353.008    21451358.463
 03  2 28  0 18  0.0000000  0  8G23G16G 6G17G26G15G29G18
  20567322.332   -21073416.91149 -16398721.00348  20567321.879    20567327.567
  23653573.574    -9879331.92149  -7679711.67545  23653573.471    23653580.162
  20732422.175   -26073232.90149 -20304369.43147  20732422.043    20732427.894
  20938457.361   -26977347.66549 -20754171.68848  20938456.798    20938462.870
  21580468.343   -17693046.51449 -13513696.69347  21580468.453    21580474.858
  22029209.068   -18935784.77149 -14745154.21747  22029208.397    22029215.094
  22813750.934   -12665701.06449  -9838105.60946  22813750.889    22813757.324
  21439173.610   -21203337.00349 -16506104.12247  21439173.199    21439178.684
 03  2 28  0 18 30.0000000  0  8G23G16G 6G17G26G15G29G18
  20566022.082   -21080249.69449 -16404045.21848  20566021.639    20566027.291
  23649515.682    -9900657.19549  -7696328.76645  23649515.519    23649521.964
  20741732.672   -26024305.78349 -20266244.42747  20741732.547    20741738.447
  20934832.413   -26996396.99749 -20769015.31148  20934831.828    20934837.911
  21579015.910   -17700678.72149 -13519643.81947  21579016.028    21579022.456
  22017974.075   -18994824.71349 -14791159.31947  22017973.414    22017980.132
  22818991.135   -12638163.12049  -9816647.44946  22818991.131    22818997.552
  21427066.541   -21266959.59549 -16555680.09647  21427066.171    21427071.653
 03  2 28  0 19  0.0000000  0  8G23G16G 6G17G26G15G29G18
  20564805.859   -21086640.81749 -16409025.27648  20564805.402    20564811.062
  23645559.252    -9921447.51049  -7712528.98045  23645558.982    23645565.335
  20751132.592   -25974908.85349 -20227753.33047  20751132.490    20751138.379
  20931237.407   -27015288.89449 -20783736.24548  20931236.836    20931242.861
  21577686.887   -17707662.57249 -13525085.72447  21577687.018    21577693.416
  22006762.180   -19053743.29049 -14837069.84447  22006761.536    22006768.248
  22824333.001   -12610090.90849  -9794772.97446  22824332.993    22824339.448
  21415032.595   -21330198.30849 -16604956.93947  21415032.222    21415037.703
 03  2 28  0 19 30.0000000  0  8G23G16G 6G17G26G15G29G18
  20563673.314   -21092592.24549 -16413662.72648  20563672.866    20563678.531
  23641704.533    -9941703.47649  -7728312.88145  23641704.508    23641710.987
  20760621.638   -25925043.76449 -20188897.43447  20760621.521    20760627.381
  20927672.124   -27034024.42149 -20798335.33348  20927671.564    20927677.575
  21576481.201   -17713998.22249 -13530022.53547  21576481.313    21576487.693
  21995573.216   -19112541.39049 -14882886.49247  21995572.572    21995579.278
  22829776.266   -12581486.10849  -9772483.50446  22829776.274    22829782.665
  21403071.634   -21393053.34849 -16653934.81547  21403071.242    21403076.724
 03  2 28  0 20  0.0000000  0  8G23G16G 6G17G26G15G29G18
  20562624.382   -21098104.28049 -16417957.78748  20562623.932    20562629.604
  23637951.764    -9961424.46849  -7743679.87445  23637951.656    23637957.946
  20770199.778   -25874710.62149 -20149676.82047  20770199.650    20770205.515
  20924136.818   -27052602.43749 -20812811.68548  20924136.272    20924142.275
  21575399.119   -17719684.36149 -13534453.23747  21575399.242    21575405.599
  21984407.355   -19171217.99849 -14928608.47047  21984406.742    21984413.454
  22835320.820   -12552348.91149  -9749779.18246  22835320.796    22835327.206
  21391184.020   -21455523.04149 -16702612.42447  21391183.612    21391189.068
 03  2 28  0 20 30.0000000  0  8G23G16G 6G17G26G15G29G18
  20561658.610   -21103179.10549 -16421912.16348  20561658.170    20561663.844
  23634300.847    -9980611.28349  -7758630.64645  23634300.634    23634306.968
  20779866.592   -25823911.33349 -20110092.97647  20779866.458    20779872.334
  20920631.347   -27071023.93949 -20827166.07448  20920630.769    20920636.765
  21574440.542   -17724721.32049 -13538378.08447  21574440.675    21574447.059
  21973264.455   -19229773.99149 -14974236.46147  21973263.866    21973270.561
  22840966.386   -12522680.89349  -9726661.23846  22840966.418    22840972.808
  21379369.605   -21517607.94849 -16750990.19647  21379369.191    21379374.610
 03  2 28  0 21  0.0000000  0  8G23G16G 6G17G26G15G29G18
  20560776.213   -21107815.96049 -16425525.26148  20560775.771    20560781.436
  23630751.340    -9999262.17349  -7773163.78445  23630751.182    23630757.838
  20789622.318   -25772644.76549 -20070145.01347  20789622.184    20789628.039
  20917156.043   -27089286.51449 -20841396.62848  20917155.485    20917161.490
  21573606.025   -17729106.54149 -13541795.08247  21573606.153    21573612.512
  21962144.953   -19288207.42849 -15019768.94847  21962144.334    21962151.029
  22846713.205   -12492481.23749  -9703129.03346  22846713.220    22846719.577
  21367628.908   -21579305.56849 -16799066.18847  21367628.499    21367633.879
 03  2 28  0 21 30.0000000  0  8G23G16G 6G17G26G15G29G18
  20559976.471   -21112018.50649 -16428799.94048  20559976.055    20559981.678
  23627304.071   -10017379.48249  -7787281.17146  23627303.908    23627310.205
  20799466.270   -25720914.43849 -20029835.69147  20799466.129    20799471.995
  20913710.469   -27107392.91549 -20855505.47748  20913709.940    20913715.946
  21572895.130   -17732842.16249 -13544705.90747  21572895.235    21572901.595
  21951048.288   -19346520.55949 -15065207.69747  21951047.646    21951054.340
  22852560.553   -12461753.31149  -9679185.19346  22852560.532    22852566.877
  21355961.510   -21640617.79149 -16846841.87147  21355961.116    21355966.465
 03  2 28  0 22  0.0000000  0  8G23G16G 6G17G26G15G29G18
  20559259.583   -21115785.69749 -16431735.38148  20559259.141    20559264.758
  23623958.665   -10034961.04649  -7800981.05245  23623958.155    23623964.576
  20809398.692   -25668719.05249 -19989163.97747  20809398.563    20809404.451
  20910295.168   -27125340.47249 -20869490.55448  20910294.614    20910300.622
  21572308.374   -17735925.42449 -13547108.39347  21572308.482    21572314.820
  21939974.876   -19404711.02549 -15110550.85647  21939974.302    21939981.006
  22858508.654   -12430496.02149  -9654828.85046  22858508.614    22858514.983
  21344367.950   -21701541.98849 -16894315.19347  21344367.572    21344372.908
 03  2 28  0 22 30.0000000  0  8G23G16G 6G17G26G15G29G18
  20558625.809   -21119116.23949 -16434330.57748  20558625.350    20558630.952
  23620714.946   -10052004.62349  -7814261.72845  23620714.759    23620721.324
  20819419.925   -25616057.10449 -19948128.71247  20819419.806    20819425.699
  20906910.552   -27143126.66649 -20883349.89548  20906909.978    20906915.985
  21571846.358   -17738353.41949 -13549000.28947  21571846.471    21571852.773
  21928925.383   -19462776.34549 -15155796.49747  21928924.801    21928931.495
  22864557.878   -12398707.72049  -9630058.72546  22864557.796    22864564.084
  21332848.786   -21762075.29649 -16941483.92447  21332848.377    21332853.751
 03  2 28  0 23  0.0000000  0  8G23G16G 6G17G26G15G29G18
  20558073.712   -21122017.34849 -16436591.15548  20558073.262    20558078.865
  23617573.123   -10068516.22449  -7827127.89246  23617572.785    23617579.165
  20829528.666   -25562935.34249 -19906735.14347  20829528.567    20829534.476
  20903555.458   -27160757.54249 -20897088.21048  20903554.890    20903560.903
  21571507.939   -17740131.76649 -13550385.97047  21571508.046    21571514.295
  21917898.611   -19520722.43049 -15200949.21747  21917898.015    21917904.683
  22870706.740   -12366395.40949  -9604880.29546  22870706.639    22870712.903
  21321402.971   -21822222.96249 -16988352.15647  21321402.570    21321407.942
 03  2 28  0 23 30.0000000  0  8G23G16G 6G17G26G15G29G18
  20557603.832   -21124486.50849 -16438515.14548  20557603.387    20557608.988
  23614532.917   -10084492.15049  -7839576.64246  23614532.559    23614539.226
  20839725.510   -25509350.95949 -19864981.09647  20839725.378    20839731.267
  20900230.743   -27178228.98949 -20910702.29548  20900230.172    20900236.193
  21571293.983   -17741256.17949 -13551262.09347  21571294.104    21571300.275
  21906895.247   -19578545.17849 -15246005.83247  21906894.643    21906901.271
  22876955.789   -12333556.28449  -9579291.35746  22876955.703    22876961.950
  21310031.409   -21881980.67149 -17034916.53247  21310030.993    21310036.351
 03  2 28  0 24  0.0000000  0  8G23G16G 6G17G26G15G29G18
  20557216.240   -21126523.22849 -16440102.17448  20557215.796    20557221.363
  23611595.135   -10099930.89949  -7851606.79545  23611594.763    23611601.260
  20850010.448   -25455303.28449 -19822866.04247  20850010.308    20850016.210
  20896936.711   -27195539.03249 -20924190.60648  20896936.162    20896942.163
  21571204.817   -17741724.65549 -13551627.09047  21571204.906    21571211.069
  21895915.714   -19636242.92349 -15290965.03847  21895915.094    21895921.678
  22883305.136   -12300189.90149  -9553291.56046  22883305.088    22883311.334
  21298734.393   -21941346.56449 -17081175.59347  21298733.983    21298739.321
 03  2 28  0 24 30.0000000  0  8G23G16G 6G17G26G15G29G18
  20556910.518   -21128129.73549 -16441353.96048  20556910.057    20556915.619
  23608759.330   -10114833.68149  -7863219.32345  23608758.857    23608765.282
  20860383.133   -25400794.35549 -19780391.56947  20860383.007    20860388.947
  20893673.237   -27212688.64149 -20937553.90248  20893672.671    20893678.694
  21571240.306   -17741537.91649 -13551481.52547  21571240.421    21571246.543
  21884959.804   -19693816.48849 -15335827.47947  21884959.128    21884965.718
  22889754.403   -12266298.13549  -9526882.37346  22889754.383    22889760.746
  21287511.893   -22000320.96949 -17127129.59347  21287511.503    21287516.787
 03  2 28  0 25  0.0000000  0  8G23G16G 6G17G26G15G29G18
  20556685.794   -21129310.44849 -16442273.96448  20556685.343    20556690.913
  23606024.902   -10129203.69249  -7874416.69445  23606024.340    23606030.763
  20870842.815   -25345828.36649 -19737560.94247  20870842.706    20870848.643
  20890439.731   -27229680.67549 -20950794.42148  20890439.180    20890445.174
  21571399.940   -17740698.80849 -13550827.62147  21571400.041    21571406.157
  21874026.918   -19751268.91549 -15380595.52947  21874026.227    21874032.825
  22896303.054   -12231885.17249  -9500067.06246  22896302.949    22896309.354
  21276363.387   -22058906.51749 -17172780.59347  21276362.991    21276368.233
 03  2 28  0 25 30.0000000  0  8G23G16G 6G17G26G15G29G18
  20556542.676   -21130062.42649 -16442859.88148  20556542.232    20556547.792
  23603392.523   -10143037.09749  -7885195.93245  23603391.902    23603398.358
  20881390.117   -25290402.06449 -19694371.63147  20881390.014    20881395.950
  20887237.089   -27246510.63049 -20963908.63648  20887236.527    20887242.514
  21571684.570   -17739202.65749 -13549661.74247  21571684.693    21571690.770
  21863117.929   -19808595.56749 -15425265.58147  21863117.249    21863123.858
  22902951.364   -12196947.88049  -9472843.16346  22902951.267    22902957.679
  21265289.771   -22117098.54949 -17218124.95447  21265289.367    21265294.580
 03  2 28  0 26  0.0000000  0  8G23G16G 6G17G26G15G29G18
  20556480.909   -21130386.99649 -16443112.75748  20556480.455    20556485.991
  23600862.243   -10156334.04449  -7895557.17845  23600861.673    23600867.853
  20892024.788   -25234516.59249 -19650824.52147  20892024.682    20892030.626
  20884065.318   -27263178.04549 -20976896.19848  20884064.763    20884070.776
  21572094.350   -17737049.30449 -13547983.75047  21572094.450    21572100.440
  21852232.943   -19865796.47649 -15469837.65147  21852232.275    21852238.833
  22909699.144   -12161487.45949  -9445211.62646  22909699.076    22909705.486
  21254291.101   -22174896.57449 -17263162.29847  21254290.691    21254295.913
 03  2 28  0 26 30.0000000  0  8G23G16G 6G17G26G15G29G18
  20556499.932   -21130286.81749 -16443034.66148  20556499.492    20556505.017
  23598433.635   -10169096.09149  -7905501.59346  23598433.184    23598439.355
  20902746.330   -25178174.40749 -19606921.53247  20902746.250    20902752.204
  20880924.198   -27279684.73149 -20989758.51348  20880923.647    20880929.654
  21572628.833   -17734240.11649 -13545794.72347  21572628.930    21572634.932
  21841371.547   -19922873.09449 -15514312.87047  21841370.874    21841377.415
  22916546.042   -12125506.57349  -9417174.52846  22916546.035    22916552.369
  21243367.142   -22232301.77449 -17307893.54747  21243366.763    21243372.007
 03  2 28  0 27  0.0000000  0  8G23G16G 6G17G26G15G29G18
  20556599.588   -21129763.03849 -16442626.48648  20556599.143    20556604.668
  23596106.782   -10181323.49549  -7915029.39945  23596106.316    23596112.499
  20913554.635   -25121376.55349 -19562663.48047  20913554.547    20913560.496
  20877813.754   -27296030.14949 -21002495.16348  20877813.191    20877819.196
  21573288.209   -17730774.71349 -13543094.35947  21573288.333    21573294.337
  21830533.946   -19979824.73749 -15558690.70447  21830533.297    21830539.854
  22923491.900   -12089006.08449  -9388732.53846  22923491.827    22923498.124
  21232518.145   -22289313.40349 -17352318.11447  21232517.764    21232522.990
 03  2 28  0 27 30.0000000  0  8G23G16G 6G17G26G15G29G18
  20556779.880   -21128815.50249 -16441888.10648  20556779.438    20556784.964
  23593881.861   -10193015.03949  -7924139.67645  23593881.337    23593887.637
  20924449.736   -25064122.65249 -19518050.06447  20924449.605    20924455.568
  20874734.281   -27312212.78249 -21015104.96648  20874733.713    20874739.701
  21574072.822   -17726651.45749 -13539881.38747  21574072.930    21574078.968
  21819720.446   -20036649.90349 -15602969.98447  21819719.762    21819726.320
  22930536.537   -12051985.84949  -9359885.55846  22930536.440    22930542.722
  21221744.335   -22345929.79049 -17396434.69747  21221743.962    21221749.183
 03  2 28  0 28  0.0000000  0  8G23G16G 6G17G26G15G29G18
  20557040.306   -21127446.80249 -16440821.54248  20557039.858    20557045.381
  23591758.216   -10204172.56049  -7932833.81845  23591757.886    23591764.454
  20935431.147   -25006414.99849 -19473083.07347  20935431.033    20935436.986
  20871685.666   -27328233.12349 -21027588.30248  20871685.103    20871691.089
  21574982.366   -17721871.46749 -13536156.67447  21574982.471    21574988.515
  21808930.809   -20093349.47049 -15647151.39147  21808930.142    21808936.732
  22937679.708   -12014448.07249  -9330635.29446  22937679.605    22937685.877
  21211045.679   -22402151.52549 -17440243.76247  21211045.279    21211050.477
 03  2 28  0 28 30.0000000  0  8G23G16G 6G17G26G15G29G18
  20557380.616   -21125658.13949 -16439427.74248  20557380.162    20557385.687
  23589736.473   -10214796.04249  -7941111.83645  23589736.176    23589742.815
  20946498.709   -24948254.47549 -19427763.20647  20946498.611    20946504.556
  20868667.961   -27344091.10849 -21039945.13848  20868667.382    20868673.372
  21576016.939   -17716434.53849 -13531920.06747  21576017.054    21576023.088
  21798165.062   -20149923.25949 -15691234.79747  21798164.475    21798171.019
  22944921.065   -11976394.23449  -9300982.90546  22944920.982    22944927.273
  21200422.080   -22457978.45449 -17483745.18947  21200421.694    21200426.856
 03  2 28  0 29  0.0000000  0  8G23G16G 6G17G26G15G29G18
  20557800.873   -21123449.49849 -16437706.67548  20557800.421    20557805.944
  23587816.836   -10224884.36549  -7948972.84645  23587816.554    23587822.958
  20957652.514   -24889640.95049 -19382090.33647  20957652.409    20957658.350
  20865681.481   -27359785.02449 -21052174.12548  20865680.900    20865686.893
  21577176.772   -17710339.36849 -13527170.54147  21577176.891    21577182.901
  21787423.657   -20206369.89549 -15735219.10247  21787422.991    21787429.496
  22952260.773   -11937823.96349  -9270928.09846  22952260.690    22952267.005
  21189874.002   -22513408.70349 -17526937.50147  21189873.606    21189878.729
 03  2 28  0 29 30.0000000  0  8G23G16G 6G17G26G15G29G18
  20558300.603   -21120823.27149 -16435660.22348  20558300.155    20558305.667
  23585998.801   -10234439.08649  -7956418.04045  23585998.383    23586004.740
  20968892.107   -24830576.61649 -19336066.19847  20968891.998    20968897.927
  20862726.017   -27375315.81149 -21064275.99848  20862725.436    20862731.444
  21578461.719   -17703586.88349 -13521908.82347  21578461.822    21578467.819
  21776706.228   -20262690.07849 -15779104.88347  21776705.591    21776712.038
  22959698.279   -11898739.64849  -9240472.74746  22959698.192    22959704.564
  21179401.290   -22568442.84949 -17569821.16947  21179400.896    21179406.002
 03  2 28  0 30  0.0000000  0  8G23G16G 6G17G26G15G29G18
  20558879.458   -21117781.22449 -16433289.75448  20558879.004    20558884.517
  23584281.935   -10243461.06649  -7963448.11245  23584281.462    23584287.700
  20980217.166   -24771062.93849 -19289691.92247  20980217.078    20980223.015
  20859801.590   -27390683.67849 -21076250.92748  20859801.030    20859807.019
  21579871.672   -17696177.29249 -13516135.06847  21579871.786    21579877.794
  21766012.852   -20318883.70949 -15822892.05447  21766012.233    21766018.649
  22967233.273   -11859142.74149  -9209617.97146  22967233.215    22967239.638
  21169003.881   -22623081.12749 -17612396.37147  21169003.494    21169008.595
 03  2 28  0 30 30.0000000  0  8G23G16G 6G17G26G15G29G18
  20559537.294   -21114324.17749 -16430595.90448  20559536.829    20559542.335
  23582666.642   -10251950.08049  -7970062.89445  23582666.060    23582672.234
  20991627.595   -24711100.71349 -19242968.12547  20991627.499    20991633.475
  20856908.344   -27405887.64149 -21088098.13448  20856907.763    20856913.779
  21581406.729   -17688110.20849 -13509848.98347  21581406.833    21581412.838
  21755343.696   -20374950.22849 -15866580.17547  21755343.060    21755349.490
  22974865.688   -11819034.08649  -9178364.44146  22974865.602    22974872.096
  21158681.993   -22677322.44749 -17654662.25347  21158681.630    21158686.699
 03  2 28  0 31  0.0000000  0  8G23G16G 6G17G26G15G29G18
  20560274.342   -21110450.76349 -16427577.61648  20560273.889    20560279.377
  23581152.905   -10259903.81749  -7976260.58945  23581152.429    23581158.556
  21003123.701   -24650688.29549 -19195893.53147  21003123.600    21003129.584
  20854046.859   -27420924.62049 -21099815.22348  20854046.304    20854052.309
  21583067.454   -17679382.93849 -13503048.47047  21583067.563    21583073.545
  21744699.270   -20430886.58949 -15910166.87947  21744698.658    21744705.086
  22982595.646   -11778412.35349  -9146711.09646  22982595.580    22982602.104
  21148436.257   -22731163.89149 -17696616.54647  21148435.893    21148440.939
 03  2 28  0 31 30.0000000  0  8G23G16G 6G17G26G15G29G18
  20561089.697   -21106165.87449 -16424238.69648  20561089.234    20561094.703
  23579740.378   -10267326.15449  -7982044.19745  23579739.946    23579746.057
  21014704.612   -24589830.41749 -19148471.81747  21014704.503    21014710.470
  20851216.589   -27435797.65749 -21111404.56948  20851216.034    20851222.041
  21584853.047   -17669999.10949 -13495736.35347  21584853.197    21584859.200
  21734079.001   -20486696.16349 -15953654.78247  21734078.391    21734084.846
  22990422.349   -11737282.15849  -9114661.56046  22990422.282    22990428.925
  21138266.037   -22784608.53049 -17738261.63647  21138265.653    21138270.689
 03  2 28  0 32  0.0000000  0  8G23G16G 6G17G26G15G29G18
  20561983.669   -21101468.01949 -16420577.98848  20561983.215    20561988.646
  23578429.437   -10274215.04849  -7987412.15245  23578429.053    23578435.125
  21026370.588   -24528525.45049 -19100701.72947  21026370.467    21026376.404
  20848418.081   -27450503.87449 -21122863.93048  20848417.511    20848423.501
  21586764.175   -17659955.87849 -13487910.41547  21586764.314    21586770.409
  21723483.462   -20542375.79549 -15997041.43847  21723482.846    21723489.317
  22998346.048   -11695642.08449  -9082214.71646  22998345.987    22998352.673
  21128171.904   -22837653.23149 -17779595.09247  21128171.521    21128176.535
 03  2 28  0 32 30.0000000  0  8G23G16G 6G17G26G15G29G18
  20562955.519   -21096360.63549 -16416598.16648  20562955.063    20562960.475
  23577219.750   -10280572.79549  -7992366.19945  23577219.311    23577225.183
  21038120.996   -24466776.70449 -19052585.83647  21038120.882    21038126.807
  20845650.956   -27465044.94749 -21134194.60248  20845650.387    20845656.340
  21588800.350   -17649255.53449 -13479572.44847  21588800.484    21588806.623
  21712912.383   -20597926.91749 -16040327.95147  21712911.764    21712918.230
  23006366.227   -11653495.45449  -9049373.13946  23006366.234    23006372.865
  21118153.527   -22890299.83349 -17820618.33947  21118153.147    21118158.136
 03  2 28  0 33  0.0000000  0  8G23G16G 6G17G26G15G29G18
  20564005.041   -21090845.16849 -16412300.36048  20564004.586    20564009.987
  23576111.031   -10286399.94449  -7996906.79645  23576110.538    23576116.402
  21049955.659   -24404585.30449 -19004125.01747  21049955.539    21049961.452
  20842915.411   -27479420.34349 -21145396.17748  20842914.840    20842920.768
  21590961.585   -17637898.11749 -13470722.45847  21590961.708    21590967.866
  21702365.781   -20653349.32449 -16083514.16247  21702365.155    21702371.593
  23014482.622   -11610843.65249  -9016137.92846  23014482.645    23014489.166
  21108210.971   -22942548.04049 -17861331.14947  21108210.580    21108215.564
 03  2 28  0 33 30.0000000  0  8G23G16G 6G17G26G15G29G18
  20565132.049   -21084922.66249 -16407685.38848  20565131.586    20565136.969
  23575103.138   -10291696.71949  -8001034.13945  23575102.587    23575108.477
  21061874.343   -24341952.36949 -18955320.15147  21061874.218    21061880.126
  20840211.502   -27493629.32649 -21156468.08148  20840210.922    20840216.854
  21593247.844   -17625883.40649 -13461360.30147  21593247.985    21593254.152
  21691843.829   -20708642.33449 -16126599.54947  21691843.209    21691849.592
  23022694.979   -11567687.85649  -8982510.00446  23022694.950    23022701.385
  21098344.341   -22994397.13049 -17901732.96247  21098343.950    21098348.927
 03  2 28  0 34  0.0000000  0  8G23G16G 6G17G26G15G29G18
  20566336.777   -21078591.71349 -16402752.14648  20566336.302    20566341.663
  23574196.424   -10296460.79449  -8004746.37245  23574195.954    23574201.973
  21073877.337   -24278876.37749 -18906170.04547  21073877.208    21073883.109
  20837539.830   -27507668.93349 -21167408.00748  20837539.262    20837545.163
  21595659.653   -17613208.97149 -13451484.06147  21595659.796    21595665.977
  21681347.027   -20763803.21049 -16169581.97547  21681346.406    21681352.746
  23031003.453   -11524026.41849  -8948488.08246  23031003.399    23031009.769
  21088554.258   -23045844.26649 -17941821.56047  21088553.848    21088558.789
 03  2 28  0 34 30.0000000  0  8G23G16G 6G17G26G15G29G18
  20567618.442   -21071856.40449 -16397503.81648  20567617.964    20567623.311
  23573390.467   -10300695.52549  -8008046.13045  23573390.032    23573396.178
  21085963.907   -24215360.99849 -18856677.55547  21085963.781    21085969.698
  20834899.997   -27521541.32749 -21178217.63548  20834899.419    20834905.297
  21598196.435   -17599877.81049 -13441096.08747  21598196.560    21598202.761
  21670874.958   -20818834.06349 -16212463.08547  21670874.346    21670880.655
  23039407.299   -11479863.60949  -8914075.46646  23039407.210    23039413.570
  21078840.217   -23096891.54049 -17981598.57347  21078839.793    21078844.689
 03  2 28  0 35  0.0000000  0  8G23G16G 6G17G26G15G29G18
  20568977.082   -21064716.56549 -16391940.27248  20568976.614    20568981.950
  23572685.444   -10304399.65349  -8010932.43745  23572685.060    23572691.315
  21098134.133   -24151405.88849 -18806842.42247  21098134.016    21098139.960
  20832292.364   -27535244.45949 -21188895.37748  20832291.775    20832297.610
  21600858.454   -17585888.28449 -13430195.09647  21600858.597    21600864.799
  21660428.017   -20873732.88149 -16255241.31447  21660427.378    21660433.666
  23047906.657   -11435199.03049  -8879271.87446  23047906.626    23047912.960
  21069202.660   -23147536.96749 -18021062.46447  21069202.235    21069207.095
 03  2 28  0 35 30.0000000  0  8G23G16G 6G17G26G15G29G18
  20570412.205   -21057174.60849 -16386063.38748  20570411.740    20570417.097
  23572081.129   -10307575.23049  -8013406.89345  23572080.708    23572087.018
  21110387.633   -24087013.46649 -18756666.53547  21110387.503    21110393.460
  20829716.737   -27548779.23549 -21199441.92648  20829716.168    20829721.963
  21603645.520   -17571241.82249 -13418782.20547  21603645.657    21603651.838
  21650006.054   -20928500.39249 -16297917.23447  21650005.413    21650011.684
  23056501.065   -11390035.21549  -8844079.26946  23056501.007    23056507.343
  21059641.398   -23197781.54449 -18060214.00547  21059640.984    21059645.798
 03  2 28  0 36  0.0000000  0  8G23G16G 6G17G26G15G29G18
  20571923.489   -21049232.59449 -16379874.76548  20571923.034    20571928.390
  23571577.386   -10310223.12849  -8015470.17345  23571576.927    23571583.101
  21122723.977   -24022185.57449 -18706151.31747  21122723.852    21122729.848
  20827173.208   -27562145.55649 -21209857.21148  20827172.619    20827178.431
  21606557.455   -17555939.30249 -13406858.09447  21606557.602    21606563.736
  21639609.048   -20983136.68249 -16340490.89247  21639608.391    21639614.629
  23065190.076   -11344374.14249  -8808499.19146  23065190.011    23065196.269
  21050156.320   -23247625.71649 -18099053.53947  21050155.910    21050160.697
 03  2 28  0 36 30.0000000  0  8G23G16G 6G17G26G15G29G18
  20573510.660   -21040891.89549 -16373375.47348  20573510.205    20573515.535
  23571173.670   -10312344.06649  -8017122.81945  23571173.266    23571179.388
  21135142.942   -23956923.55549 -18655297.81747  21135142.805    21135148.812
  20824661.755   -27575343.12549 -21220141.00548  20824661.167    20824667.007
  21609594.174   -17539981.07749 -13394423.04947  21609594.309    21609600.403
  21629237.048   -21037641.59849 -16382962.18547  21629236.401    21629242.610
  23073973.397   -11298217.23949  -8772532.75546  23073973.381    23073979.624
  21040747.478   -23297069.11049 -18137580.77847  21040747.084    21040751.880
 03  2 28  0 37  0.0000000  0  8G23G16G 6G17G26G15G29G18
  20575173.985   -21032150.89749 -16366564.26248  20575173.544    20575178.846
  23570870.660   -10313935.65249  -8018363.00345  23570870.336    23570876.389
  21147644.858   -23891225.62149 -18604104.64847  21147644.740    21147650.720
  20822183.127   -27588368.43849 -21230290.57448  20822182.543    20822188.366
  21612756.141   -17523364.52449 -13381475.02247  21612756.270    21612762.382
  21618890.743   -21092011.65949 -16425328.40647  21618890.094    21618896.271
  23082851.485   -11251562.85549  -8736178.67446  23082851.455    23082857.609
  21031415.566   -23346108.18049 -18175792.96747  21031415.174    21031419.964
 03  2 28  0 37 30.0000000  0  8G23G16G 6G17G26G15G29G18
  20576912.573   -21023014.30149 -16359444.79048  20576912.130    20576917.425
  23570667.541   -10315002.00949  -8019193.91945  23570667.327    23570673.353
  21160228.782   -23825096.56249 -18552575.53547  21160228.678    21160234.683
  20819736.679   -27601224.53149 -21240308.27948  20819736.087    20819741.902
  21616042.755   -17506093.21149 -13368016.79947  21616042.895    21616048.934
  21608569.539   -21146249.57449 -16467591.65647  21608568.879    21608575.055
  23091823.224   -11204415.86649  -8699440.74346  23091823.174    23091829.368
  21022159.898   -23394746.69149 -18213693.03047  21022159.512    21022164.293
 03  2 28  0 38  0.0000000  0  8G23G16G 6G17G26G15G29G18
  20578726.368   -21013482.62649 -16352017.47048  20578725.925    20578731.205
  23570564.867   -10315542.57149  -8019615.11845  23570564.528    23570570.462
  21172894.721   -23758536.53849 -18500710.61047  21172894.620    21172900.608
  20817322.763   -27613909.48949 -21250192.63648  20817322.188    20817327.989
  21619454.041   -17488166.61749 -13354047.97547  21619454.174    21619460.193
  21598273.822   -21200353.82249 -16509750.74947  21598273.157    21598279.308
  23100888.596   -11156776.83749  -8662319.42146  23100888.598    23100894.755
  21012980.835   -23442982.68949 -18251279.45047  21012980.456    21012985.247
 03  2 28  0 38 30.0000000  0  8G23G16G 6G17G26G15G29G18
  20580615.239   -21003556.27349 -16344282.60948  20580614.787    20580620.061
  23570562.160   -10315557.02349  -8019626.37845  23570561.800    23570567.714
  21185642.630   -23691545.98549 -18448510.20447  21185642.535    21185648.515
  20814941.713   -27626421.88249 -21259942.51548  20814941.136    20814946.929
  21622990.141   -17469584.11049 -13339568.06047  21622990.275    21622996.293
  21588003.764   -21254323.11949 -16551804.68747  21588003.077    21588009.203
  23110047.492   -11108646.16949  -8624814.99946  23110047.467    23110053.693
  21003878.556   -23490815.21649 -18288551.47647  21003878.148    21003882.932
 03  2 28  0 39  0.0000000  0  8G23G16G 6G17G26G15G29G18
  20582578.561   -20993238.81549 -16336242.99748  20582578.118    20582583.395
  23570658.789   -10315048.33249  -8019229.97845  23570658.423    23570664.428
  21198471.808   -23624128.42549 -18395977.07047  21198471.693    21198477.669
  20812593.134   -27638763.51649 -21269559.34048  20812592.572    20812598.344
  21626650.588   -17450348.31249 -13324579.08947  21626650.731    21626656.662
  21577759.003   -21308159.26549 -16593754.87147  21577758.349    21577764.470
  23119299.296   -11060027.37649  -8586930.23346  23119299.272    23119305.524
  20994852.665   -23538246.20549 -18325510.61747  20994852.276    20994857.028
 03  2 28  0 39 30.0000000  0  8G23G16G 6G17G26G15G29G18
  20584616.294   -20982530.08049 -16327898.48448  20584615.857    20584621.145
  23570855.315   -10314015.53549  -8018425.16945  23570854.917    23570861.102
  21211382.278   -23556283.58349 -18343110.97947  21211382.146    21211388.187
  20810277.454   -27650932.18649 -21279041.38248  20810276.915    20810282.664
  21630435.540   -17430458.08549 -13309080.17847  21630435.661    21630441.577
  21567540.000   -21361860.10449 -16635599.61447  21567539.363    21567545.473
  23128644.004   -11010920.45449  -8548665.10146  23128643.933    23128650.296
  20985903.533   -23585273.99849 -18362155.57347  20985903.152    20985907.864
 03  2 28  0 40  0.0000000  0  8G23G16G 6G17G26G15G29G18
  20586728.513   -20971430.22449 -16319249.20848  20586728.075    20586733.369
  23571151.427   -10312458.35649  -8017211.77045  23571151.122    23571157.620
  21224374.027   -23488011.36649 -18289911.87447  21224373.942    21224380.006
  20807995.088   -27662926.10749 -21288387.25548  20807994.555    20808000.267
  21634345.231   -17409912.47549 -13293070.58047  21634345.384    21634351.199
  21557347.174   -21415423.71549 -16677337.43147  21557346.530    21557352.597
  23138081.624   -10961325.52549  -8510019.71746  23138081.599    23138087.896
  20977031.435   -23631896.99149 -18398485.10347  20977031.034    20977035.734
 03  2 28  0 40 30.0000000  0  8G23G16G 6G17G26G15G29G18
  20588914.286   -20959943.68649 -16310298.62948  20588913.832    20588919.139
  23571546.984   -10310380.20949  -8015592.42745  23571546.668    23571552.948
  21237446.325   -23419316.18149 -18236383.18647  21237446.202    21237452.280
  20805745.461   -27674747.89749 -21297599.00348  20805744.893    20805750.636
  21638378.916   -17388715.27249 -13276553.25947  21638379.052    21638384.891
  21547179.961   -21468852.58849 -16718970.25647  21547179.308    21547185.352
  23147611.346   -10911247.07849  -8470997.55646  23147611.292    23147617.561
  20968235.796   -23678117.97649 -18434501.38447  20968235.413    20968240.122
 03  2 28  0 41  0.0000000  0  8G23G16G 6G17G26G15G29G18
  20591173.780   -20948069.86849 -16301046.27148  20591173.337    20591178.605
  23572041.536   -10307779.91149  -8013566.19045  23572041.256    23572047.713
  21250599.210   -23350197.35649 -18182524.38447  21250599.086    21250605.191
  20803529.095   -27686394.67949 -21306674.38148  20803528.537    20803534.289
  21642536.871   -17366864.67149 -13259526.79247  21642537.024    21642542.884
  21537038.850   -21522144.31649 -16760496.21347  21537038.179    21537044.206
  23157233.047   -10860684.69849  -8431598.30046  23157233.031    23157239.269
  20959517.142   -23723934.52449 -18470202.51147  20959516.759    20959521.435
 03  2 28  0 41 30.0000000  0  8G23G16G 6G17G26G15G29G18
  20593506.680   -20935810.10749 -16291493.17448  20593506.232    20593511.482
  23572635.648   -10304658.38249  -8011133.81545  23572635.254    23572641.782
  21263832.409   -23280656.36849 -18128336.61947  21263832.295    21263838.398
  20801346.121   -27697866.27249 -21315613.24648  20801345.538    20801351.305
  21646819.073   -17344361.40449 -13241991.76047  21646819.259    21646825.100
  21526923.948   -21575298.40549 -16801914.91347  21526923.271    21526929.281
  23166946.573   -10809639.92649  -8391823.16046  23166946.507    23166952.761
  20950875.425   -23769346.70749 -18505588.55247  20950875.031    20950879.709
 03  2 28  0 42  0.0000000  0  8G23G16G 6G17G26G15G29G18
  20595912.480   -20923167.46449 -16281641.73548  20595912.027    20595917.278
  23573328.354   -10301017.94449  -8008297.11245  23573327.895    23573334.485
  21277145.397   -23210696.18849 -18073822.21747  21277145.289    21277151.414
  20799196.355   -27709163.22649 -21324416.03148  20799195.777    20799201.555
  21651225.090   -17321207.50349 -13223949.73547  21651225.249    21651231.094
  21516835.043   -21628315.79349 -16843227.10647  21516834.366    21516840.360
  23176751.284   -10758115.85549  -8351674.54246  23176751.249    23176757.458
  20942310.390   -23814356.04649 -18540660.69547  20942310.001    20942314.660
 03  2 28  0 42 30.0000000  0  8G23G16G 6G17G26G15G29G18
  20598390.835   -20910143.56349 -16271493.20948  20598390.381    20598395.627
  23574119.753   -10296859.31049  -8005056.59045  23574119.386    23574125.834
  21290537.861   -23140318.28949 -18018982.31747  21290537.757    21290543.900
  20797079.889   -27720285.08949 -21333082.38748  20797079.332    20797085.114
  21655754.777   -17297403.69749 -13205401.29547  21655754.923    21655760.758
  21506772.228   -21681195.93749 -16884432.34847  21506771.552    21506777.524
  23186646.863   -10706114.08349  -8311153.69146  23186646.769    23186652.995
  20933822.094   -23858962.12349 -18575418.60247  20933821.697    20933826.327
 03  2 28  0 43  0.0000000  0  8G23G16G 6G17G26G15G29G18
  20600942.031   -20896736.82549 -16261046.37248  20600941.575    20600946.801
  23575010.129   -10292180.80649  -8001410.98745  23575009.700    23575016.079
  21304010.165   -23069521.38949 -17963815.93047  21304010.040    21304016.158
  20794997.415   -27731228.47249 -21341609.66748  20794996.853    20795002.614
  21660408.504   -17272947.96149 -13186344.85747  21660408.671    21660414.467
  21496736.155   -21733935.70449 -16925528.20947  21496735.500    21496741.425
  23196633.554   -10653633.39749  -8270259.66246  23196633.485    23196639.743
  20925411.049   -23903162.07249 -18609860.04848  20925410.650    20925415.250
 03  2 28  0 43 30.0000000  0  8G23G16G 6G17G26G15G29G18
  20603565.345   -20882951.24849 -16250304.33648  20603564.869    20603570.103
  23575998.711   -10286985.42349  -7997362.62245  23575998.316    23576004.732
  21317561.453   -22998309.21849 -17908325.95247  21317561.319    21317567.414
  20792948.604   -27741995.09349 -21349999.20948  20792948.032    20792953.766
  21665185.784   -17247843.19849 -13166782.68047  21665185.944    21665191.681
  21486726.415   -21786536.74649 -16966515.97247  21486725.769    21486731.707
  23206710.646   -10600677.78649  -8228995.56346  23206710.619    23206716.912
  20917076.891   -23946958.10249 -18643986.75948  20917076.499    20917081.104
 03  2 28  0 44  0.0000000  0  9G23G16G 2G 6G17G26G15G29G18
  20606259.264   -20868794.40549 -16239273.00348  20606258.804    20606264.024
  23577084.470   -10281280.32149  -7992917.07745  23577084.124    23577090.338
  25112866.746    -2169029.43159  -1679954.09845  25112866.264    25112874.244
  21331190.274   -22926689.22549 -17852518.18747  21331190.144    21331196.250
  20790932.378   -27752590.41849 -21358255.27648  20790931.797    20790937.496
  21670085.257   -17222096.20949 -13146720.05847  21670085.412    21670091.121
  21476742.081   -21839004.55849 -17007399.91247  21476741.431    21476747.375
  23216876.697   -10547254.87949  -8187367.33546  23216876.661    23216883.018
  20908818.427   -23990356.24849 -18677803.42648  20908818.037    20908822.623
 03  2 28  0 44 30.0000000  0  9G23G16G 2G 6G17G26G15G29G18
  20609024.542   -20854262.65049 -16227949.52848  20609024.090    20609029.293
  23578267.858   -10275061.15649  -7988070.95445  23578267.535    23578273.656
  25108119.420    -2193976.93749  -1699393.76245  25108118.851    25108126.983
  21344897.381   -22854657.66849 -17796389.72947  21344897.275    21344903.398
  20788949.742   -27763008.99249 -21366373.61148  20788949.160    20788954.856
  21675107.779   -17195702.53949 -13126153.53147  21675107.915    21675113.661
  21466784.210   -21891333.28449 -17048175.48547  21466783.545    21466789.503
  23227132.482   -10493361.13749  -8145372.21446  23227132.391    23227138.653
  20900636.702   -24033351.15149 -18711305.87848  20900636.311    20900640.897
 03  2 28  0 45  0.0000000  0  9G23G16G 2G 6G17G26G15G29G18
  20611862.053   -20839351.21249 -16216330.19548  20611861.595    20611866.799
  23579550.206   -10268322.84949  -7982820.31545  23579549.867    23579556.006
  25103453.061    -2218499.13049  -1718502.02345  25103452.671    25103460.546
  21358683.736   -22782209.88349 -17739936.94247  21358683.641    21358689.786
  20787002.077   -27773243.72949 -21374348.70848  20787001.508    20787007.232
  21680254.454   -17168656.68849 -13105078.80947  21680254.592    21680260.315
  21456854.024   -21943516.46849 -17088837.65047  21456853.389    21456859.307
  23237478.527   -10438992.20349  -8103006.81246  23237478.458    23237484.736
  20892532.887   -24075936.77249 -18744489.40348  20892532.491    20892537.059
 03  2 28  0 45 30.0000000  0  9G23G16G 2G 6G17G26G15G29G18
  20614770.407   -20824067.53449 -16204420.79948  20614769.962    20614775.183
  23580930.130   -10261072.02949  -7977170.31945  23580929.712    23580935.891
  25098866.339    -2242601.66849  -1737283.09645  25098866.008    25098873.835
  21372547.938   -22709353.34249 -17683165.63247  21372547.823    21372553.958
  20785088.438   -27783299.75449 -21382184.54048  20785087.873    20785093.613
  21685523.898   -17140965.56349 -13083501.26347  21685524.024    21685529.712
  21446950.589   -21995559.16549 -17129390.33647  21446949.936    21446955.835
  23247913.651   -10384155.47749  -8060276.87546  23247913.574    23247919.766
  20884505.878   -24118118.76149 -18777358.40048  20884505.468    20884510.026
 03  2 28  0 46  0.0000000  0  9G23G16G 2G 6G17G26G15G29G18
  20617749.810   -20808410.49549 -16192220.46848  20617749.359    20617754.584
  23582407.566   -10253307.20449  -7971119.79245  23582407.299    23582413.532
  25094360.017    -2266281.61549  -1755734.95645  25094359.586    25094367.764
  21386490.079   -22636086.96349 -17626074.97047  21386489.961    21386496.100
  20783209.350   -27793174.18549 -21389878.87548  20783208.794    20783214.546
  21690916.470   -17112627.11349 -13061419.31047  21690916.581    21690922.256
  21437074.488   -22047458.13349 -17169831.02747  21437073.833    21437079.718
  23258438.000   -10328849.89649  -8017181.59346  23258437.898    23258444.067
  20876556.224   -24159894.23849 -18809910.64748  20876555.811    20876560.339
 03  2 28  0 46 30.0000000  0  9G23G16G 2G 6G17G26G15G29G18
  20620799.988   -20792381.57749 -16179730.36948  20620799.538    20620804.740
  23583982.670   -10245029.30449  -7964669.45645  23583982.369    23583988.581
  25089934.304    -2289538.98149  -1773857.55145  25089933.880    25089942.311
  21400509.962   -22562412.15649 -17568666.05647  21400509.845    21400516.011
  20781365.009   -27802866.14549 -21397431.02548  20781364.441    20781370.214
  21696432.071   -17083642.38549 -13038833.76147  21696432.173    21696437.815
  21427225.814   -22099213.04249 -17210159.47047  21427225.181    21427231.045
  23269051.205   -10273077.51749  -7973722.56346  23269051.061    23269057.149
  20868683.863   -24201263.33949 -18842146.24448  20868683.471    20868688.005
 03  2 28  0 47  0.0000000  0  9G23G16G 2G 6G17G26G15G29G18
  20623920.371   -20775983.82449 -16166952.86248  20623919.917    20623925.114
  23585655.162   -10236240.98049  -7957821.39045  23585654.781    23585660.951
  25085588.663    -2312375.31649  -1791652.05544  25085588.040    25085596.580
  21414606.957   -22488332.02949 -17510941.30347  21414606.826    21414613.016
  20779555.225   -27812376.51049 -21404841.67548  20779554.684    20779560.448
  21702070.092   -17054013.76349 -13015746.47647  21702070.210    21702075.875
  21417404.360   -22150824.66449 -17250376.25647  21417403.730    21417409.602
  23279752.580   -10216841.37049  -7929902.16646  23279752.502    23279758.509
  20860888.548   -24242227.46949 -18874066.28148  20860888.168    20860892.679
 03  2 28  0 47 30.0000000  0  9G23G16G 2G 6G17G26G15G29G18
  20627109.980   -20759221.99649 -16153891.66248  20627109.559    20627114.736
  23587423.788   -10226946.52949  -7950578.93945  23587423.487    23587429.600
  25081322.552    -2334793.28649  -1809120.56244  25081321.763    25081330.437
  21428780.155   -22413851.35249 -17452904.44047  21428780.045    21428786.242
  20777779.425   -27821708.44849 -21412113.29248  20777778.873    20777784.624
  21707829.959   -17023745.33049 -12992160.63747  21707830.112    21707835.724
  21407609.745   -22202295.55549 -17290483.38747  21407609.111    21407614.967
  23290541.203   -10160146.26649  -7885724.12546  23290541.114    23290547.207
  20853169.749   -24282789.80749 -18905673.23848  20853169.371    20853173.880
 03  2 28  0 48  0.0000000  0  9G23G16G 2G 6G17G26G15G29G18
  20630369.737   -20742091.72249 -16140543.36148  20630369.293    20630374.471
  23589289.612   -10217141.04949  -7942938.29645  23589289.384    23589295.567
  25077137.248    -2356787.01949  -1826258.53644  25077136.499    25077144.993
  21443030.422   -22338965.73649 -17394552.04447  21443030.329    21443036.522
  20776038.946   -27830854.80049 -21419240.29848  20776038.398    20776044.105
  21713712.550   -16992832.13849 -12968072.38647  21713712.669    21713718.283
  21397843.174   -22253619.14549 -17330475.73547  21397842.522    21397848.334
  23301418.013   -10102988.13349  -7841185.29346  23301417.904    23301424.016
  20845528.489   -24322944.52049 -18936962.56548  20845528.111    20845532.611
 03  2 28  0 48 30.0000000  0  9G23G16G 2G 6G17G26G15G29G18
  20633698.465   -20724599.17649 -16126912.76348  20633698.008    20633703.205
  23591251.800   -10206830.25549  -7934903.89645  23591251.506    23591257.731
  25073031.909    -2378360.77349  -1843069.19244  25073031.242    25073039.214
  21457356.635   -22263681.36649 -17335888.92047  21457356.521    21457362.681
  20774333.034   -27839819.34849 -21426225.62948  20774332.479    20774338.158
  21719716.780   -16961279.73149 -12943486.04447  21719716.913    21719722.473
  21388103.821   -22304799.56249 -17370356.51147  21388103.164    21388108.960
  23312381.532   -10045373.31249  -7796290.60446  23312381.464    23312387.713
  20837963.966   -24362696.14449 -18967937.79048  20837963.578    20837968.055
 03  2 28  0 49  0.0000000  0  9G23G16G 2G 6G17G26G15G29G18
  20637096.059   -20706744.47149 -16112999.96948  20637095.606    20637100.794
  23593309.841   -10196013.83349  -7926475.51045  23593309.672    23593315.974
  25069006.704    -2399513.13149  -1859551.51244  25069006.277    25069014.222
  21471758.656   -22187998.39749 -17276915.20647  21471758.521    21471764.669
  20772662.057   -27848600.20249 -21433067.82648  20772661.506    20772667.198
  21725842.706   -16929087.71349 -12918401.30347  21725842.822    21725848.359
  21378392.077   -22355834.83149 -17410124.19147  21378391.438    21378397.203
  23323432.023    -9987302.21749  -7751040.37146  23323431.974    23323438.285
  20830476.480   -24402042.89049 -18998597.52248  20830476.111    20830480.544
 03  2 28  0 49 30.0000000  0  9G23G16G 2G 6G17G26G15G29G18
  20640562.495   -20688528.03949 -16098805.31248  20640562.056    20640567.230
  23595464.479   -10184691.63149  -7917653.00645  23595464.240    23595470.463
  25065062.042    -2420242.68349  -1875704.40244  25065061.729    25065069.747
  21486236.468   -22111917.15749 -17217631.14747  21486236.338    21486242.494
  20771026.400   -27857195.30649 -21439765.28048  20771025.848    20771031.550
  21732090.403   -16896255.77249 -12892817.92147  21732090.497    21732096.033
  21368708.416   -22406722.75849 -17449777.06047  21368707.752    21368713.491
  23334569.344    -9928775.38349  -7705435.02346  23334569.294    23334575.586
  20823066.233   -24440983.98049 -19028941.16848  20823065.832    20823070.228
 03  2 28  0 50  0.0000000  0  9G23G16G 2G 6G17G26G15G29G18
  20644097.215   -20669952.77949 -16084331.04848  20644096.759    20644101.924
  23597714.844   -10172866.33149  -7908438.45945  23597714.583    23597720.785
  25061197.584    -2440550.87849  -1891528.96444  25061197.034    25061205.087
  21500789.397   -22035440.81049 -17158039.21147  21500789.263    21500795.474
  20769425.937   -27865605.61749 -21446318.73748  20769425.396    20769431.095
  21738459.382   -16862786.46449 -12866737.88947  21738459.478    21738464.977
  21359052.541   -22457464.43449 -17489315.97247  21359051.886    21359057.611
  23345792.788    -9869795.91049  -7659476.95246  23345792.784    23345798.996
  20815732.816   -24479521.07549 -19058970.01548  20815732.419    20815736.796
 03  2 28  0 50 30.0000000  0  9G23G16G 2G 6G17G26G15G29G18
  20647699.308   -20651023.42449 -16069580.86648  20647698.856    20647704.025
  23600060.003   -10160542.34149  -7898835.35445  23600059.699    23600065.825
  25057412.747    -2460440.62249  -1907027.46344  25057411.995    25057419.918
  21515416.655   -21958574.00249 -17098143.02447  21515416.557    21515422.772
  20767860.147   -27873833.71249 -21452730.20448  20767859.600    20767865.300
  21744948.849   -16828683.92249 -12840164.42647  21744948.965    21744954.453
  21349424.061   -22508062.17049 -17528742.71947  21349423.412    21349429.103
  23357101.346    -9810368.91349  -7613170.17146  23357101.306    23357107.549
  20808475.762   -24517656.88149 -19088686.16848  20808475.362    20808479.753
 03  2 28  0 51  0.0000000  0  9G23G16G 2G 6G17G26G15G29G18
  20651369.630   -20631735.67449 -16054551.41548  20651369.185    20651374.319
  23602501.043   -10147714.96849  -7888839.97845  23602500.728    23602506.718
  25053708.505    -2479906.39149  -1922195.58145  25053707.749    25053715.610
  21530118.992   -21881312.68349 -17037939.42747  21530118.899    21530125.144
  20766330.337   -27881873.00349 -21458994.55348  20766329.779    20766335.484
  21751559.673   -16793943.49449 -12813093.91347  21751559.809    21751565.280
  21339824.222   -22558509.59149 -17568052.34147  21339823.558    21339829.229
  23368495.864    -9750490.26349  -7566511.45046  23368495.857    23368502.043
  20801296.051   -24555386.10249 -19118085.49848  20801295.673    20801300.081
 03  2 28  0 51 30.0000000  0  9G23G16G 2G 6G17G26G15G29G18
  20655107.358   -20612093.63249 -16039245.90148  20655106.927    20655112.042
  23605037.070   -10134387.91949  -7878455.27045  23605036.783    23605042.814
  25050084.457    -2498950.61249  -1937035.17245  25050083.668    25050091.730
  21544895.624   -21803661.02449 -16977431.66647  21544895.539    21544901.806
  20764836.089   -27889725.27049 -21465113.17748  20764835.534    20764841.199
  21758291.226   -16758569.07349 -12785529.39147  21758291.348    21758296.799
  21330252.597   -22608808.59149 -17607246.31947  21330251.924    21330257.586
  23379975.556    -9690164.52849  -7519504.34846  23379975.440    23379981.610
  20794193.231   -24592711.26049 -19147169.97648  20794192.870    20794197.254
 03  2 28  0 52  0.0000000  0  9G23G16G 2G 6G17G26G15G29G18
  20658911.909   -20592100.62449 -16023666.90148  20658911.463    20658916.567
  23607667.607   -10120564.13149  -7867683.47945  23607667.362    23607673.375
  25046540.494    -2517574.77949  -1951547.51845  25046539.741    25046547.833
  21559745.886   -21725622.32749 -16916622.31447  21559745.799    21559752.072
  20763377.218   -27897391.68349 -21471086.97348  20763376.634    20763382.285
  21765142.869   -16722563.19549 -12757472.81147  21765142.965    21765148.459
  21320709.074   -22658960.00649 -17646325.28947  21320708.401    21320714.062
  23391539.593    -9629394.94849  -7472151.38946  23391539.484    23391545.582
  20787166.962   -24629634.25449 -19175941.07548  20787166.604    20787170.982
 03  2 28  0 52 30.0000000  0  9G23G16G 2G 6G17G26G15G29G18
  20662783.291   -20571756.31949 -16007814.16648  20662782.833    20662787.929
  23610392.872   -10106242.97349  -7856524.11845  23610392.505    23610398.642
  25043076.657    -2535777.04249  -1965731.10445  25043075.960    25043083.939
  21574669.849   -21647196.45449 -16855511.27247  21574669.767    21574676.026
  20761954.156   -27904869.59449 -21476913.89148  20761953.589    20761959.241
  21772114.728   -16685925.27249 -12728923.75047  21772114.849    21772120.349
  21311194.044   -22708961.47049 -17685287.41747  21311193.358    21311199.026
  23403188.006    -9568181.72749  -7424452.74346  23403187.930    23403194.070
  20780217.616   -24666153.04449 -19204397.22048  20780217.255    20780221.594
 03  2 28  0 53  0.0000000  0  9G23G16G 2G 6G17G26G15G29G18
  20666721.405   -20551061.20949 -15991688.07648  20666720.947    20666726.028
  23613212.644   -10091424.62349  -7844977.37045  23613212.334    23613218.543
  25039693.316    -2553556.36749  -1979585.07945  25039692.521    25039700.654
  21589667.419   -21568383.91649 -16794098.92847  21589667.314    21589673.583
  20760567.414   -27912156.87149 -21482592.26548  20760566.859    20760572.497
  21779206.896   -16648655.43049 -12699882.28547  21779207.039    21779212.520
  21301707.920   -22758811.13049 -17724131.25647  21301707.255    21301712.880
  23414920.695    -9506525.64049  -7376408.99146  23414920.628    23414926.756
  20773345.429   -24702266.50349 -19232537.52548  20773345.053    20773349.370
 03  2 28  0 53 30.0000000  0  9G23G16G 2G 6G17G26G15G29G18
  20670725.355   -20530020.25649 -15975292.49348  20670724.905    20670729.953
  23616126.243   -10076113.69349  -7833046.75745  23616125.886    23616132.084
  25036389.950    -2570915.98949  -1993112.02545  25036389.219    25036397.182
  21604737.628   -21489189.78149 -16732389.23247  21604737.501    21604743.787
  20759216.475   -27919256.11749 -21488124.11148  20759215.904    20759221.542
  21786418.524   -16610758.12249 -12670351.87747  21786418.646    21786424.088
  21292250.206   -22808511.46749 -17762858.73847  21292249.532    21292255.145
  23426736.796    -9444431.63449  -7328023.99346  23426736.698    23426742.877
  20766549.721   -24737977.97149 -19260364.58948  20766549.337    20766553.642
 03  2 28  0 54  0.0000000  0  9G23G16G 2G 6G17G26G15G29G18
  20674795.144   -20508633.23349 -15958627.25248  20674794.678    20674799.739
  23619133.629   -10060309.73149  -7820731.96945  23619133.313    23619139.435
  25033166.678    -2587854.35649  -2006310.74545  25033165.990    25033173.891
  21619880.420   -21409613.99149 -16670382.15147  21619880.288    21619886.601
  20757901.705   -27926165.13749 -21493507.74148  20757901.134    20757906.771
  21793749.569   -16572233.01449 -12640332.28547  21793749.701    21793755.125
  21282821.376   -22858060.10549 -17801468.02247  21282820.710    21282826.345
  23438636.043    -9381900.06149  -7279298.04746  23438635.960    23438642.232
  20759830.796   -24773286.05549 -19287877.33048  20759830.419    20759834.716
 03  2 28  0 54 30.0000000  0  9G23G16G 2G 6G17G26G15G29G18
  20678930.365   -20486902.20649 -15941693.95448  20678929.915    20678934.975
  23622234.540   -10044014.68349  -7808034.53045  23622234.158    23622240.277
  25030023.386    -2604371.99049  -2019181.58645  25030022.725    25030030.791
  21635095.442   -21329658.63549 -16608079.30347  21635095.325    21635101.649
  20756623.250   -27932883.38749 -21498742.71248  20756622.669    20756628.278
  21801199.819   -16533081.65549 -12609824.69747  21801199.944    21801205.344
  21273421.428   -22907456.71949 -17839958.84347  21273420.767    21273426.416
  23450618.161    -9318933.25849  -7230232.96346  23450618.135    23450624.399
  20753188.573   -24808191.07349 -19315075.99048  20753188.177    20753192.484
 03  2 28  0 55  0.0000000  0  9G23G16G 2G 6G17G26G15G29G18
  20683130.541   -20464830.11849 -15924494.89048  20683130.097    20683135.114
  23625428.362   -10027231.12149  -7794956.41345  23625428.007    23625434.098
  25026960.018    -2620470.18249  -2031725.59745  25026959.497    25026967.395
  21650382.089   -21249326.68649 -16545483.00547  21650381.982    21650388.319
  20755381.042   -27939411.17949 -21503829.27448  20755380.459    20755386.061
  21808768.683   -16493306.83949 -12578831.30647  21808768.814    21808774.217
  21264050.309   -22956701.94349 -17878331.69247  21264049.665    21264055.307
  23462682.593    -9255534.32449  -7180831.14546  23462682.613    23462688.814
  20746622.740   -24842694.56249 -19341961.76548  20746622.342    20746626.642
 03  2 28  0 55 30.0000000  0  9G23G16G 2G 6G17G26G15G29G18
  20687396.206   -20442413.94249 -15907027.71948  20687395.764    20687400.748
  23628715.712   -10009955.81549  -7781495.15145  23628715.371    23628721.428
  25023977.315    -2636144.53649  -2043939.36345  25023976.752    25023984.603
  21665741.018   -21168615.37049 -16482591.10347  21665740.910    21665747.211
  20754175.942   -27945743.75149 -21508763.72448  20754175.383    20754180.957
  21816456.851   -16452905.15249 -12547349.44147  21816457.001    21816462.381
  21254709.061   -23005790.22449 -17916582.25747  21254708.422    21254714.034
  23474829.742    -9191700.69749  -7131090.59946  23474829.753    23474835.925
  20740134.115   -24876792.18449 -19368531.28648  20740133.744    20740138.021
 03  2 28  0 56  0.0000000  0  9G23G16G 2G 6G17G26G15G29G18
  20691725.897   -20419660.97049 -15889298.09948  20691725.457    20691730.429
  23632095.412    -9992195.78349  -7767656.16146  23632095.101    23632101.094
  25021074.141    -2651400.64149  -2055827.24045  25021073.531    25021081.585
  21681170.675   -21087532.11349 -16419409.36647  21681170.558    21681176.853
  20753007.197   -27951885.43749 -21513549.42348  20753006.643    20753012.209
  21824262.942   -16411883.71949 -12515384.66247  21824263.077    21824268.525
  21245396.714   -23054726.71149 -17954714.53347  21245396.059    21245401.682
  23487058.216    -9127439.87049  -7081017.17246  23487058.169    23487064.292
  20733721.610   -24910489.85149 -19394789.14548  20733721.224    20733725.485
 03  2 28  0 56 30.0000000  0  9G23G16G 2G 6G17G26G15G29G18
  20696120.073   -20396569.29549 -15871304.56448  20696119.615    20696124.601
  23635567.646    -9973949.03949  -7753437.92046  23635567.277    23635573.313
  25018251.204    -2666235.29849  -2067386.71245  25018250.775    25018258.434
  21696671.423   -21006075.16349 -16355936.44347  21696671.307    21696677.597
  20751875.516   -27957832.39649 -21518183.39348  20751874.986    20751880.520
  21832187.390   -16370240.16549 -12482935.12147  21832187.531    21832192.998
  21236114.043   -23103507.07449 -17992725.15547  21236113.395    21236119.051
  23499368.223    -9062750.23949  -7030609.62246  23499368.186    23499374.262
  20727385.928   -24943783.93749 -19420732.53448  20727385.550    20727389.792
 03  2 28  0 57  0.0000000  0  9G23G16G 2G 6G17G26G15G29G18
  20700577.388   -20373145.94549 -15853052.58148  20700576.919    20700581.898
  23639131.231    -9955222.28749  -7738845.64546  23639130.880    23639136.889
  25015507.342    -2680654.11349  -2078622.11545  25015506.956    25015514.658
  21712241.911   -20924251.63949 -16292177.86947  21712241.808    21712248.107
  20750780.060   -27963589.01249 -21522669.03948  20750779.504    20750785.047
  21840228.860   -16327981.65249 -12450006.39647  21840229.004    21840234.566
  21226860.208   -23152136.01149 -18030617.78447  21226859.591    21226865.255
  23511758.317    -8997639.22249  -6979873.72546  23511758.308    23511764.338
  20721125.877   -24976680.40949 -19446366.09548  20721125.493    20721129.721
 03  2 28  0 57 30.0000000  0  9G23G16G 2G 6G17G26G15G29G18
  20705098.945   -20349384.75449 -15834537.34348  20705098.479    20705103.478
  23642787.254    -9936009.27049  -7723874.47546  23642786.949    23642792.986
  25012844.058    -2694649.33149  -2089527.48145  25012843.529    25012851.591
  21727883.291   -20842055.79349 -16228129.17947  21727883.150    21727889.496
  20749722.430   -27969146.92349 -21526999.85148  20749721.866    20749727.399
  21848388.614   -16285101.68549 -12416593.40647  21848388.725    21848394.349
  21217636.848   -23200604.94549 -18068385.73547  21217636.236    21217641.869
  23524229.714    -8932101.28149  -6928805.16346  23524229.715    23524235.733
  20714942.969   -25009171.76149 -19471683.97548  20714942.584    20714946.781
 03  2 28  0 58  0.0000000  0  9G23G16G 2G 6G17G26G15G29G18
  20709684.284   -20325288.58349 -15815761.08148  20709683.804    20709688.820
  23646535.388    -9916312.62749  -7708526.44646  23646535.104    23646541.189
  25010261.237    -2708222.32149  -2100103.84145  25010260.727    25010268.744
  21743594.970   -20759490.27349 -16163792.43547  21743594.862    21743601.203
  20748702.504   -27974506.48349 -21531176.10448  20748701.953    20748707.501
  21856666.107   -16241602.86849 -12382698.20646  21856666.255    21856671.861
  21208443.862   -23248914.25849 -18106029.30647  21208443.250    21208448.849
  23536781.717    -8866139.26449  -6877406.18146  23536781.765    23536787.897
  20708836.953   -25041258.90449 -19496686.88948  20708836.541    20708840.720
 03  2 28  0 58 30.0000000  0  9G23G16G 2G 6G17G26G15G29G18
  20714331.621   -20300866.54449 -15796730.89348  20714331.147    20714336.171
  23650373.859    -9896141.29449  -7692808.54046  23650373.567    23650379.699
  25007757.382    -2721380.85149  -2110357.23345  25007756.850    25007764.764
  21759375.292   -20676564.30649 -16099174.81447  21759375.178    21759381.506
  20747719.101   -27979674.09049 -21535202.77848  20747718.543    20747724.120
  21865059.766   -16197494.15949 -12348327.75046  21865059.884    21865065.436
  21199280.054   -23297070.52049 -18143553.60647  21199279.394    21199284.979
  23549412.638    -8799762.76449  -6825684.20846  23549412.651    23549418.923
  20702806.324   -25072949.68349 -19521380.94248  20702805.936    20702810.119
 03  2 28  0 59  0.0000000  0  9G23G16G 2G 6G17G26G15G29G18
  20719041.712   -20276114.59449 -15777443.64448  20719041.266    20719046.287
  23654303.452    -9875491.17949  -7676717.55546  23654303.147    23654309.307
  25005333.412    -2734119.44649  -2120283.41245  25005332.798    25005340.617
  21775224.893   -20593274.24449 -16034273.49547  21775224.766    21775231.091
  20746773.442   -27984643.46349 -21539074.99148  20746772.878    20746778.479
  21873570.200   -16152771.48849 -12313478.89546  21873570.332    21873575.771
  21190146.530   -23345067.41249 -18180953.73347  21190145.857    21190151.402
  23562123.205    -8732968.18349  -6773636.48246  23562123.221    23562129.555
  20696852.156   -25104238.73249 -19545761.97548  20696851.768    20696855.955
 03  2 28  0 59 30.0000000  0  9G23G16G 2G 6G17G26G15G29G18
  20723814.467   -20251033.55249 -15757899.95348  20723814.032    20723819.031
  23658323.894    -9854363.29249  -7660254.28046  23658323.644    23658329.824
  25002989.287    -2746437.55649  -2129881.93145  25002988.771    25002996.488
  21791143.581   -20509621.15449 -15969089.28847  21791143.475    21791149.771
  20745865.774   -27989413.17349 -21542791.62048  20745865.196    20745870.772
  21882197.282   -16107435.63249 -12278152.22946  21882197.440    21882202.879
  21181043.613   -23392903.30649 -18218228.40647  21181042.959    21181048.500
  23574913.262    -8665756.66249  -6721263.85546  23574913.297    23574919.459
  20690974.524   -25135125.64849 -19569829.64948  20690974.167    20690978.309
 03  2 28  1  0  0.0000000  0  9G23G16G 2G 6G17G26G15G29G18
  20728648.717   -20225629.33849 -15738104.43748  20728648.275    20728653.284
  23662434.202    -9832763.31649  -7643423.14246  23662433.948    23662440.169
  25000724.293    -2758339.93549  -2139156.51145  25000723.680    25000731.586
  21807130.146   -20425611.21849 -15903627.02447  21807130.058    21807136.350
  20744995.423   -27993986.76049 -21546355.41848  20744994.859    20745000.410
  21890939.931   -16061492.48749 -12242352.35046  21890940.058    21890945.506
  21171970.633   -23440581.81649 -18255380.44047  21171969.990    21171975.535
  23587781.308    -8598134.45549  -6668571.21846  23587781.309    23587787.507
  20685172.560   -25165614.96549 -19593587.50548  20685172.173    20685176.305
 03  2 28  1  0 30.0000000  0 10G23G16G 2G 6G17G26G15G 3G29G18
  20733544.578   -20199901.21049 -15718056.52348  20733544.126    20733549.146
  23666634.655    -9810690.32649  -7626223.41646  23666634.390    23666640.516
  24998538.757    -2769824.28249  -2148105.29745  24998538.063    24998546.003
  21823184.691   -20341244.00949 -15837886.37047  21823184.584    21823190.915
  20744163.055   -27998360.75649 -21549763.69648  20744162.495    20744168.021
  21899798.303   -16014941.23349 -12206078.62346  21899798.405    21899803.902
  21162928.259   -23488099.71749 -18292407.33047  21162927.620    21162933.126
  24578666.622    -1605663.60559  -1233219.31345  24578666.493    24578673.563
  23600727.522    -8530101.43449  -6615558.48346  23600727.497    23600733.713
  20679446.714   -25195704.39649 -19617033.77348  20679446.327    20679450.422
 03  2 28  1  1  0.0000000  0 10G23G16G 2G 6G17G26G15G 3G29G18
  20738501.447   -20173852.60349 -15697758.87548  20738500.985    20738506.018
  23670924.416    -9788147.56849  -7608657.64946  23670924.150    23670930.273
  24996432.573    -2780892.53849  -2156729.91245  24996431.890    24996440.044
  21839306.591   -20256522.98449 -15771870.01247  21839306.463    21839312.808
  20743368.487   -28002536.12849 -21553017.19148  20743367.935    20743373.452
  21908771.770   -15967785.06849 -12169333.53246  21908771.873    21908777.453
  21153916.319   -23535457.64149 -18329309.55347  21153915.689    21153921.127
  24559759.056    -1705023.81649  -1310642.78645  24559758.913    24559765.418
  23613751.270    -8461661.03849  -6562228.29746  23613751.210    23613757.453
  20673796.474   -25225396.42849 -19640170.36748  20673796.079    20673800.152
 03  2 28  1  1 30.0000000  0 10G23G16G 2G 6G17G26G15G 3G29G18
  20743519.590   -20147481.85949 -15677210.22248  20743519.141    20743524.181
  23675303.929    -9765133.45449  -7590724.57946  23675303.619    23675309.779
  24994406.323    -2791541.69149  -2165027.94045  24994405.593    24994413.640
  21855496.094   -20171446.58249 -15705576.73847  21855495.975    21855502.316
  20742612.445   -28006508.99049 -21556112.89348  20742611.889    20742617.397
  21917860.682   -15920022.29349 -12132115.76446  21917860.801    21917866.414
  21144935.591   -23582651.64349 -18366084.04447  21144934.926    21144940.345
  24540882.036    -1804223.57549  -1387941.17045  24540881.721    24540888.378
  23626852.726    -8392812.27949  -6508579.93046  23626852.610    23626858.907
  20668222.497   -25254687.47749 -19662994.51648  20668222.108    20668226.182
 03  2 28  1  2  0.0000000  0 10G23G16G 2G 6G17G26G15G 3G29G18
  20748598.534   -20120791.55249 -15656412.55648  20748598.095    20748603.137
  23679772.575    -9741650.61649  -7572426.27546  23679772.175    23679778.460
  24992459.394    -2801773.08649  -2173000.45945  24992458.711    24992466.765
  21871752.675   -20086017.86449 -15639008.94147  21871752.551    21871758.888
  20741894.967   -28010279.36749 -21559050.81648  20741894.405    20741899.880
  21927064.590   -15871655.75249 -12094427.51746  21927064.689    21927070.257
  21135985.911   -23629682.11749 -18402731.11647  21135985.252    21135990.654
  24522035.684    -1903261.97149  -1465113.93545  24522035.268    24522042.114
  23640031.351    -8323558.10849  -6454615.62546  23640031.266    23640037.489
  20662724.530   -25283579.20649 -19685507.50348  20662724.154    20662728.208
 03  2 28  1  2 30.0000000  0 10G23G16G 2G 6G17G26G15G 3G29G18
  20753737.691   -20093784.87149 -15635368.35948  20753737.277    20753742.299
  23684329.654    -9717702.60949  -7553765.50346  23684329.330    23684335.707
  24990591.428    -2811588.86049  -2180649.11645  24990590.774    24990598.876
  21888075.665   -20000240.36049 -15572169.36247  21888075.520    21888081.812
  20741215.870   -28013847.83449 -21561831.40748  20741215.315    20741220.765
  21936382.644   -15822688.75749 -12056271.38246  21936382.758    21936388.343
  21127067.244   -23676549.70549 -18439251.26547  21127066.596    21127072.003
  24503220.201    -2002137.57249  -1542159.69645  24503219.834    24503226.480
  23653286.478    -8253902.38649  -6400338.42546  23653286.390    23653292.559
  20657302.227   -25312073.46349 -19707710.76848  20657301.848    20657305.890
 03  2 28  1  3  0.0000000  0  9G23G16G 2G 6G17G26G15G29G18
  20758937.658   -20066459.01549 -15614075.44848  20758937.217    20758942.237
  23688975.968    -9693286.37149  -7534739.86646  23688975.584    23688981.920
  24988803.383    -2820984.68949  -2187970.54545  24988802.783    24988810.859
  21904465.520   -19914111.33049 -15505055.85647  21904465.374    21904471.658
  20740576.184   -28017209.30249 -21564450.70348  20740575.618    20740581.061
  21945815.502   -15773118.40949 -12017645.10846  21945815.618    21945821.170
  21118180.655   -23723248.93349 -18475640.21247  21118180.008    21118185.408
  23666618.486    -8183842.54049  -6345746.32346  23666618.361    23666624.502
  20651956.372   -25340165.85549 -19729600.89448  20651955.998    20651960.026
 03  2 28  1  3 30.0000000  0  9G23G16G 2G 6G17G26G15G29G18
  20764196.943   -20038821.01449 -15592539.30648  20764196.496    20764201.526
  23693709.999    -9668408.59549  -7515354.61046  23693709.667    23693716.040
  24987093.901    -2829966.30949  -2194969.21344  24987093.394    24987101.636
  21920920.871   -19827637.87049 -15437673.97047  21920920.753    21920927.043
  20739975.048   -28020368.07049 -21566912.04948  20739974.514    20739979.938
  21955361.878   -15722951.57849 -11978554.03746  21955362.009    21955367.528
  21109325.242   -23769784.13949 -18511901.35447  21109324.589    21109329.981
  23680026.023    -8113385.85349  -6290844.98946  23680025.919    23680031.971
  20646685.965   -25367861.86149 -19751182.14348  20646685.577    20646689.615
 03  2 28  1  4  0.0000000  0 10G23G16G 2G 6G17G26G15G 3G29G18
  20769515.706   -20010870.63649 -15570759.75548  20769515.264    20769520.292
  23698531.876    -9643069.17349  -7495609.62546  23698531.548    23698538.005
  24985463.755    -2838532.28249  -2201643.98344  24985463.343    24985471.279
  21937441.736   -19740819.95849 -15370023.68447  21937441.625    21937447.966
  20739413.017   -28023321.49349 -21569213.39248  20739412.454    20739417.878
  21965021.796   -15672188.28449 -11938998.18846  21965021.922    21965027.417
  21100501.577   -23816152.70449 -18548032.65047  21100500.907    21100506.284
                   -904454.50459   -692959.84643
  23693508.894    -8042532.69549  -6235634.72946  23693508.785    23693514.850
  20641491.201   -25395160.20149 -19772453.52348  20641490.843    20641494.854
 03  2 28  1  4 30.0000000  0 10G23G16G 2G 6G17G26G15G 3G29G18
  20774893.062   -19982612.27649 -15548740.21648  20774892.631    20774897.643
  23703440.757    -9617272.92849  -7475508.67846  23703440.409    23703446.844
  24983912.248    -2846685.71649  -2207997.33144  24983911.728    24983919.955
  21954027.323   -19653662.41549 -15302108.75247  21954027.183    21954033.547
  20738889.692   -28026071.48149 -21571356.21848  20738889.126    20738894.538
  21974794.383   -15620833.07449 -11898981.10146  21974794.497    21974799.925
  21091709.232   -23862356.61349 -18584035.64547  21091708.564    21091713.942
                  -1002651.30249   -769477.06243
  23707066.233    -7971287.84449  -6180119.24946  23707066.200    23707072.339
  20636371.538   -25422064.11849 -19793417.56148  20636371.168    20636375.169
 03  2 28  1  5  0.0000000  0 10G23G16G 2G 6G17G26G15G 3G29G18
  20780329.403   -19954044.06249 -15526479.23348  20780328.968    20780333.967
  23708437.063    -9591017.65449  -7455050.03146  23708436.691    23708443.057
  24982439.961    -2854423.26749  -2214026.62044  24982439.277    24982447.435
  21970677.750   -19566163.60949 -15233927.89447  21970677.646    21970684.038
  20738405.979   -28028613.24449 -21573336.78948  20738405.431    20738410.813
  21984679.934   -15568884.04649 -11858501.30046  21984680.073    21984685.485
  21082949.019   -23908391.45549 -18619906.89947  21082948.359    21082953.738
                  -1100670.95949   -845855.94744                  24409632.889
  23720698.404    -7899649.78149  -6124297.37146  23720698.422    23720704.652
  20631327.535   -25448570.37549 -19814071.73048  20631327.160    20631331.152
 03  2 28  1  5 30.0000000  0 10G23G16G 2G 6G17G26G15G 3G29G18
  20785823.467   -19925172.34549 -15503981.75948  20785823.034    20785828.032
  23713519.332    -9564309.88649  -7434238.81146  23713519.002    23713525.455
  24981045.770    -2861750.14649  -2219735.87945  24981044.932    24981053.368
  21987391.910   -19478330.23349 -15165486.34547  21987391.795    21987398.245
  20737961.119   -28030950.91749 -21575158.32848  20737960.559    20737965.958
  21994677.229   -15516347.80949 -11817563.93346  21994677.352    21994682.788
  21074220.322   -23954260.73049 -18655649.14147  21074219.661    21074225.075
  24391008.264    -1198515.56949   -922098.35145  24391007.447    24391014.791
  23734404.127    -7827625.57249  -6068174.58646  23734404.134    23734410.427
  20626358.238   -25474683.97849 -19834419.93548  20626357.870    20626361.868
 03  2 28  1  6  0.0000000  0 10G23G16G 2G 6G17G26G15G 3G29G18
  20791376.007   -19895993.43749 -15481244.91348  20791375.580    20791380.561
  23718688.471    -9537146.39849  -7413072.46146  23718688.084    23718694.488
  24979730.480    -2868661.70749  -2225121.49645  24979729.733    24979738.385
  22004170.344   -19390159.11049 -15096781.61347  22004170.240    22004176.682
  20737556.225   -28033078.37249 -21576816.06248  20737555.689    20737561.081
  22004786.873   -15463221.00249 -11776166.40146  22004787.023    22004792.434
  21065524.298   -23999958.43349 -18691257.68847  21065523.632    21065529.067
  24372423.662    -1296177.63949   -998198.57645  24372420.784    24372429.871
  23748184.024    -7755211.91849  -6011748.32945  23748183.915    23748190.252
  20621464.564   -25500400.27149 -19854458.54448  20621464.177    20621468.162
 03  2 28  1  6 30.0000000  0 10G23G16G 2G 6G17G26G15G 3G29G18
  20796985.689   -19866514.14649 -15458274.00648  20796985.257    20796990.225
  23723942.836    -9509533.93349  -7391556.25846  23723942.546    23723948.940
  24978493.041    -2875163.55748  -2230187.81644  24978492.040    24978500.927
  22021011.693   -19301657.26249 -15027819.17247  22021011.561    22021018.074
  20737190.567   -28034999.85249 -21578313.29948  20737190.032    20737195.418
  22015007.558   -15409510.47549 -11734314.01646  22015007.718    22015013.150
  21056860.082   -24045488.85249 -18726735.89347  21056859.430    21056864.861
  24353873.294    -1393659.43749  -1074158.30145  24353872.784    24353879.829
  23762036.565    -7682416.05549  -5955024.22245  23762036.495    23762042.711
  20616645.425   -25525724.71449 -19874191.82048  20616645.064    20616649.009
 03  2 28  1  7  0.0000000  0 10G23G16G 2G 6G17G26G15G 3G29G18
  20802652.427   -19836735.10649 -15435069.52248  20802651.994    20802656.941
  23729282.648    -9481473.15849  -7369690.71345  23729282.329    23729288.708
  24977333.671    -2881254.96648  -2234934.35144  24977332.922    24977341.551
  22037915.829   -19212825.42249 -14958599.59147  22037915.708    22037922.257
  20736864.516   -28036713.05949 -21579648.24748  20736863.978    20736869.434
  22025339.196   -15355216.99749 -11692007.38746  22025339.365    22025344.815
  21048228.095   -24090849.94249 -18762082.14847  21048227.445    21048232.862
  24335358.069    -1490957.71749  -1149975.06945  24335357.633    24335364.399
  23775961.726    -7609238.86849  -5898002.98345  23775961.644    23775967.785
  20611901.011   -25550656.39549 -19893619.04748  20611900.648    20611904.602
 03  2 28  1  7 30.0000000  0 10G23G16G 2G 6G17G26G15G 3G29G18
  20808376.711   -19806653.57149 -15411629.33648  20808376.281    20808381.251
  23734708.208    -9452961.45149  -7347473.82845  23734707.973    23734714.349
  24976253.253    -2886931.95649  -2239357.99944  24976252.340    24976261.321
  22054883.217   -19123661.24549 -14889121.04447  22054883.112    22054889.666
  20736579.123   -28038212.75049 -21580816.82048  20736578.585    20736584.043
  22035782.303   -15300338.29849 -11649244.74646  22035782.505    22035787.871
  21039629.362   -24136036.45449 -18797292.36847  21039628.728    21039634.108
  24316879.025    -1588065.36549  -1225643.19045  24316878.575    24316885.521
  23789959.714    -7535678.50549  -5840683.16545  23789959.674    23789965.751
  20607232.123   -25575191.33249 -19912737.12848  20607231.750    20607235.708
 03  2 28  1  8  0.0000000  0 10G23G16G 2G 6G17G26G15G 3G29G18
  20814157.906   -19776273.10949 -15387956.21748  20814157.469    20814162.463
  23740218.899    -9424002.69249  -7324908.57345  23740218.609    23740224.967
  24975251.517    -2892197.06749  -2243460.71144  24975250.665    24975259.402
  22071913.081   -19034168.81449 -14819386.70746  22071912.963    22071919.508
  20736334.086   -28039500.11649 -21581819.94048  20736333.565    20736339.016
  22046336.045   -15244878.01449 -11606028.91946  22046336.199    22046341.606
  21031063.637   -24181049.39449 -18832367.34047  21031063.008    21031068.338
  24298436.344    -1684981.76149  -1301162.38945  24298435.812    24298442.924
  23804029.944    -7461738.87349  -5783067.84245  23804029.883    23804035.926
  20602638.276   -25599331.97949 -19931547.96648  20602637.901    20602641.855
 03  2 28  1  8 30.0000000  0 10G23G16G 2G 6G17G26G15G 3G29G18
  20819994.900   -19745599.36649 -15364054.57148  20819994.458    20819999.443
  23745813.528    -9394602.71749  -7301999.51245  23745813.246    23745819.548
  24974327.163    -2897054.86449  -2247245.99444  24974326.095    24974334.949
  22089004.303   -18944353.91249 -14749401.10046  22089004.181    22089010.725
  20736128.923   -28040578.41649 -21582660.14948  20736128.377    20736133.802
  22056999.241   -15188842.13849 -11562364.58546  22056999.427    22057004.919
  21022530.398   -24225891.78949 -18867309.41547  21022529.766    21022535.067
  24280029.963    -1781708.33349  -1376533.66845  24280029.406    24280036.302
  23818171.170    -7387426.24049  -5725161.84345  23818171.123    23818177.117
  20598118.608   -25623082.71249 -19950054.96648  20598118.240    20598122.194
 03  2 28  1  9  0.0000000  0 10G23G16G 2G 6G17G26G15G 3G29G18
  20825888.138   -19714630.04749 -15339922.61248  20825887.708    20825892.670
  23751492.581    -9364759.43449  -7278745.02545  23751492.234    23751498.624
  24973480.700    -2901501.90749  -2250711.24744  24973479.989    24973488.708
  22106157.219   -18854214.70549 -14679162.78846  22106157.116    22106163.676
  20735964.384   -28041443.01849 -21583333.83948  20735963.841    20735969.230
  22067772.492   -15132228.52749 -11518250.06946  22067772.689    22067778.110
  21014030.529   -24270558.64649 -18902114.71147  21014029.900    21014035.211
  24261660.687    -1878238.64749  -1451752.00945  24261660.112    24261667.071
  23832383.713    -7312738.71949  -5666963.76245  23832383.654    23832389.731
  20593673.806   -25646440.09649 -19968255.47148  20593673.447    20593677.377
 03  2 28  1  9 30.0000000  0 10G23G16G 2G 6G17G26G15G 3G29G18
  20831836.788   -19683369.50049 -15315563.71948  20831836.350    20831841.309
  23757255.090    -9334477.51749  -7255148.74545  23757254.734    23757261.116
  24972711.875    -2905541.37348  -2253858.89444  24972711.173    24972720.339
  22123370.954   -18763755.65249 -14608675.24246  22123370.899    22123377.484
  20735840.281   -28042094.93749 -21583841.80648  20735839.747    20735845.142
  22078654.743   -15075042.03449 -11473689.16046  22078654.906    22078660.267
  21005563.757   -24315051.59349 -18936784.49447  21005563.131    21005568.486
  24243328.707    -1974572.99849  -1526817.60645  24243328.244    24243335.134
  23846666.667    -7237681.30749  -5608477.44045  23846666.566    23846672.719
  20589303.300   -25669407.02649 -19986151.72248  20589302.942    20589306.858
 03  2 28  1 10  0.0000000  0 10G23G16G 2G 6G17G26G15G 3G29G18
  20837841.479   -19651814.55749 -15290975.43048  20837841.053    20837846.008
  23763101.600    -9303753.58349  -7231208.03445  23763101.287    23763107.617
  24972021.148    -2909169.17249  -2256685.71544  24972020.449    24972030.158
  22140646.157   -18672973.88049 -14537936.23546  22140646.070    22140652.709
  20735757.646   -28042529.17349 -21584180.14348  20735757.104    20735762.511
  22089646.587   -15017279.62649 -11428679.46346  22089646.746    22089652.035
  20997131.163   -24359364.74949 -18971314.17847  20997130.539    20997135.911
  24225035.704    -2070703.51249  -1601724.41745  24225035.297    24225042.171
  23861020.535    -7162251.09149  -5549700.62145  23861020.509    23861026.630
  20585007.889   -25691979.31549 -20003740.46248  20585007.536    20585011.451
 03  2 28  1 10 30.0000000  0 10G23G16G 2G 6G17G26G15G 3G29G18
  20843900.510   -19619974.05049 -15266164.62748  20843900.088    20843905.030
  23769030.505    -9272597.15949  -7206930.29645  23769030.183    23769036.382
  24971407.920    -2912393.04449  -2259197.81644  24971407.216    24971416.482
  22157980.977   -18581878.79749 -14466953.08346  22157980.909    22157987.540
  20735715.320   -28042751.41149 -21584353.29448  20735714.773    20735720.196
  22100746.248   -14958950.57349 -11383228.23246  22100746.402    22100751.687
  20988731.652   -24403504.32749 -19005708.60447  20988731.024    20988736.383
  24206780.391    -2166634.94349  -1676476.10645  24206780.155    24206786.885
  23875443.549    -7086457.51249  -5490640.66145  23875443.495    23875449.671
  20580786.159   -25714164.58749 -20021027.63348  20580785.769    20580789.685
 03  2 28  1 11  0.0000000  0 10G23G16G 2G 6G17G26G15G 3G29G18
  20850014.248   -19587845.89949 -15241129.68748  20850013.826    20850018.780
  23775041.905    -9241006.22349  -7182314.00445  23775041.622    23775048.026
  24970871.833    -2915210.04448  -2261392.79444  24970871.205    24970880.713
  22175375.783   -18490468.69749 -14395724.46846  22175375.747    22175382.320
  20735714.124   -28042757.52649 -21584358.03348  20735713.594    20735719.014
  22111953.998   -14900053.16249 -11337334.13546  22111954.142    22111959.450
  20980366.027   -24447465.82849 -19039964.27147  20980365.385    20980370.737
  24188564.246    -2262360.90549  -1751067.70445  24188564.066    24188570.809
  23889935.956    -7010299.15149  -5431296.46345  23889935.931    23889942.082
  20576638.642   -25735959.67249 -20038010.76448  20576638.260    20576642.152
 03  2 28  1 11 30.0000000  0 10G23G16G 2G 6G17G26G15G 3G29G18
  20856182.944   -19555429.15549 -15215869.86548  20856182.535    20856187.448
  23781136.273    -9208980.15149  -7157358.62845  23781135.972    23781142.333
  24970413.562    -2917618.18949  -2263269.25044  24970413.082    24970422.274
  22192830.700   -18398742.99749 -14324249.92846  22192830.643    22192837.236
  20735754.810   -28042543.62449 -21584191.33148  20735754.276    20735759.712
  22123270.040   -14840586.97149 -11290996.81646  22123270.149    22123275.446
  20972034.943   -24491245.81249 -19074078.49547  20972034.323    20972039.640
  24170388.118    -2357876.42349  -1825495.31245  24170388.039    24170394.582
  23904497.827    -6933775.59949  -5371667.66145  23904497.801    23904503.836
  20572565.800   -25757362.33549 -20054688.11048  20572565.409    20572569.290
 03  2 28  1 12  0.0000000  0 10G23G16G 2G 6G17G26G15G 3G29G18
  20862404.932   -19522732.38749 -15190391.84348  20862404.508    20862409.433
  23787311.741    -9176528.04349  -7132071.28845  23787311.387    23787317.780
  24970031.675    -2919624.70948  -2264832.78544  24970031.418    24970040.492
  22210343.924   -18306710.66749 -14252536.46446  22210343.879    22210350.420
  20735836.277   -28042115.43149 -21583857.65548  20735835.750    20735841.197
  22134692.572   -14780560.90449 -11244223.23646  22134692.711    22134697.984
  20963737.304   -24534849.97049 -19108055.71647  20963736.657    20963741.967
  24152251.247    -2453185.90749  -1899762.42545  24152251.174    24152257.565
  23919127.357    -6856895.90849  -5311761.36545  23919127.343    23919133.306
  20568566.186   -25778380.09949 -20071065.54248  20568565.808    20568569.665
 03  2 28  1 12 30.0000000  0 10G23G16G 2G 6G17G26G15G 3G29G18
  20868680.698   -19489752.84049 -15164693.47348  20868680.283    20868685.205
  23793568.764    -9143647.20349  -7106449.86345  23793568.375    23793574.804
  24969726.724    -2921226.04748  -2266080.54944  24969726.358    24969735.141
  22227915.912   -18214369.30949 -14180582.18646  22227915.894    22227922.439
  20735959.483   -28041467.94149 -21583353.09748  20735958.944    20735964.406
  22146222.044   -14719972.62949 -11197011.57646  22146222.229    22146227.604
  20955474.164   -24578272.89149 -19141891.70647  20955473.538    20955478.850
  24134155.024    -2548282.38449  -1973863.48345  24134154.782    24134161.358
  23933825.172    -6779657.94049  -5251575.90045  23933825.098    23933831.081
  20564640.593   -25799009.11949 -20087140.05148  20564640.226    20564644.069
 03  2 28  1 13  0.0000000  0 10G23G16G 2G 6G17G26G15G 3G29G18
  20875010.094   -19456491.57649 -15138775.58148  20875009.672    20875014.596
  23799907.119    -9110339.00549  -7080495.43345  23799906.607    23799913.123
  24969499.198    -2922422.14349  -2267012.59044  24969498.775    24969507.173
  22245546.425   -18121720.38349 -14108388.25546  22245546.379    22245552.996
  20736124.747   -28040599.45549 -21582676.32748  20736124.210    20736129.676
  22157858.355   -14658823.67949 -11149363.02646  22157858.484    22157863.901
  20947245.850   -24621512.93849 -19175585.20147  20947245.224    20947250.531
  24116099.898    -2643162.54649  -2047796.08345  24116099.693    24116105.908
  23948590.957    -6702063.41149  -5191112.60245  23948590.936    23948596.873
  20560789.012   -25819249.07149 -20102911.38248  20560788.622    20560792.467
 03  2 28  1 13 30.0000000  0 10G23G16G 2G 6G17G26G15G 3G29G18
  20881392.141   -19422953.51549 -15112642.00148  20881391.724    20881396.670
  23806325.765    -9076608.93949  -7054212.27945  23806325.294    23806331.754
  24969348.017    -2923216.90948  -2267631.91444  24969347.440    24969355.826
  22263234.499   -18028769.11049 -14035958.71646  22263234.453    22263241.065
  20736331.634   -28039512.04449 -21581828.96648  20736331.107    20736336.567
  22169600.323   -14597119.41049 -11101281.76646  22169600.445    22169605.898
  20939051.900   -24664572.35349 -19209137.94247  20939051.257    20939056.579
  24098085.789    -2737827.04049  -2121560.50945  24098085.624    24098091.943
  23963423.617    -6624117.67949  -5130375.61945  23963423.547    23963429.526
  20557010.719   -25839103.93349 -20118382.65848  20557010.328    20557014.153
 03  2 28  1 14  0.0000000  0 10G23G16G 2G 6G17G26G15G 3G29G18
  20887826.984   -19389138.01549 -15086292.24248  20887826.569    20887831.512
  23812824.717    -9042456.77749  -7027600.22245  23812824.255    23812830.791
  24969273.346    -2923608.76848  -2267937.27444  24969272.783    24969281.034
  22280980.078   -17935515.56449 -13963293.63946  22280980.018    22280986.667
  20736580.703   -28038203.13749 -21580809.02148  20736580.174    20736585.595
  22181447.934   -14534859.72749 -11052767.71246  22181448.063    22181453.537
  20930892.915   -24707447.96549 -19242547.47047  20930892.275    20930897.563
  24080113.368    -2832271.15749  -2195153.19045  24080113.275    24080119.708
  23978322.967    -6545820.83849  -5069365.06945  23978322.893    23978328.937
  20553306.013   -25858572.05149 -20133552.58648  20553305.633    20553309.436
 03  2 28  1 14 30.0000000  0 10G23G16G 2G 6G17G26G15G 3G29G18
  20894313.857   -19355049.47849 -15059729.71848  20894313.418    20894318.326
  23819403.075    -9007887.03649  -7000662.77045  23819402.641    23819409.209
  24969274.755    -2923601.38849  -2267931.47144  24969274.451    24969282.426
  22298782.316   -17841964.36249 -13890396.63646  22298782.254    22298788.873
  20736871.638   -28036674.13949 -21579617.56648  20736871.103    20736876.503
  22193400.232   -14472049.56349 -11003824.70346  22193400.409    22193405.832
  20922768.575   -24750141.34149 -19275814.98147  20922767.939    20922773.222
  24062183.174    -2926494.85149  -2268574.20345  24062183.057    24062189.407
  23993288.173    -6467177.77149  -5008084.73345  23993288.182    23993294.253
  20549674.276   -25877656.54549 -20148423.56548  20549673.917    20549677.721
 03  2 28  1 15  0.0000000  0 10G23G16G 2G 6G17G26G15G 3G29G18
  20900853.378   -19320683.90049 -15032951.32548  20900852.941    20900857.837
  23826061.733    -8972896.10949  -6973397.13945  23826061.281    23826067.768
  24969353.296    -2923189.62449  -2267610.58744  24969352.837    24969360.712
  22316641.865   -17748111.87349 -13817264.85846  22316641.820    22316648.433
  20737205.715   -28034918.41949 -21578249.45148  20737205.182    20737210.586
  22205458.007   -14408685.23149 -10954449.87046  22205458.152    22205463.554
  20914680.204   -24792645.92649 -19308935.39247  20914679.569    20914684.826
  24044296.555    -3020489.65749  -2341816.81145  24044296.490    24044302.801
  24008320.085    -6388184.84949  -4946531.75845  24008320.146    24008326.157
  20546116.577   -25896352.24649 -20162991.60248  20546116.210    20546119.995
 03  2 28  1 15 30.0000000  0  9G23G16G 6G17G26G15G 3G29G18
  20907444.391   -19286047.77449 -15005962.10648  20907443.978    20907448.862
  23832799.051    -8937491.00349  -6945808.76345  23832798.577    23832805.135
  22334557.411   -17653965.15949 -13743903.80446  22334557.368    22334563.955
  20737582.213   -28032939.62149 -21576707.49648  20737581.681    20737587.086
  22217619.856   -14344773.88849 -10904648.79446  22217620.002    22217625.367
  20906626.993   -24834965.58049 -19341911.69447  20906626.364    20906631.600
  24026452.841    -3114258.00149  -2414882.94145  24026452.763    24026459.371
  24023417.054    -6308849.52049  -4884712.00445  24023417.045    24023423.142
  20542631.839   -25914664.48149 -20177260.83448  20542631.462    20542635.221
 03  2 28  1 16  0.0000000  0  9G23G16G 6G17G26G15G 3G29G18
  20914087.094   -19251139.91649 -14978761.15148  20914086.659    20914091.573
  23839615.380    -8901670.73249  -6917896.88745  23839614.948    23839621.570
  22352529.118   -17559523.71949 -13670313.10046  22352529.016    22352535.596
  20738001.904   -28030734.07049 -21574988.85748  20738001.380    20738006.799
  22229886.025   -14280314.86749 -10854420.94746  22229886.150    22229891.409
  20898609.793   -24877096.11249 -19374740.64347  20898609.164    20898614.384
  24008653.496    -3207794.46049  -2487768.39945  24008653.414    24008659.853
  24038579.271    -6229171.05049  -4822624.86345  24038579.288    24038585.373
  20539220.455   -25932591.29249 -20191229.73948  20539220.064    20539223.851
 03  2 28  1 16 30.0000000  0  9G23G16G 6G17G26G15G 3G29G18
  20920780.059   -19215968.00849 -14951354.43848  20920779.626    20920784.549
  23846509.117    -8865443.87649  -6889668.18045  23846508.765    23846515.403
  22370555.255   -17464795.50749 -13596498.93446  22370555.167    22370561.783
  20738463.782   -28028306.88049 -21573097.50748  20738463.261    20738468.646
  22242254.838   -14215316.50249 -10803772.82646  22242254.958    22242260.184
  20890627.578   -24919042.72349 -19407426.26847  20890626.930    20890632.151
  23990897.605    -3301102.69949  -2560476.00445  23990897.418    23990903.864
  24053805.270    -6149157.64349  -4760276.75545  24053805.277    24053811.473
  20535881.110   -25950139.26749 -20204903.45148  20535880.756    20535884.543
 03  2 28  1 17  0.0000000  0  9G23G16G 6G17G26G15G 3G29G18
  20927523.806   -19180529.11849 -14923739.68748  20927523.377    20927528.334
  23853480.805    -8828807.65949  -6861120.48645  23853480.409    23853486.989
  22388636.490   -17369778.04549 -13522459.37846  22388636.419    22388643.007
  20738968.882   -28025652.39049 -21571029.03948  20738968.351    20738973.726
  22254726.719   -14149776.46349 -10752702.62246  22254726.863    22254732.068
  20882681.462   -24960799.61449 -19439964.05147  20882680.821    20882686.038
  23973186.470    -3394175.22449  -2632999.93745  23973186.258    23973192.656
  24069095.522    -6068807.19349  -4697665.97045  24069095.542    24069101.500
  20532614.710   -25967304.20549 -20218278.69448  20532614.327    20532618.121
 03  2 28  1 17 30.0000000  0  9G23G16G 6G17G26G15G 3G29G18
  20934318.013   -19144825.26049 -14895918.47848  20934317.584    20934322.493
  23860529.684    -8791764.56649  -6832255.77245  23860529.440    23860536.107
  22406772.292   -17274473.77949 -13448196.34446  22406772.224    22406778.840
  20739517.302   -28022770.29249 -21568783.22048  20739516.781    20739522.155
  22267301.140   -14083697.47849 -10701212.47146  22267301.268    22267306.509
  20874771.539   -25002366.13349 -19472353.50747  20874770.897    20874776.115
  23955520.561    -3487010.06349  -2705338.68446  23955520.307    23955526.741
  24084449.254    -5988122.34849  -4634794.62745  24084449.313    24084455.177
  20529420.967   -25984087.18549 -20231356.31948  20529420.618    20529424.382
 03  2 28  1 18  0.0000000  0  9G23G16G 6G17G26G15G 3G29G18
  20941161.881   -19108860.38949 -14867893.87748  20941161.456    20941166.342
  23867655.302    -8754319.15949  -6803077.55545  23867655.106    23867661.625
  22424961.807   -17178887.05749 -13373713.21046  22424961.782    22424968.407
  20740108.786   -28019661.78049 -21566360.97148  20740108.272    20740113.640
  22279977.300   -14017083.84249 -10649305.70746  22279977.433    22279982.725
  20866897.634   -25043743.45849 -19504595.53447  20866897.028    20866902.234
  23937900.053    -3579606.60549  -2777491.75346  23937899.758    23937906.077
  24099865.841    -5907107.25949  -4571665.95445  24099865.891    24099871.772
  20526299.436   -26000490.82149 -20244138.33748  20526299.069    20526302.841
 03  2 28  1 18 30.0000000  0  9G23G16G 6G17G26G15G 3G29G18
  20948055.188   -19072635.71249 -14839666.82248  20948054.773    20948059.651
  23874857.264    -8716473.06249  -6773587.10945  23874857.030    23874863.518
  22443204.765   -17083019.61149 -13299011.33546  22443204.723    22443211.407
  20740743.744   -28016325.04749 -21563760.88048  20740743.222    20740748.576
  22292754.734   -13949937.57949 -10596983.91046  22292754.857    22292760.219
  20859060.029   -25084930.09449 -19536688.97147  20859059.404    20859064.624
  23920325.419    -3671961.75049  -2849456.67346  23920325.113    23920331.377
  24115344.831    -5825763.99649  -4508281.56145  24115344.914    24115350.833
  20523250.020   -26016515.44449 -20256625.00348  20523249.680    20523253.426
 03  2 28  1 19  0.0000000  0  9G23G16G 6G17G26G15G 3G29G18
  20954997.793   -19036152.15249 -14811238.04948  20954997.347    20955002.228
  23882135.294    -8678227.60149  -6743785.44345  23882135.002    23882141.397
  22461500.859   -16986872.84849 -13224091.80346  22461500.886    22461507.539
  20741422.431   -28012758.48249 -21560981.70948  20741421.912    20741427.248
  22305633.162   -13882260.32849 -10544248.35946  22305633.302    22305638.735
  20851259.055   -25125924.16549 -19568632.36447  20851258.444    20851263.638
  23902797.265    -3764072.51249  -2921231.24146  23902797.068    23902803.286
  24130886.112    -5744094.22249  -4444642.75445  24130886.195    24130892.095
  20520272.697   -26032161.16149 -20268816.44348  20520272.351    20520276.095
 03  2 28  1 19 30.0000000  0  9G23G16G 6G17G26G15G 3G29G18
  20961989.279   -18999411.48249 -14782608.93148  20961988.847    20961993.728
  23889488.696    -8639585.39149  -6713674.64445  23889488.431    23889494.686
  22479849.757   -16890449.12449 -13148956.46846  22479849.734    22479856.407
  20742144.902   -28008961.71749 -21558023.16148  20742144.382    20742149.690
  22318612.284   -13814054.52449 -10491100.95446  22318612.436    22318617.847
  20843494.941   -25166724.74749 -19600424.97447  20843494.339    20843499.499
  23885316.023    -3855936.44849  -2992813.41446  23885315.840    23885321.999
  24146489.041    -5662100.45849  -4380751.49445  24146489.173    24146495.073
  20517367.382   -26047428.64149 -20280713.13448  20517367.022    20517370.775
 03  2 28  1 20  0.0000000  0  9G23G16G 6G17G26G15G 3G29G18
  20969029.557   -18962414.20349 -14753779.86048  20969029.153    20969034.042
  23896917.463    -8600547.51149  -6683255.52845  23896917.128    23896923.290
  22498251.142   -16793749.47949 -13073606.12446  22498251.124    22498257.758
  20742911.715   -28004931.99149 -21554883.08548  20742911.211    20742916.477
  22331691.632   -13745321.55149 -10437542.77446  22331691.772    22331697.225
  20835768.053   -25207329.76349 -19632065.20347  20835767.428    20835772.580
  23867882.596    -3947549.63749  -3064200.28546  23867882.439    23867888.474
  24162153.427    -5579783.78149  -4316608.64045  24162153.509    24162159.497
  20514534.115   -26062317.35849 -20292314.68748  20514533.764    20514537.504
 03  2 28  1 20 30.0000000  0  9G23G16G 6G17G26G15G 3G29G18
  20976117.852   -18925164.93449 -14724754.43148  20976117.446    20976122.317
  23904420.676    -8561118.83749  -6652531.89745  23904420.214    23904426.416
  22516704.075   -16696778.87649 -12998044.63046  22516703.990    22516710.611
  20743722.375   -28000671.78949 -21551563.41648  20743721.850    20743727.094
  22344870.339   -13676066.54449 -10383577.80546  22344870.468    22344875.913
  20828078.020   -25247740.78449 -19663554.27547  20828077.422    20828082.559
  23850496.762    -4038912.37649  -3135391.94946  23850496.544    23850502.552
  24177878.130    -5497149.37349  -4252218.18345  24177878.213    24177884.256
  20511772.246   -26076830.93049 -20303623.92548  20511771.876    20511775.628
 03  2 28  1 21  0.0000000  0  9G23G16G 6G17G26G15G 3G29G18
  20983254.038   -18887663.84949 -14695532.78048  20983253.616    20983258.475
  23911997.991    -8521300.28049  -6621504.45145  23911997.469    23912003.738
  22535208.337   -16599538.11549 -12922272.62646  22535208.300    22535214.929
  20744577.488   -27996178.10649 -21548061.82348  20744576.968    20744582.192
  22358148.274   -13606290.33549 -10329206.72446  22358148.466    22358153.837
  20820425.419   -25287955.30449 -19694890.22647  20820424.820    20820429.978
  23833159.361    -4130020.70349  -3206385.38745  23833159.227    23833165.191
  24193663.212    -5414198.21149  -4187580.89245  24193663.175    24193669.212
  20509081.896   -26090968.60549 -20314640.25748  20509081.538    20509085.286
 03  2 28  1 21 30.0000000  0  9G23G16G 6G17G26G15G 3G29G18
  20990438.416   -18849909.59749 -14666113.86048  20990438.012    20990442.840
  23919649.380    -8481090.80349  -6590172.39245  23919649.021    23919655.402
  22553764.265   -16502026.37949 -12846289.47746  22553764.224    22553770.802
  20745477.688   -27991447.33349 -21544375.48248  20745477.165    20745482.389
  22371525.529   -13535992.59149 -10274429.24246  22371525.656    22371531.090
  20812810.998   -25327969.24249 -19726069.87447  20812810.391    20812815.559
  23815871.386    -4220868.88249  -3277176.02545  23815871.264    23815877.473
  24209508.634    -5330929.55149  -4122696.17845  24209508.706    24209514.683
  20506463.495   -26104728.12049 -20325361.92548  20506463.141    20506466.885
 03  2 28  1 22  0.0000000  0  9G23G16G 6G17G26G15G 3G29G18
  20997669.729   -18811908.61349 -14636502.68948  20997669.326    20997674.187
  23927373.965    -8440497.81749  -6558541.50245  23927373.634    23927379.922
  22572370.418   -16404250.74749 -12770100.70346  22572370.343    22572376.971
  20746422.271   -27986483.28349 -21540507.37648  20746421.761    20746427.008
  22385000.634   -13465180.37849 -10219250.88746  22385000.787    22385006.241
  20805234.002   -25367786.25849 -19757096.08647  20805233.417    20805238.592
  23798632.593    -4311459.19849  -3347765.85345  23798632.482    23798638.728
  24225413.219    -5247350.42049  -4057569.53745  24225413.265    24225419.223
  20503916.043   -26118114.97549 -20335793.20948  20503915.705    20503919.427
 03  2 28  1 22 30.0000000  0 10G23G16G 6G14G17G26G15G 3G29G18
  21004947.722   -18773662.48149 -14606700.49448  21004947.337    21004952.173
  23935171.228    -8399523.45649  -6526613.44045  23935170.807    23935176.993
  22591026.316   -16306213.34349 -12693707.96246  22591026.238    22591032.976
  24662414.223    -1651220.68659  -1272779.30245  24662413.368    24662424.488
  20747411.475   -27981284.86949 -21536456.64548  20747410.956    20747416.220
  22398573.156   -13393855.89049 -10163673.34646  22398573.341    22398578.881
  20797694.793   -25407405.02549 -19787967.82247  20797694.206    20797699.354
  23781443.358    -4401788.82949  -3418152.54945  23781443.328    23781449.400
  24241376.369    -5163463.13249  -3992202.81745  24241376.444    24241382.539
  20501439.419   -26131129.44749 -20345934.30948  20501439.079    20501442.809
 03  2 28  1 23  0.0000000  0 10G23G16G 6G14G17G26G15G 3G29G18
  21012271.204   -18735177.26149 -14576711.99248  21012270.798    21012275.635
  23943039.712    -8358174.38149  -6494393.36445  23943039.209    23943045.372
  22609730.734   -16207920.72849 -12617116.34846  22609730.719    22609737.515
  24640771.880    -1764950.09849  -1361399.08545  24640771.190    24640782.068
  20748444.638   -27975855.37249 -21532225.84548  20748444.121    20748449.414
  22412241.819   -13322026.31249 -10107702.23646  22412242.017    22412247.585
  20790192.645   -25446828.96749 -19818687.74247  20790192.040    20790197.174
  23764303.317    -4491859.66549  -3488337.46745  23764303.174    23764309.278
  24257396.830    -5079274.42749  -3926601.21045  24257396.864    24257403.097
  20499032.668   -26143776.90749 -20355789.43748  20499032.335    20499036.053
 03  2 28  1 23 30.0000000  0 10G23G16G 6G14G17G26G15G 3G29G18
  21019641.237   -18696447.45749 -14546532.90548  21019640.825    21019645.642
  23950980.443    -8316445.74049  -6461877.56445  23950979.872    23950986.003
  22628484.668   -16109368.01649 -12540322.06746  22628484.666    22628491.506
  24619129.501    -1878678.00349  -1450017.71345  24619129.002    24619139.962
  20749523.322   -27970186.68549 -21527808.66748  20749522.814    20749528.135
  22426007.526   -13249686.76249 -10051333.73846  22426007.718    22426013.261
  20782729.108   -25486049.99549 -19849249.55647  20782728.506    20782733.584
  23747214.326    -4581662.12149  -3558313.36645  23747214.347    23747220.256
  24273475.598    -4994779.67349  -3860761.09845  24273475.632    24273481.801
  20496696.931   -26156051.03149 -20365353.64848  20496696.602    20496700.316
 03  2 28  1 24  0.0000000  0 10G23G16G 6G14G17G26G15G 3G29G18
  21027057.689   -18657473.76049 -14516163.76748  21027057.271    21027062.083
  23958993.037    -8274338.85749  -6429066.99545  23958992.555    23958998.662
  22647287.924   -16010556.34149 -12463325.99346  22647287.889    22647294.759
  24597488.350    -1992400.50549  -1538632.16245  24597487.785    24597498.867
  20750647.940   -27964276.64349 -21523203.42248  20750647.436    20750652.755
  22439870.029   -13176838.89749  -9994569.14846  22439870.241    22439875.710
  20775304.686   -25525065.71749 -19879651.38347  20775304.066    20775309.083
  23730177.215    -4671192.40049  -3628077.21645  23730177.189    23730182.944
  24289612.521    -4909980.02549  -3794683.43045  24289612.461    24289618.696
  20494432.333   -26167951.47849 -20374626.67848  20494431.990    20494435.668
 03  2 28  1 24 30.0000000  0 10G23G16G 6G14G17G26G15G 3G29G18
  21034520.281   -18618257.47949 -14485605.61248  21034519.865    21034524.673
  23967077.196    -8231855.84749  -6395963.39045  23967076.788    23967083.026
  22666140.106   -15911487.93149 -12386129.86946  22666140.048    22666146.880
  24575848.779    -2106114.80349  -1627240.25545  24575848.295    24575859.339
  20751818.704   -27958124.22349 -21518409.31548  20751818.195    20751823.483
  22453828.843   -13103484.98649  -9937410.23546  22453829.018    22453834.434
  20767919.510   -25563874.90449 -19909892.28147  20767918.879    20767923.856
  23713192.406    -4760447.92349  -3697626.80745  23713192.227    23713198.210
  24305807.001    -4824877.78949  -3728369.97245  24305806.949    24305813.070
  20492238.690   -26179479.04649 -20383609.16248  20492238.359    20492242.028
 03  2 28  1 25  0.0000000  0 10G23G16G 6G14G17G26G15G 3G29G18
  21042027.697   -18578805.64549 -14454863.89947  21042027.278    21042032.096
  23975231.568    -8189004.48949  -6362572.70745  23975231.143    23975237.336
  22685039.729   -15812170.35149 -12308739.56646  22685039.634    22685046.395
  24554210.362    -2219823.70649  -1715844.17145  24554209.765    24554220.975
  20753034.748   -27951733.71249 -21513429.67148  20753034.233    20753039.490
  22467882.428   -13029632.86749  -9879863.11346  22467882.628    22467888.020
  20760572.818   -25602481.76949 -19939975.52447  20760572.215    20760577.167
  23696259.389    -4849431.27549  -3766964.43245  23696259.301    23696265.027
  24322057.593    -4739480.65449  -3661826.69545  24322057.610    24322063.489
  20490114.884   -26190639.49549 -20392305.58548  20490114.569    20490118.226
 03  2 28  1 25 30.0000000  0 10G23G16G 6G14G17G26G15G 3G29G18
  21049580.464   -18539115.43249 -14423936.43847  21049580.049    21049584.851
  23983456.434    -8145782.57749  -6328893.29445  23983456.008    23983462.140
  22703987.194   -15712601.28049 -12231153.31846  22703987.097    22703993.795
  24532574.225    -2333519.94849  -1804438.24945  24532573.794    24532584.757
  20754297.104   -27945099.80349 -21508260.37248  20754296.599    20754301.848
  22482031.255   -12955280.60749  -9821926.25746  22482031.473    22482036.820
  20753265.776   -25640880.59649 -19969896.64947  20753265.164    20753270.113
  23679379.473    -4938135.29849  -3836084.41845  23679379.387    23679385.093
  24338364.704    -4653786.43649  -3595051.92745  24338364.791    24338370.489
  20488061.643   -26201429.24249 -20400713.13948  20488061.300    20488064.955
 03  2 28  1 26  0.0000000  0 10G23G16G 6G14G17G26G15G 3G29G18
  21057178.397   -18499187.87549 -14392824.02547  21057177.989    21057182.781
  23991751.409    -8102191.97449  -6294926.58745  23991751.007    23991757.216
  22722982.135   -15612782.26949 -12153372.29446  22722982.087    22722988.753
  24510941.262    -2447200.00749  -1893019.76045  24510940.900    24510951.842
  20755606.082   -27938221.04249 -21502900.27148  20755605.573    20755610.835
  22496274.909   -12880429.95549  -9763601.05346  22496275.093    22496280.387
  20745998.578   -25679069.70849 -19999654.35447  20745997.975    20746002.935
  23662553.394    -5026556.80749  -3904984.18045  23662553.263    23662559.082
  24354727.869    -4567796.73049  -3528046.93745  24354727.993    24354733.705
  20486078.995   -26211848.15049 -20408831.71748  20486078.653    20486082.278
 03  2 28  1 26 30.0000000  0 10G23G16G 6G14G17G26G15G 3G29G18
  21064819.760   -18459032.18749 -14361533.86147  21064819.339    21064824.137
  24000114.740    -8058242.41449  -6260680.18245  24000114.257    24000120.590
  22742022.719   -15512723.28849 -12075404.28346  22742022.656    22742029.305
  24489310.389    -2560869.04049  -1981592.66345  24489309.835    24489320.961
  20756960.396   -27931103.81149 -21497354.36548  20756959.906    20756965.154
  22510611.437   -12805091.20649  -9704895.51246  22510611.578    22510616.853
  20738770.060   -25717055.68649 -20029253.79847  20738769.449    20738774.442
  23645780.107    -5114700.87849  -3973667.79845  23645780.016    23645785.769
  24371145.375    -4481521.67549  -3460819.59945  24371145.408    24371151.329
  20484165.242   -26221904.73849 -20416667.98848  20484164.888    20484168.510
 03  2 28  1 27  0.0000000  0 10G23G16G 6G14G17G26G15G 3G29G18
  21072505.483   -18418643.17149 -14330061.87747  21072505.068    21072509.900
  24008547.078    -8013929.85749  -6226150.91045  24008546.729    24008552.970
  22761109.843   -15412419.65149 -11997245.62946  22761109.822    22761116.449
  24467683.581    -2674517.39049  -2070149.49545  24467683.076    24467693.993
  20758361.748   -27923739.78749 -21491616.14548  20758361.256    20758366.474
  22525041.514   -12729260.24249  -9645806.43446  22525041.659    22525046.982
  20731581.817   -25754830.12049 -20058688.38248  20731581.195    20731586.170
  23629061.348    -5202558.07049  -4042127.85645  23629061.401    23629067.140
  24387618.096    -4394956.84349  -3393366.49045  24387618.114    24387624.171
  20482321.546   -26231593.26349 -20424217.44648  20482321.194    20482324.801
 03  2 28  1 27 30.0000000  0 10G23G16G 6G14G17G26G15G 3G29G18
  21080234.760   -18378025.40649 -14298411.64247  21080234.358    21080239.168
  24017047.561    -7969259.15049  -6191342.58645  24017047.194    24017053.594
  22780242.574   -15311876.44349 -11918900.30646  22780242.526    22780249.243
  24446060.492    -2788145.33749  -2158690.40745  24446059.905    24446070.818
  20759809.570   -27916131.34249 -21485687.46148  20759809.043    20759814.278
  22539564.373   -12652942.30949  -9586337.90246  22539564.484    22539569.818
  20724433.456   -25792394.81449 -20087959.54148  20724432.844    20724437.796
  23612397.156    -5290128.72449  -4110364.61746  23612397.139    23612402.971
  24404145.050    -4308107.30049  -3325691.50245  24404145.132    24404151.103
  20480547.226   -26240917.07249 -20431482.72048  20480546.883    20480550.485
 03  2 28  1 28  0.0000000  0  9G23G16G 6G14G17G26G15G 3G18
  21088007.039   -18337181.70849 -14266585.36147  21088006.627    21088011.444
  24025615.599    -7924233.96249  -6156258.03645  24025615.272    24025621.514
  22799420.274   -15211097.05249 -11840370.95146  22799420.210    22799426.982
  24424441.711    -2901751.23949  -2247214.14845  24424441.192    24424452.056
  20761303.901   -27908278.42949 -21479568.28548  20761303.379    20761308.613
  22554179.130   -12576141.28849  -9526492.93146  22554179.266    22554184.528
  20717325.049   -25829749.64549 -20117067.17148  20717324.435    20717329.380
  23595787.772    -5377411.43449  -4178377.04946  23595787.747    23595793.493
  20478842.012   -26249877.91749 -20438465.16048  20478841.673    20478845.274
 03  2 28  1 28 30.0000000  0 10G23G16G29G 6G14G17G26G15G 3G18
  21095822.434   -18296111.33649 -14234582.45047  21095822.016    21095826.861
  24034251.039    -7878854.70749  -6120897.60945  24034250.694    24034256.975
                   -118252.09859   -100463.00143
  22818642.787   -15110081.66449 -11761657.69846  22818642.723    22818649.616
  24402827.990    -3015330.23549  -2335716.89845  24402827.615    24402838.266
  20762845.308   -27900178.07949 -21473256.29548  20762844.792    20762850.015
  22568885.739   -12498857.51849  -9466271.77646  22568885.846    22568891.010
  20710257.205   -25866891.31249 -20146008.69448  20710256.608    20710261.527
  23579234.211    -5464401.08349  -4246161.11146  23579234.196    23579239.965
  20477206.098   -26258474.67549 -20445163.88848  20477205.746    20477209.319
 03  2 28  1 29  0.0000000  0 10G23G16G29G 6G14G17G26G15G 3G18
  21103680.563   -18254816.47049 -14202404.61447  21103680.166    21103684.975
  24042953.320    -7833124.20249  -6085263.43545  24042953.030    24042959.109
                    -30562.48349    -32132.76643
  22837909.740   -15008833.03849 -11682762.70846  22837909.704    22837916.584
  24381219.892    -3128880.00649  -2424196.87545  24381219.564    24381230.010
  20764434.019   -27891829.04949 -21466750.53948  20764433.512    20764438.782
  22583683.555   -12421094.10949  -9405676.90646  22583683.682    22583688.842
  20703230.040   -25903819.20549 -20174783.65048  20703229.423    20703234.344
  23562736.701    -5551096.11249  -4313715.62446  23562736.648    23562742.378
  20475639.170   -26266708.68849 -20451579.96648  20475638.820    20475642.387
 03  2 28  1 29 30.0000000  0 10G23G16G29G 6G14G17G26G15G 3G18
  21111580.809   -18213300.32849 -14170054.35647  21111580.407    21111585.215
  24051721.634    -7787046.44949  -6049358.71545  24051721.300    24051727.492
                     57401.18749     36410.25344                  24470790.206
  22857220.410   -14907355.04349 -11603688.97646  22857220.356    22857227.316
  24359617.678    -3242399.33549  -2512653.10345  24359617.239    24359627.617
  20766069.876   -27883232.45949 -21460051.87748  20766069.379    20766074.649
  22598571.852   -12342855.21349  -9344711.51946  22598571.994    22598577.127
  20696243.470   -25940533.68449 -20203392.30348  20696242.869    20696247.778
  23546295.433    -5637495.28649  -4381039.54846  23546295.370    23546301.157
  20474140.835   -26274582.29449 -20457715.20948  20474140.488    20474144.077
 03  2 28  1 30  0.0000000  0 10G23G16G29G 6G14G17G26G15G 3G18
  21119523.303   -18171562.21649 -14137531.13247  21119522.879    21119527.713
  24060555.902    -7740621.73949  -6013183.63645  24060555.584    24060561.967
  24487577.034      145638.71449    105166.81245  24487574.255    24487579.639
  22876574.572   -14805647.82349 -11524436.63646  22876574.557    22876581.607
  24338022.162    -3355883.37749  -2601081.82845  24338021.798    24338032.009
  20767753.465   -27874385.01849 -21453157.74048  20767752.974    20767758.223
  22613550.601   -12264141.32849  -9283376.00046  22613550.715    22613555.864
  20689298.154   -25977031.27149 -20231831.94348  20689297.557    20689302.464
  23529911.356    -5723593.71149  -4448129.16846  23529911.282    23529917.052
  20472711.348   -26282094.11549 -20463568.55248  20472710.987    20472714.576
 03  2 28  1 30 30.0000000  0 10G23G16G29G 6G14G17G26G15G 3G18
  21127507.176   -18129606.67749 -14104838.48747  21127506.751    21127511.556
  24069455.158    -7693855.26049  -5976742.24745  24069454.923    24069461.348
  24504418.753      234145.10849    174132.84545  24504417.345    24504424.201
  22895971.523   -14703716.48349 -11445009.65146  22895971.509    22895978.489
  24316433.330    -3469332.26749  -2689483.14945  24316432.915    24316442.987
  20769484.411   -27865288.80349 -21446069.75948  20769483.896    20769489.145
  22628618.663   -12184957.89749  -9221674.62346  22628618.774    22628624.039
  20682393.858   -26013313.58549 -20260103.84048  20682393.237    20682398.157
  23513584.499    -5809391.68249  -4514984.62346  23513584.405    23513590.205
  20471350.030   -26289247.79049 -20469142.80648  20471349.670    20471353.241
 03  2 28  1 31  0.0000000  0 10G23G16G29G 6G14G17G26G15G 3G18
  21135532.420   -18087433.46549 -14071976.22847  21135532.016    21135536.804
  24078419.358    -7646747.78449  -5940035.14645  24078419.167    24078425.609
  24521311.498      322919.51149    243307.75345  24521310.829    24521316.631
  22915411.091   -14601561.39049 -11365408.31346  22915411.001    22915418.024
  24294852.027    -3582741.56849  -2777853.60245  24294851.604    24294861.531
  20771263.276   -27855940.73749 -21438785.53048  20771262.764    20771268.001
  22643775.964   -12105305.81549  -9159608.03946  22643776.080    22643781.358
  20675531.064   -26049377.60149 -20288205.63548  20675530.468    20675535.378
  23497315.600    -5894884.78749  -4581602.54746  23497315.508    23497321.299
  20470057.017   -26296042.31249 -20474437.19848  20470056.675    20470060.236
 03  2 28  1 31 30.0000000  0 10G23G16G29G 6G14G17G26G15G 3G18
  21143599.247   -18045042.01449 -14038943.91147  21143598.831    21143603.623
  24087448.550    -7599299.67449  -5903062.60745  24087448.337    24087454.698
  24538255.616      411961.78649    312691.41145  24538255.399    24538260.922
  22934893.146   -14499182.85049 -11285632.86546  22934893.024    22934900.042
  24273279.221    -3696106.05949  -2866189.14345  24273278.820    24273288.650
  20773090.657   -27846337.65249 -21431302.57848  20773090.139    20773095.375
  22659022.321   -12025185.62049  -9097176.70346  22659022.455    22659027.840
  20668710.475   -26085219.97649 -20316134.72148  20668709.870    20668714.762
  23481105.617    -5980068.44549  -4647979.36146  23481105.570    23481111.238
  20468832.627   -26302476.40049 -20479450.74248  20468832.282    20468835.847
 03  2 28  1 32  0.0000000  0 10G23G16G29G 6G14G17G26G15G 3G18
  21151706.364   -18002438.85549 -14005746.63747  21151705.949    21151710.735
  24096541.070    -7551518.39249  -5865830.48245  24096540.882    24096547.292
  24555249.507      501264.69349    382278.12645  24555249.394    24555254.807
  22954416.338   -14396588.08949 -11205688.92646  22954416.288    22954423.109
  24251714.353    -3809428.36349  -2954491.81045  24251713.989    24251723.720
  20774965.911   -27836483.10449 -21423623.69248  20774965.411    20774970.626
  22674356.314   -11944605.03949  -9034386.63746  22674356.470    22674361.868
  20661931.310   -26120844.52249 -20343894.07848  20661930.703    20661935.593
  23464954.077    -6064944.94849  -4714116.77346  23464953.962    23464959.756
  20467675.721   -26308555.82249 -20484187.93148  20467675.393    20467678.926
 03  2 28  1 32 30.0000000  0 10G23G16G29G 6G14G17G26G15G 3G18
  21159853.592   -17959624.65749 -13972384.91447  21159853.208    21159857.956
  24105696.801    -7503405.32149  -5828339.80245  24105696.504    24105702.820
  24572292.650      590826.70049    452066.77045  24572292.536    24572297.993
  22973980.459   -14293778.31949 -11125577.45646  22973980.325    22973987.205
  24230158.242    -3922704.70949  -3042758.66145  24230157.892    24230167.432
  20776889.297   -27826375.59249 -21415747.68648  20776888.789    20776893.973
  22689777.570   -11863565.69649  -8971239.10546  22689777.714    22689783.172
  20655194.011   -26156249.08949 -20371482.02148  20655193.397    20655198.306
  23448861.581    -6149510.74649  -4780012.14746  23448861.512    23448867.295
  20466586.375   -26314280.33849 -20488648.56348  20466586.027    20466589.550
 03  2 28  1 33  0.0000000  0 10G23G16G29G 6G14G17G26G15G 3G18
  21168040.757   -17916600.94849 -13938859.92947  21168040.351    21168045.089
  24114914.956    -7454963.11649  -5790592.65945  24114914.691    24114921.079
  24589384.572      680645.61549    522055.54945  24589384.474    24589390.138
  22993584.900   -14190755.87649 -11045300.27346  22993584.813    22993591.716
  24208611.463    -4035932.25749  -3130987.49445  24208611.078    24208620.571
  20778861.037   -27816013.93249 -21407673.64148  20778860.524    20778865.702
  22705285.659   -11782070.18049  -8907736.09746  22705285.808    22705291.205
  20648498.845   -26191432.16149 -20398897.36248  20648498.252    20648503.171
  23432828.739    -6233763.18149  -4845663.30946  23432828.690    23432834.491
  20465564.328   -26319650.93149 -20492833.41548  20465563.995    20465567.521
 03  2 28  1 33 30.0000000  0 10G23G16G29G 6G14G17G26G15G 3G18
  21176268.016   -17873366.31149 -13905170.59547  21176267.605    21176272.353
  24124195.962    -7406191.28349  -5752588.65545  24124195.717    24124202.219
  24606525.308      770721.90949    592244.88545  24606525.317    24606531.149
  23013229.970   -14087520.03749 -10964856.80346  23013229.993    23013236.910
  24187075.147    -4149105.10749  -3219173.71445  24187074.677    24187084.148
  20780881.897   -27805394.15249 -21399398.47448  20780881.395    20780886.535
  22720880.532   -11700118.24649  -8843877.44446  22720880.702    22720886.044
  20641846.685   -26226389.40949 -20426136.74248  20641846.077    20641851.033
  23416856.793    -6317696.48749  -4911065.81446  23416856.657    23416862.464
  20464610.085   -26324665.46149 -20496740.81648  20464609.765    20464613.269
 03  2 28  1 34  0.0000000  0 10G23G16G29G 6G14G17G26G15G 3G18
  21184534.719   -17829924.40849 -13871319.74847  21184534.302    21184539.069
  24133538.861    -7357094.45649  -5714331.42345  24133538.519    24133544.991
  24623714.253      861051.25749    662631.38945  24623714.297    24623720.267
  23032914.817   -13984075.18649 -10884250.46446  23032914.825    23032921.819
  24165549.261    -4262222.87449  -3307317.03445  24165548.849    24165558.124
  20782951.727   -27794517.08849 -21390922.81748  20782951.222    20782956.351
  22736561.354   -11617714.75149  -8779666.90746  22736561.526    22736566.718
  20635237.345   -26261121.76449 -20453200.88048  20635236.703    20635241.649
  23400945.578    -6401310.47049  -4976219.49746  23400945.383    23400951.160
  20463722.961   -26329327.07549 -20500373.21748  20463722.640    20463726.135
 03  2 28  1 34 30.0000000  0 10G23G16G29G 6G14G17G26G15G 3G18
  21192839.649   -17786281.41149 -13837312.20747  21192839.263    21192844.041
  24142942.191    -7307679.78249  -5675826.51845  24142941.819    24142948.387
  24640950.084      951626.37649    733209.44645  24640950.156    24640955.841
  23052638.319   -13880428.27749 -10803486.68746  23052638.280    23052645.256
  24144033.489    -4375287.45349  -3395418.91545  24144033.024    24144042.289
  20785069.805   -27783386.36549 -21382249.50748  20785069.306    20785074.446
  22752326.802   -11534867.13949  -8715110.28746  22752326.902    22752332.003
  20628670.104   -26295632.67549 -20480092.46348  20628669.469    20628674.383
  23385094.611    -6484607.10449  -5041125.87146  23385094.407    23385100.260
  20462902.036   -26333640.95649 -20503734.65548  20462901.718    20462905.203
 03  2 28  1 35  0.0000000  0 10G23G16G29G 6G14G17G26G15G 3G18
  21201184.267   -17742430.34449 -13803142.53147  21201183.866    21201188.617
  24152407.046    -7257941.21949  -5637069.22945  24152406.807    24152413.293
  24658233.772     1042453.60749    803983.98545  24658233.790    24658239.440
  23072401.394   -13776573.19649 -10722560.69046  23072401.309    23072408.302
  24122530.036    -4488287.50849  -3483470.54545  24122529.590    24122538.819
  20787237.971   -27771992.29249 -21373370.99147  20787237.485    20787242.619
  22768177.753   -11451569.53549  -8650203.05346  22768177.859    22768183.019
  20622146.835   -26329912.39349 -20506803.89648  20622146.225    20622151.105
  23369306.198    -6567575.22749  -5105776.30446  23369306.096    23369311.838
  20462148.719   -26337599.56649 -20506819.25248  20462148.399    20462151.878
 03  2 28  1 35 30.0000000  0 10G23G16G29G 6G14G17G26G15G 3G18
  21209566.815   -17698379.49849 -13768817.18547  21209566.413    21209571.146
  24161931.937    -7207888.03849  -5598066.76745  24161931.563    24161938.096
  24675563.717     1133523.71449    874947.82145  24675563.723    24675569.241
  23092202.293   -13672519.00649 -10641479.55846  23092202.201    23092209.215
  24101038.035    -4601226.94749  -3571474.94545  24101037.660    24101046.640
  20789455.161   -27760340.79249 -21364291.88047  20789454.690    20789459.813
  22784112.497   -11367831.47249  -8584952.60446  22784112.547    22784117.862
  20615666.556   -26363966.46549 -20533339.50448  20615665.942    20615670.789
  23353579.506    -6650219.05549  -5170174.04946  23353579.473    23353585.115
  20461461.526   -26341210.65249 -20509633.06448  20461461.205    20461464.671
 03  2 28  1 36  0.0000000  0 10G23G16G29G 6G14G17G26G15G 3G18
  21217987.717   -17654127.40149 -13734335.01447  21217987.313    21217992.034
  24171516.639    -7157519.73749  -5558818.79345  24171516.288    24171523.088
  24692940.250     1224837.51049    946101.49445  24692940.313    24692945.712
  23112041.281   -13568264.87449 -10560242.62846  23112041.197    23112048.166
  24079558.703    -4714099.80649  -3659427.47945  24079558.359    24079567.280
  20791722.147   -27748427.82949 -21355009.02948  20791721.671    20791726.767
  22800131.171   -11283652.48049  -8519358.57446  22800131.248    22800136.677
  20609230.041   -26397790.42549 -20559695.80248  20609229.427    20609234.267
  23337915.751    -6732533.00649  -5234314.72646  23337915.618    23337921.143
  20460840.907   -26344472.06149 -20512174.38948  20460840.575    20460844.027
 03  2 28  1 36 30.0000000  0 10G23G16G29G 6G14G17G26G15G 3G18
  21226446.483   -17609676.23949 -13699697.73947  21226446.077    21226450.810
  24181160.868    -7106839.44049  -5519327.69645  24181160.521    24181167.179
  24710362.544     1316392.13849   1017442.82145  24710362.572    24710367.943
  23131917.779   -13463813.61749 -10478852.09646  23131917.667    23131924.672
  24058092.439    -4826904.13249  -3747326.60945  24058092.000    24058100.854
  20794038.922   -27736253.01349 -21345522.15148  20794038.437    20794043.524
  22816233.211   -11199035.88449  -8453423.55646  22816233.300    22816238.697
  20602837.469   -26431383.42549 -20585872.13948  20602836.883    20602841.701
  23322315.083    -6814515.07249  -5298196.78346  23322314.967    23322320.453
  20460286.602   -26347384.87349 -20514444.08848  20460286.259    20460289.725
 03  2 28  1 37  0.0000000  0 10G23G16G29G 6G14G17G26G15G 3G18
  21234942.313   -17565030.20349 -13664908.60347  21234941.906    21234946.643
  24190863.486    -7055852.49749  -5479597.64145  24190863.094    24190869.715
  24727829.656     1408182.22849   1088967.62545  24727829.640    24727835.001
  23151830.653   -13359170.28349 -10397311.88946  23151830.581    23151837.702
  24036639.319    -4939639.66549  -3835172.13345  24036638.891    24036647.616
  20796405.220   -27723817.96549 -21335832.48648  20796404.739    20796409.802
  22832417.411   -11113987.36249  -8387151.94846  22832417.526    22832422.846
  20596488.575   -26464746.99349 -20611869.68648  20596487.978    20596492.795
  23306777.591    -6896165.14049  -5361820.15446  23306777.424    23306782.852
  20459797.907   -26349952.85149 -20516445.08748  20459797.567    20459801.019
 03  2 28  1 37 30.0000000  0 10G23G16G29G 6G14G17G26G15G 3G18
  21243475.617   -17520187.50049 -13629966.21847  21243475.208    21243479.915
  24200624.089    -7004558.40549  -5439628.27145  24200623.917    24200630.705
  24745341.588     1500208.87149   1160676.71645  24745341.726    24745347.225
  23171780.396   -13254333.92049 -10315621.27446  23171780.340    23171787.460
  24015200.390    -5052300.46949  -3922959.41745  24015199.864    24015208.610
  20798821.950   -27711118.12349 -21325936.48448  20798821.456    20798826.490
  22848683.908   -11028506.28249  -8320543.28546  22848683.996    22848689.363
  20590184.168   -26497876.56549 -20637684.90548  20590183.583    20590188.380
  23291304.329    -6977477.66249  -5425180.48646  23291304.116    23291309.582
  20459375.233   -26352173.87649 -20518175.73748  20459374.880    20459378.325
 03  2 28  1 38  0.0000000  0 10G23G16G29G 6G14G17G26G15G 3G18
  21252044.947   -17475155.18049 -13594876.08747  21252044.546    21252049.252
  24210441.934    -6952965.06149  -5399425.71845  24210441.900    24210448.672
  24762897.100     1592464.19449   1232563.99245  24762897.184    24762902.797
  23191765.249   -13149312.41849 -10233786.38646  23191765.265    23191772.356
  23993775.229    -5164889.10549  -4010690.48145  23993774.766    23993783.267
  20801288.134   -27698158.02549 -21315837.69147  20801287.638    20801292.683
  22865031.004   -10942600.90049  -8253604.01446  22865031.119    22865036.608
  20583923.601   -26530776.13649 -20663320.90348  20583922.977    20583927.768
  23275894.700    -7058455.67149  -5488280.16246  23275894.503    23275899.923
  20459017.403   -26354054.19849 -20519640.90248  20459017.047    20459020.515
 03  2 28  1 38 30.0000000  0 10G23G16G29G 6G14G17G26G15G 3G18
  21260651.717   -17429926.22049 -13559632.73147  21260651.307    21260656.039
  24220317.937    -6901066.53249  -5358985.36245  24220317.903    24220324.724
  24780497.149     1684954.40949   1304634.26145  24780497.289    24780503.162
  23211786.599   -13044099.50349 -10151802.35746  23211786.595    23211793.763
  23972365.951    -5277394.21849  -4098356.43845  23972365.537    23972373.981
  20803805.693   -27684927.98049 -21305528.55247  20803805.205    20803810.292
  22881460.007   -10856265.36549  -8186329.57146  22881460.105    22881465.704
  20577708.595   -26563435.89549 -20688770.03948  20577707.989    20577712.758
  23260550.842    -7139087.87649  -5551110.40846  23260550.637    23260556.066
  20458725.895   -26355586.02349 -20520834.50248  20458725.559    20458729.033
 03  2 28  1 39  0.0000000  0 10G23G16G29G 6G14G17G26G15G 3G18
  21269294.201   -17384509.65849 -13524243.19147  21269293.794    21269298.505
  24230249.886    -6848872.71049  -5318314.91545  24230249.937    24230256.860
  24798140.298     1777669.54049   1376879.87545  24798140.504    24798146.160
  23231842.519   -12938705.00349 -10069676.83146  23231842.540    23231849.720
  23950971.661    -5389820.71949  -4185961.14745  23950971.189    23950979.549
  20806373.371   -27671434.48949 -21295014.13347  20806372.888    20806378.000
  22897968.847   -10769510.21649  -8118728.15646  22897968.986    22897974.696
  20571538.090   -26595862.05749 -20714037.15148  20571537.491    20571542.249
  23245271.760    -7219379.16249  -5613674.97246  23245271.563    23245277.085
  20458499.104   -26356777.88249 -20521763.19748  20458498.746    20458502.216
 03  2 28  1 39 30.0000000  0 10G23G16G29G 6G14G17G26G15G 3G18
  21277972.728   -17338903.66749 -13488706.04347  21277972.306    21277977.045
  24240238.408    -6796383.18949  -5277414.06845  24240238.421    24240245.218
  24815826.519     1870610.50149   1449301.49745  24815826.681    24815832.114
  23251933.211   -12833128.00149  -9987409.07246  23251933.211    23251940.352
  23929593.481    -5502162.57849  -4273499.90245  23929592.898    23929601.232
  20808992.036   -27657673.17049 -21284291.01047  20808991.555    20808996.717
  22914557.881   -10682334.79549  -8050799.23946  22914558.001    22914563.648
  20565412.894   -26628049.92549 -20739118.57448  20565412.301    20565417.053
  23230058.748    -7299323.96649  -5675969.57246  23230058.535    23230064.010
  20458337.454   -26357627.24349 -20522425.00948  20458337.098    20458340.556
 03  2 28  1 40  0.0000000  0 10G23G16G29G 6G14G17G26G15G 3G18
  21286687.209   -17293108.62049 -13453021.57547  21286686.823    21286691.539
  24250283.134    -6743599.39149  -5236283.87545  24250283.009    24250289.641
  24833555.360     1963776.17049   1521898.18045  24833555.348    24833560.885
  23272058.428   -12727369.77549  -9905000.11446  23272058.409    23272065.512
  23908232.190    -5614415.77749  -4360969.58345  23908231.566    23908239.900
  20811662.063   -27643642.13849 -21273357.72447  20811661.577    20811666.698
  22931226.527   -10594740.74949  -7982544.10646  22931226.662    22931232.177
  20559333.515   -26659997.26749 -20764012.57448  20559332.890    20559337.653
  23214912.376    -7378918.42249  -5737991.14946  23214912.171    23214917.634
  20458240.952   -26358134.02349 -20522819.87348  20458240.615    20458244.081
 03  2 28  1 40 30.0000000  0 10G23G16G29G 6G14G17G26G15G 3G18
  21295436.539   -17247130.55649 -13417194.50347  21295436.126    21295440.837
  24260382.159    -6690528.58449  -5194930.06545  24260382.157    24260388.881
  24851325.615     2057159.50349   1594664.50245  24851325.606    24851330.983
  23292216.714   -12621437.06949  -9822455.18246  23292216.724    23292223.781
  23886887.356    -5726582.03049  -4448371.52345  23886886.773    23886895.007
  20814382.821   -27629344.58449 -21262216.76047  20814382.333    20814387.417
  22947973.369   -10506735.56749  -7913968.62446  22947973.519    22947978.990
  20553299.274   -26691707.20749 -20788721.59448  20553298.667    20553303.436
  23199832.264    -7458164.65849  -5799741.40446  23199832.110    23199837.568
  20458208.654   -26358303.66249 -20522952.03648  20458208.317    20458211.771
 03  2 28  1 41  0.0000000  0 10G23G16G29G 6G14G17G26G15G 3G18
  21304220.671   -17200969.54649 -13381224.87347  21304220.255    21304224.977
  24270535.769    -6637171.78849  -5153353.39245  24270535.637    24270542.253
  24869137.073     2150759.59849   1667599.75445  24869137.124    24869142.583
  23312408.098   -12515330.78449  -9739775.00846  23312408.176    23312415.199
  23865559.909    -5838657.05549  -4535702.38145  23865559.317    23865567.534
  20817154.716   -27614777.98049 -21250866.14947  20817154.234    20817159.313
  22964798.124   -10418320.62749  -7845073.86746  22964798.231    22964803.724
  20547310.687   -26723177.20549 -20813243.64348  20547310.073    20547314.866
  23184819.091    -7537058.74649  -5861217.23146  23184818.964    23184824.435
  20458240.579   -26358135.93549 -20522821.31748  20458240.255    20458243.657
 03  2 28  1 41 30.0000000  0 10G23G16G29G 6G14G17G26G15G 3G18
  21313039.646   -17154625.48349 -13345112.60047  21313039.230    21313043.956
  24280743.559    -6583530.19049  -5111554.79145  24280743.461    24280750.080
  24886989.499     2244575.65549   1740703.23345  24886989.606    24886995.243
  23332632.402   -12409051.83949  -9656960.28646  23332632.494    23332639.460
  23844250.598    -5950636.66149  -4622958.89845  23844250.120    23844258.174
  20819978.281   -27599939.97249 -21239304.04747  20819977.799    20819982.862
  22981700.751   -10329497.08249  -7775860.69346  22981700.830    22981706.247
  20541368.312   -26754404.37549 -20837576.47148  20541367.707    20541372.511
  23169873.768    -7615596.52749  -5922415.43246  23169873.660    23169879.089
  20458336.846   -26357629.98349 -20522427.03648  20458336.498    20458339.912
 03  2 28  1 42  0.0000000  0  9G23G16G 6G14G17G26G15G 3G18
  21321893.170   -17108099.81849 -13308858.82347  21321892.761    21321897.489
  24291004.839    -6529606.49449  -5069536.39045  24291004.757    24291011.499
  23352889.107   -12302602.52349  -9574012.81246  23352889.111    23352896.172
  23822959.962    -6062518.05249  -4710138.89945  23822959.569    23822967.547
  20822853.704   -27584829.35349 -21227529.52447  20822853.239    20822858.305
  22998680.536   -10240267.82849  -7706331.38946  22998680.615    22998686.038
  20535472.474   -26785387.13149 -20861718.85348  20535471.879    20535476.678
  23154996.832    -7693775.37749  -5983333.94746  23154996.660    23155002.062
  20458497.219   -26356786.87049 -20521770.04048  20458496.887    20458500.304
 03  2 28  1 42 30.0000000  0  9G23G16G 6G14G17G26G15G 3G18
  21330780.426   -17061396.92649 -13272466.94547  21330780.018    21330784.752
  24301318.899    -6475406.11749  -5027302.38645  24301318.727    24301325.484
  23373177.251   -12195987.82349  -9490936.50645  23373177.246    23373184.325
  23801688.026    -6174301.12549  -4797242.29245  23801687.745    23801695.564
  20825780.591   -27569448.19949 -21215544.20047  20825780.103    20825785.204
  23015736.386   -10150638.48649  -7636490.33246  23015736.487    23015741.900
  20529622.855   -26816126.95449 -20885671.93348  20529622.248    20529627.048
  23140188.088    -7771595.43849  -6043972.88646  23140187.921    23140193.339
  20458721.106   -26355610.25749 -20520853.17248  20458720.772    20458724.195
 03  2 28  1 43  0.0000000  0  9G23G16G 6G14G17G26G15G 3G18
  21339701.491   -17014516.31049 -13235936.58047  21339701.092    21339705.801
  24311685.479    -6420929.48549  -4984853.10645  24311685.341    24311692.064
  23393496.851   -12089208.13149  -9407731.60545  23393496.819    23393503.919
  23780435.670    -6285981.18549  -4884265.42045  23780435.468    23780443.145
  20828759.656   -27553793.01949 -21203345.34247  20828759.180    20828764.328
  23032868.288   -10060609.87649  -7566338.13046  23032868.407    23032873.723
  20523820.108   -26846620.51549 -20909433.12148  20523819.496    20523824.299
  23125448.457    -7849052.68549  -6104329.10946  23125448.236    23125453.662
  20459008.662   -26354098.91049 -20519675.47248  20459008.343    20459011.762
 03  2 28  1 43 30.0000000  0  9G23G16G 6G14G17G26G15G 3G18
  21348656.137   -16967459.22449 -13199268.70647  21348655.733    21348660.456
  24322104.056    -6366179.48649  -4942190.81645  24322103.918    24322110.642
  23413847.357   -11982265.64649  -9324399.87245  23413847.300    23413854.444
  23759203.512    -6397555.18149  -4971205.91745  23759203.296    23759210.931
  20831791.095   -27537862.61049 -21190932.02247  20831790.621    20831795.775
  23050075.493    -9970184.79749  -7495877.01246  23050075.625    23050081.032
  20518064.509   -26876866.22949 -20933001.17948  20518063.900    20518068.708
  23110778.356    -7926144.09749  -6164400.28446  23110778.191    23110783.530
  20459359.765   -26352253.89549 -20518237.77248  20459359.430    20459362.851
 03  2 28  1 44  0.0000000  0  9G23G16G 6G14G17G26G15G 3G18
  21357643.711   -16920229.13249 -13162466.02447  21357643.301    21357648.020
  24332573.869    -6311160.59449  -4899318.99245  24332573.730    24332580.387
  23434227.993   -11875164.76949  -9240944.73045  23434227.911    23434235.141
  23737991.812    -6509022.36349  -5058063.18845  23737991.480    23737999.148
  20834874.660   -27521658.38649 -21178305.34147  20834874.177    20834879.336
  23067357.310    -9879368.02849  -7425110.67746  23067357.461    23067362.798
  20512355.957   -26906864.60649 -20956376.50948  20512355.362    20512360.175
  23096177.968    -8002869.17949  -6224185.99046  23096177.779    23096183.166
  20459773.759   -26350078.02849 -20516542.26548  20459773.434    20459776.846
 03  2 28  1 44 30.0000000  0  9G23G16G 6G14G17G26G15G 3G18
  21366664.142   -16872826.38149 -13125528.80247  21366663.737    21366668.442
  24343094.427    -6255874.24449  -4856238.77245  24343094.346    24343100.980
  23454638.556   -11767906.64849  -9157367.04245  23454638.522    23454645.732
  23716801.223    -6620378.73849  -5144834.12245  23716800.971    23716808.468
  20838010.775   -27505177.98049 -21165463.45347  20838010.306    20838015.457
  23084713.337    -9788161.23749  -7354040.41846  23084713.545    23084718.876
  20506694.960   -26936613.19249 -20979557.19948  20506694.381    20506699.179
  23081647.970    -8079224.33349  -6283683.46146  23081647.838    23081653.225
  20460250.782   -26347571.15749 -20514588.83748  20460250.473    20460253.860
 03  2 28  1 45  0.0000000  0  9G23G16G 6G14G17G26G15G 3G18
  21375717.270   -16825251.77849 -13088457.66547  21375716.879    21375721.581
  24353665.589    -6200322.65449  -4812951.90545  24353665.458    24353672.121
  23475078.740   -11660493.09149  -9073668.24145  23475078.721    23475085.922
  23695632.456    -6731620.91049  -5231516.09145  23695632.085    23695639.439
  20841199.797   -27488419.80249 -21152405.11847  20841199.328    20841204.434
  23102143.133    -9696566.65749  -7282668.00446  23102143.359    23102148.723
  20501081.852   -26966110.28149 -21002541.91348  20501081.247    20501086.052
  23067188.985    -8155206.62749  -6342890.38746  23067188.868    23067194.240
  20460790.761   -26344733.59449 -20512377.72448  20460790.440    20460793.793
 03  2 28  1 45 30.0000000  0  9G23G16G 6G14G17G26G15G 3G18
  21384802.402   -16777508.95649 -13051255.45247  21384802.019    21384806.709
  24364286.426    -6144510.73149  -4769462.14545  24364286.315    24364292.860
  23495547.688   -11552928.60449  -8989851.82045  23495547.621    23495554.821
  23674485.615    -6842748.10649  -5318108.44845  23674485.155    23674492.368
  20844441.483   -27471384.57149 -21139130.89147  20844441.004    20844446.084
  23119645.810    -9604589.45749  -7210997.43846  23119646.012    23119651.398
  20495516.457   -26995356.50249 -21025331.15248  20495515.880    20495520.671
  23052801.102    -8230815.46149  -6401806.32246  23052800.988    23052806.238
  20461393.055   -26341568.44649 -20509911.35448  20461392.752    20461396.084
 03  2 28  1 46  0.0000000  0  9G23G16G 6G14G17G26G15G 3G18
  21393919.683   -16729597.32049 -13013921.69647  21393919.278    21393923.980
  24374956.566    -6088439.26149  -4725770.14945  24374956.299    24374962.925
  23516045.213   -11445213.51449  -8905918.06945  23516045.190    23516052.406
  23653361.415    -6953755.56649  -5404607.52645  23653360.910    23653368.116
  20847736.351   -27454069.73049 -21125638.79047  20847735.873    20847740.956
  23137221.176    -9512230.32449  -7139029.26746  23137221.396    23137226.716
  20489999.453   -27024348.46149 -21047922.25948  20489998.859    20490003.644
  23038485.093    -8306046.55649  -6460427.88746  23038484.909    23038490.155
  20462057.902   -26338074.66149 -20507188.89648  20462057.582    20462060.909
 03  2 28  1 46 30.0000000  0  9G23G16G 6G14G17G26G15G 3G18
  21403067.821   -16681523.41249 -12976461.49847  21403067.405    21403072.129
  24385674.599    -6032116.06149  -4681881.98845  24385674.269    24385680.994
  23536570.020   -11337355.27349  -8821872.74145  23536570.032    23536577.119
  23632259.554    -7064645.71149  -5491015.16945  23632259.098    23632266.120
  20851083.673   -27436479.22949 -21111931.89147  20851083.186    20851088.304
  23154867.672    -9419497.41949  -7066769.82646  23154867.849    23154873.153
  20484530.086   -27053090.02349 -21070318.25048  20484529.485    20484534.270
  23024240.424    -8380902.65649  -6518757.28246  23024240.280    23024245.491
  20462784.046   -26334258.59649 -20504215.31048  20462783.710    20462787.073
 03  2 28  1 47  0.0000000  0  9G23G16G 6G14G17G26G15G 3G18
  21412247.790   -16633282.43549 -12938871.10647  21412247.370    21412252.072
  24396441.208    -5975537.26449  -4637794.68545  24396440.915    24396447.648
  23557122.796   -11229349.98849  -8737712.84845  23557122.833    23557129.878
  23611181.727    -7175409.49349  -5577324.34745  23611181.350    23611188.238
  20854484.865   -27418605.76049 -21098004.49147  20854484.371    20854489.470
  23172585.887    -9326387.36149  -6994216.52146  23172586.112    23172591.402
  20479109.832   -27081573.50049 -21092513.13048  20479109.228    20479114.005
  23010068.707    -8455375.10249  -6576787.69546  23010068.571    23010073.797
  20463572.491   -26330115.04149 -20500986.54048  20463572.164    20463575.521
 03  2 28  1 47 30.0000000  0  9G23G16G 6G14G17G26G15G 3G18
  21421458.689   -16584878.56849 -12901153.80647  21421458.273    21421462.998
  24407255.427    -5918708.58449  -4593512.64445  24407255.178    24407261.815
  23577702.525   -11121202.92149  -8653442.48545  23577702.586    23577709.633
  23590127.914    -7286046.89049  -5663535.04545  23590127.545    23590134.316
  20857939.610   -27400450.90149 -21083857.83347  20857939.119    20857944.204
  23190374.784    -9232905.86249  -6921373.79646  23190374.988    23190380.294
  20473738.373   -27109800.48649 -21114508.15748  20473737.776    20473742.565
  22995969.978    -8529464.22549  -6634519.41146  22995969.852    22995975.115
  20464422.600   -26325647.69149 -20497505.47148  20464422.265    20464425.631
 03  2 28  1 48  0.0000000  0  9G23G16G 6G14G17G26G15G 3G18
  21430700.318   -16536313.55349 -12863310.92747  21430699.925    21430704.613
  24418116.560    -5861633.08049  -4549038.27045  24418116.310    24418123.003
  23598308.803   -11012916.61149  -8569063.63245  23598308.821    23598316.052
  23569098.533    -7396555.47649  -5749645.37045  23569098.273    23569105.008
  20861447.958   -27382014.07349 -21069491.45447  20861447.500    20861452.579
  23208233.836    -9139056.05949  -6848244.05446  23208234.064    23208239.327
  20468415.990   -27137769.75849 -21136302.36248  20468415.401    20468420.176
  22981944.596    -8603167.80449  -6691950.72746  22981944.461    22981949.784
  20465334.081   -26320857.66849 -20493772.95948  20465333.754    20465337.102
 03  2 28  1 48 30.0000000  0  9G23G16G 6G14G17G26G15G 3G18
  21439972.749   -16487586.48749 -12825341.77447  21439972.356    21439977.021
  24429024.562    -5804311.21749  -4504371.93745  24429024.318    24429031.048
  23618941.462   -10904491.19149  -8484576.38345  23618941.557    23618948.872
  23548094.661    -7506930.04649  -5835651.26645  23548094.474    23548101.252
  20865010.581   -27363292.43649 -21054903.15347  20865010.094    20865015.162
  23226162.767    -9044838.55649  -6774827.78345  23226162.992    23226168.223
  20463143.319   -27165477.77749 -21157892.99448  20463142.711    20463147.490
  22967993.494    -8676481.04649  -6749077.87646  22967993.369    22967998.680
  20466307.222   -26315743.71149 -20489788.03248  20466306.891    20466310.241
 03  2 28  1 49  0.0000000  0 10G23G16G 6G14G17G26G15G 3G 9G18
  21449274.808   -16438703.75549 -12787251.32147  21449274.396    21449279.100
  24439978.024    -5746750.66649  -4459519.62845  24439977.725    24439984.682
  23639599.193   -10795933.92449  -8399986.40245  23639599.366    23639606.714
  23527115.749    -7617172.73649  -5921554.39345  23527115.647    23527122.517
  20868626.743   -27344289.27749 -21040095.48347  20868626.261    20868631.300
  23244160.111    -8950261.31149  -6701131.22145  23244160.313    23244165.675
  20457919.660   -27192928.15349 -21179282.86448  20457919.067    20457923.836
  22954116.163    -8749406.59449  -6805902.92746  22954116.026    22954121.318
  24466321.226    -2612614.04859  -2017561.43645  24466321.188    24466328.767
  20467340.852   -26310311.66649 -20485555.24348  20467340.535    20467343.881
 03  2 28  1 49 30.0000000  0 10G23G16G 6G14G17G26G15G 3G 9G18
  21458607.172   -16389661.72549 -12749036.74347  21458606.776    21458611.492
  24450977.335    -5688948.96749  -4414479.38645  24450977.190    24450983.918
  23660282.620   -10687242.15949  -8315291.61445  23660282.717    23660290.184
  23506163.516    -7727275.75449  -6007348.68545  23506163.462    23506170.370
  20872297.647   -27324998.56549 -21025063.74247  20872297.159    20872302.173
  23262226.548    -8855322.04149  -6627152.55345  23262226.765    23262231.968
  20452746.249   -27220114.20849 -21200466.77148  20452745.669    20452750.420
  22940314.021    -8821936.80349  -6862419.91546  22940313.931    22940319.224
  24453030.657    -2682456.34249  -2071983.91145  24453030.639    24453038.146
  20468435.778   -26304557.75249 -20481071.64748  20468435.467    20468438.805
 03  2 28  1 50  0.0000000  0 10G23G16G 6G14G17G26G15G 3G 9G18
  21467968.891   -16340465.80849 -12710702.24847  21467968.475    21467973.179
  24462021.214    -5630913.03649  -4369256.62245  24462021.066    24462027.846
  23680990.440   -10578422.37649  -8230497.07145  23680990.551    23680998.088
  23485237.835    -7837240.22449  -6093035.02845  23485237.669    23485244.565
  20876022.587   -27305423.71749 -21009810.58947  20876022.091    20876027.151
  23280360.534    -8760027.80449  -6552897.28946  23280360.731    23280365.860
  20447622.677   -27247038.68649 -21221446.84948  20447622.076    20447626.827
  22926586.849    -8894073.40549  -6918630.17946  22926586.704    22926592.009
  24439775.118    -2752114.48449  -2126262.88945  24439775.056    24439782.481
  20469591.026   -26298486.78849 -20476340.99348  20469590.707    20469594.036
 03  2 28  1 50 30.0000000  0 10G23G16G 6G14G17G26G15G 3G 9G18
  21477359.838   -16291115.93749 -12672247.79547  21477359.424    21477364.091
  24473109.379    -5572644.33849  -4323852.49245  24473109.248    24473116.054
  23701722.376   -10469475.35649  -8145603.40545  23701722.449    23701730.052
  23464339.373    -7947062.18649  -6178610.33545  23464339.057    23464345.915
  20879802.166   -27285562.08649 -20994333.98547  20879801.664    20879806.746
  23298561.735    -8664380.00649  -6478366.51245  23298561.971    23298567.010
  20442549.426   -27273698.70049 -21242220.85848  20442548.828    20442553.570
  22912935.250    -8965812.72249  -6974530.89546  22912935.134    22912940.405
  24426555.567    -2821583.72449  -2180394.70545  24426555.487    24426562.610
  20470806.641   -26292098.49149 -20471363.08148  20470806.326    20470809.649
 03  2 28  1 51  0.0000000  0 10G23G16G 6G14G17G26G15G 3G 9G18
  21486779.238   -16241616.62249 -12633676.88347  21486778.833    21486783.480
  24484240.761    -5514148.55149  -4278271.41345  24484240.623    24484247.442
  23722477.583   -10360406.61149  -8060614.86645  23722477.640    23722485.284
  23443467.912    -8056741.85549  -6264074.77245  23443467.485    23443474.265
  20883635.945   -27265415.40349 -20978635.25547  20883635.450    20883640.536
  23316828.979    -8568384.60649  -6403564.88645  23316829.195    23316834.249
  20437526.217   -27300095.77349 -21262789.97848  20437525.615    20437530.364
  22899359.152    -9037155.45549  -7030122.57746  22899359.023    22899364.309
  24413372.034    -2890863.62549  -2234378.98445  24413371.944    24413378.639
  20472081.850   -26285397.05149 -20466141.15548  20472081.523    20472084.835
 03  2 28  1 51 30.0000000  0 10G23G16G 6G14G17G26G15G 3G 9G18
  21496227.805   -16191963.96649 -12594986.49147  21496227.421    21496232.055
  24495415.816    -5455423.22549  -4232511.47845  24495415.706    24495422.489
  23743256.475   -10251213.42449  -7975529.36445  23743256.535    23743264.119
  23422625.068    -8166271.02849  -6349421.96345  23422624.655    23422631.256
  20887525.078   -27244977.61649 -20962709.69347  20887524.588    20887529.682
  23335162.930    -8472039.29549  -6328490.60445  23335163.063    23335168.119
  20432554.240   -27326223.49349 -21283149.21148  20432553.648    20432558.387
  22885860.027    -9108093.95049  -7085399.26046  22885859.859    22885865.154
  24400225.990    -2959945.58749  -2288208.97445  24400225.915    24400232.651
  20473417.506   -26278378.09549 -20460671.81848  20473417.188    20473420.468
 03  2 28  1 52  0.0000000  0 10G23G16G 6G14G17G26G15G 3G 9G18
  21505704.836   -16142161.89449 -12556179.66747  21505704.440    21505709.061
  24506633.546    -5396473.61449  -4186576.75945  24506633.471    24506640.315
  23764058.178   -10141900.40449  -7890350.48345  23764058.145    23764065.811
  23401810.823    -8275649.47049  -6434651.71945  23401810.484    23401816.937
  20891469.250   -27224250.75349 -20946558.87247  20891468.777    20891473.853
  23353562.293    -8375349.63649  -6253147.99445  23353562.375    23353567.418
  20427633.354   -27352082.92049 -21303299.38548  20427632.744    20427637.506
  22872437.690    -9178628.31949  -7140361.05046  22872437.521    22872442.810
  24387117.803    -3028828.79149  -2341884.08445  24387117.680    24387124.515
  20474812.838   -26271045.42349 -20454958.02348  20474812.522    20474815.821
 03  2 28  1 52 30.0000000  0 10G23G16G 6G14G17G26G15G 3G 9G18
  21515209.925   -16092212.20249 -12517257.81347  21515209.520    21515214.161
  24517893.406    -5337302.94349  -4140469.81545  24517893.395    24517900.253
  23784882.058   -10032470.48249  -7805080.51645  23784881.998    23784889.687
  23381025.755    -8384874.90849  -6519762.25745  23381025.423    23381031.793
  20895468.642   -27203233.90249 -20930182.08947  20895468.158    20895473.205
  23372026.623    -8278318.88549  -6177539.57545  23372026.772    23372031.741
  20422763.673   -27377673.00649 -21323239.68548  20422763.065    20422767.827
  22859092.636    -9248756.71749  -7195006.52046  22859092.509    22859097.706
  24374047.994    -3097510.22449  -2395401.93345  24374047.968    24374054.807
  20476267.613   -26263400.41549 -20449000.85148  20476267.295    20476270.598
 03  2 28  1 53  0.0000000  0 10G23G16G 6G14G17G26G15G 3G 9G18
  21524742.841   -16042116.16849 -12478221.92847  21524742.451    21524747.123
  24529194.754    -5277914.01349  -4094192.78245  24529194.821    24529201.688
  23805727.770    -9922926.01749  -7719721.28445  23805727.737    23805735.355
  23360270.299    -8493944.37049  -6604751.24945  23360269.972    23360276.245
  20899523.475   -27181925.67849 -20913578.25947  20899522.981    20899528.017
  23390555.178    -8180949.92249  -6101667.65645  23390555.325    23390560.461
  20417945.563   -27402992.22649 -21342968.92348  20417944.961    20417949.741
  22845825.305    -9318476.82149  -7249333.81146  22845825.135    22845830.371
  24361017.052    -3165986.61949  -2448759.99245  24361017.019    24361024.126
  20477781.659   -26255443.92649 -20442800.96248  20477781.347    20477784.629
 03  2 28  1 53 30.0000000  0 10G23G16G 6G14G17G26G15G 3G 9G18
  21534303.302   -15991875.65349 -12439073.46447  21534302.902    21534307.586
  24540537.112    -5218310.20149  -4047748.29845  24540537.100    24540543.800
  23826594.562    -9813269.98849  -7634275.13945  23826594.482    23826602.258
  23339544.975    -8602855.78149  -6689617.11645  23339544.620    23339550.843
  20903633.721   -27160326.23849 -20896747.50947  20903633.216    20903638.251
  23409147.572    -8083246.18949  -6025534.85545  23409147.784    23409152.819
  20413179.130   -27428039.85949 -21362486.53448  20413178.531    20413183.324
  22832636.059    -9387786.51149  -7303341.32046  22832635.945    22832641.117
  24348025.926    -3234254.96249  -2501955.93445  24348025.853    24348033.071
  20479354.666   -26247177.54049 -20436359.59648  20479354.348    20479357.651
 03  2 28  1 54  0.0000000  0 10G23G16G 6G14G17G26G15G 3G 9G18
  21543891.182   -15941491.05049 -12399812.72547  21543890.785    21543895.428
  24551920.025    -5158492.95849  -4001137.49945  24551919.969    24551926.590
  23847482.471    -9703503.59449  -7548742.97045  23847482.401    23847490.132
  23318850.490    -8711605.11049  -6774356.66646  23318850.116    23318856.406
  20907799.730   -27138433.51149 -20879688.22847  20907799.232    20907804.270
  23427803.446    -7985209.63549  -5949142.69445  23427803.669    23427808.511
  20408464.902   -27452813.30749 -21381790.50448  20408464.324    20408469.072
  22819525.622    -9456682.45649  -7357026.42346  22819525.471    22819530.642
  24335075.285    -3302310.67749  -2554986.20345  24335075.159    24335082.454
  20480986.701   -26238601.09249 -20429676.62948  20480986.378    20480989.680
 03  2 28  1 54 30.0000000  0 10G23G16G 6G14G17G26G15G 3G 9G18
  21553505.962   -15890965.08549 -12360441.82647  21553505.539    21553510.200
  24563342.778    -5098466.51349  -3954363.73445  24563342.522    24563349.380
  23868390.614    -9593630.65049  -7463127.80845  23868390.517    23868398.343
  23298187.084    -8820191.00049  -6858968.86946  23298186.781    23298193.008
  20912021.521   -27116247.57749 -20862400.46647  20912021.029    20912026.085
  23446521.739    -7886844.68049  -5872494.62445  23446521.940    23446526.753
  20403802.774   -27477312.84149 -21400881.01748  20403802.172    20403806.901
  22806494.009    -9525163.98249  -7410388.58146  22806493.834    22806498.953
  24322165.419    -3370152.08549  -2607849.46345  24322165.265    24322172.645
  20482677.248   -26229717.15449 -20422754.05048  20482676.918    20482680.214
 03  2 28  1 55  0.0000000  0 10G23G16G 6G14G17G26G15G 3G 9G18
  21563146.940   -15840301.22149 -12320963.48147  21563146.544    21563151.210
  24574804.290    -5038236.08849  -3907431.02445  24574804.037    24574810.890
  23889318.163    -9483655.66349  -7377433.12545  23889318.079    23889325.945
  23277554.839    -8928613.03149  -6943453.39746  23277554.585    23277560.846
  20916298.904   -27093769.58249 -20844885.13147  20916298.398    20916303.511
  23465301.444    -7788156.23249  -5795594.51745  23465301.600    23465306.606
  20399192.668   -27501539.01249 -21419758.53148  20399192.083    20399196.793
  22793541.269    -9593230.69849  -7463427.53146  22793541.121    22793546.233
  24309296.530    -3437778.14749  -2660544.92245  24309296.415    24309303.746
  20484425.641   -26220529.03149 -20415594.45248  20484425.327    20484428.602
 03  2 28  1 55 30.0000000  0 10G23G16G 6G14G17G26G15G 3G 9G18
  21572814.972   -15789495.34749 -12281374.47147  21572814.571    21572819.233
  24586305.108    -4977799.11349  -3860337.33945  24586304.975    24586311.719
  23910265.759    -9373575.70049  -7291656.65545  23910265.708    23910273.481
  23256955.478    -9036862.88549  -7027803.76446  23256955.145    23256961.417
  20920633.000   -27070993.64349 -20827137.63147  20920632.527    20920637.648
  23484143.147    -7689141.92249  -5718440.50845  23484143.307    23484148.446
  20394635.827   -27525485.23949 -21438417.90648  20394635.248    20394639.919
  22780668.891    -9660874.98749  -7516137.30146  22780668.761    22780673.908
  24296470.343    -3505179.75449  -2713065.50745  24296470.254    24296477.551
  20486232.803   -26211032.24649 -20408194.33948  20486232.506    20486235.730
 03  2 28  1 56  0.0000000  0 10G23G16G 6G14G17G26G15G 3G 9G18
  21582508.834   -15738553.70849 -12241679.67247  21582508.420    21582513.087
  24597843.899    -4917163.06149  -3813088.52145  24597843.647    24597850.389
  23931232.015    -9263397.99349  -7205804.03445  23931231.853    23931239.714
  23236388.522    -9144942.62849  -7112021.57646  23236388.084    23236394.396
  20925023.142   -27047923.22549 -20809160.66247  20925022.658    20925027.769
  23503045.468    -7589809.61249  -5641038.68145  23503045.630    23503050.784
  20390131.651   -27549154.86349 -21456861.74448  20390131.056    20390135.716
  22767876.433    -9728099.51749  -7568520.02246  22767876.317    22767881.465
  24283686.656    -3572358.41849  -2765412.34745  24283686.543    24283693.766
  20488097.611   -26201232.64949 -20400558.26448  20488097.295    20488100.526
 03  2 28  1 56 30.0000000  0 10G23G16G 6G14G17G26G15G 3G 9G18
  21592228.727   -15687475.21649 -12201878.23247  21592228.321    21592232.979
  24609420.439    -4856328.19849  -3765684.81145  24609420.134    24609427.160
  23952216.884    -9153122.48349  -7119875.19045  23952216.765    23952224.645
  23215854.863    -9252846.99449  -7196102.75646  23215854.459    23215860.681
  20929469.932   -27024555.12549 -20790951.73647  20929469.460    20929474.519
  23522008.237    -7490159.84649  -5563389.48345  23522008.333    23522013.456
  20385680.821   -27572543.98549 -21475087.01048  20385680.237    20385684.875
  22755164.718    -9794899.59849  -7620571.98246  22755164.617    22755169.794
  24270946.439    -3639308.50349  -2817581.08745  24270946.294    24270953.443
  20490020.263   -26191128.99649 -20392685.26448  20490019.934    20490023.172
 03  2 28  1 57  0.0000000  0 10G23G16G 6G14G17G26G15G 3G 9G18
  21601974.390   -15636261.22349 -12161971.20247  21601973.975    21601978.618
  24621034.180    -4795297.55549  -3718128.54545  24621033.914    24621041.026
  23973219.915    -9042751.72349  -7033872.12245  23973219.844    23973227.659
  23195355.080    -9360573.29349  -7280045.18146  23195354.691    23195360.857
  20933973.568   -27000888.36849 -20772510.08347  20933973.072    20933978.123
  23541030.770    -7390195.44949  -5485495.12745  23541030.873    23541036.014
  20381283.604   -27595651.43649 -21493092.78448  20381283.022    20381287.654
  22742534.227    -9861273.09749  -7672291.53646  22742534.141    22742539.365
  24258250.127    -3706026.92449  -2869569.34445  24258250.133    24258257.039
  20492000.523   -26180722.53949 -20384576.30548  20492000.194    20492003.403
 03  2 28  1 57 30.0000000  0 10G23G16G 6G14G17G26G15G 3G 9G18
  21611745.012   -15584916.10449 -12121962.00247  21611744.630    21611749.293
  24632684.059    -4734077.15049  -3670424.38945  24632683.858    24632690.732
  23994240.047    -8932291.10849  -6947799.05245  23994240.023    23994247.780
  23174889.116    -9468122.09649  -7363849.31546  23174888.778    23174894.804
  20938533.612   -26976925.23449 -20753837.50147  20938533.115    20938538.124
  23560112.102    -7289922.72749  -5407360.49545  23560112.104    23560117.236
  20376939.660   -27618478.86649 -21510880.37148  20376939.079    20376943.716
  22729984.835    -9927220.63849  -7723679.18746  22729984.699    22729989.900
  24245597.951    -3772513.31949  -2921376.76645  24245597.992    24245604.809
  20494037.642   -26170017.37149 -20376234.60348  20494037.303    20494040.509
 03  2 28  1 58  0.0000000  0 10G23G16G 6G14G17G26G15G 3G 9G18
  21621541.202   -15533436.78749 -12081848.22247  21621540.799    21621545.452
  24644370.378    -4672665.40849  -3622571.15745  24644370.147    24644377.280
  24015277.593    -8821738.67549  -6861654.43545  24015277.499    24015285.475
  23154458.349    -9575486.01949  -7447509.37846  23154457.993    23154463.923
  20943151.039   -26952660.37749 -20734929.79947  20943150.529    20943155.563
  23579252.242    -7189340.10549  -5328984.36945  23579252.283    23579257.336
  20372650.099   -27641020.49449 -21528445.25148  20372649.518    20372654.161
  22717517.687    -9992735.73949  -7774729.84546  22717517.530    22717522.728
  24232991.387    -3838759.98049  -2972997.36645  24232991.399    24232998.467
  20496132.278   -26159009.92149 -20367657.35048  20496131.953    20496135.150
 03  2 28  1 58 30.0000000  0 10G23G16G 6G14G17G26G15G 3G 9G18
  21631362.184   -15481827.10749 -12041632.86447  21631361.780    21631366.446
  24656092.151    -4611067.54549  -3574572.90445  24656091.883    24656099.096
  24036331.714    -8711099.26249  -6775442.04945  24036331.644    24036339.543
  23134062.830    -9682664.87349  -7531025.23146  23134062.452    23134068.300
  20947825.617   -26928095.07049 -20715787.98447  20947825.103    20947830.161
  23598450.340    -7088452.95549  -5250370.97245  23598450.393    23598455.517
  20368414.758   -27663277.31849 -21545788.20348  20368414.170    20368418.790
  22705132.781   -10057818.77049  -7825443.83246  22705132.594    22705137.817
  24220430.749    -3904766.15349  -3024430.60345  24220430.675    24220437.681
  20498283.700   -26147704.01949 -20358847.53248  20498283.364    20498286.569
 03  2 28  1 59  0.0000000  0 10G23G16G 6G14G17G26G15G 3G 9G18
  21641206.647   -15430093.98849 -12001321.32747  21641206.265    21641210.941
  24667847.805    -4549291.85349  -3526436.06445  24667847.564    24667854.689
  24057400.964    -8600380.68849  -6689167.96245  24057400.897    24057408.676
  23113701.941    -9789661.51549  -7614399.10646  23113701.558    23113707.325
  20952556.529   -26903233.97049 -20696415.68747  20952556.017    20952561.097
  23617704.748    -6987270.03649  -5171527.10845  23617704.923    23617709.985
  20364232.802   -27685253.60849 -21562912.56248  20364232.215    20364236.831
  22692829.469   -10122472.92749  -7875823.67546  22692829.281    22692834.436
  24207915.653    -3970534.14549  -3075678.29345  24207915.529    24207922.306
  20500490.642   -26136106.19149 -20349810.24448  20500490.326    20500493.523
 03  2 28  1 59 30.0000000  0 10G23G16G 6G14G17G26G15G 3G 9G18
  21651076.192   -15378229.20049 -11960907.18247  21651075.812    21651080.462
  24679638.412    -4487331.86849  -3478155.65745  24679638.182    24679645.490
  24078486.609    -8489575.94049  -6602826.75045  24078486.471    24078494.180
  23093378.084    -9896463.46549  -7697621.25446  23093377.668    23093383.483
  20957345.657   -26878066.90449 -20676804.96747  20957345.142    20957350.213
  23637016.812    -6885784.49949  -5092447.43845  23637016.914    23637022.124
  20360106.291   -27706938.39049 -21579809.76348  20360105.712    20360110.333
  22680609.923   -10186686.62149  -7925860.23746  22680609.741    22680614.937
  24195448.056    -4036050.99649  -3126730.28845  24195447.950    24195454.557
  20502754.763   -26124208.19349 -20340539.05248  20502754.429    20502757.615
 03  2 28  2  0  0.0000000  0 10G23G16G 6G14G17G26G15G 3G 9G18
  21660969.890   -15326237.42249 -11920394.08347  21660969.483    21660974.110
  24691462.899    -4425193.79749  -3429736.46545  24691462.776    24691469.903
  24099587.546    -8378690.93849  -6516422.98945  24099587.283    24099595.034
  23073091.113   -10003071.60349  -7780692.38846  23073090.702    23073096.516
  20962192.515   -26852596.44149 -20656957.83647  20962191.997    20962197.037
  23656385.161    -6784002.98649  -5013137.15845  23656385.265    23656390.506
  20356034.921   -27728333.53449 -21596481.27748  20356034.331    20356038.955
  22668473.974   -10250461.08849  -7975554.59346  22668473.802    22668479.003
  24183028.302    -4101316.79349  -3177586.66145  24183028.288    24183034.720
  20505075.152   -26112014.41149 -20331037.38148  20505074.822    20505077.999
 03  2 28  2  0 30.0000000  0  9G23G 6G14G17G26G15G 3G 9G18
  21670886.989   -15274122.44349 -11879784.98947  21670886.587    21670891.242
  24120702.537    -8267730.55349  -6429960.51645  24120702.364    24120710.254
  23052840.995   -10109485.86349  -7863612.44046  23052840.601    23052846.408
  20967096.755   -26826824.40749 -20636875.70447  20967096.241    20967101.260
  23675808.779    -6681931.04849  -4933600.55945  23675808.899    23675814.129
  20352018.357   -27749440.30549 -21612928.07948  20352017.791    20352022.419
  22656421.607   -10313796.78849  -8024907.04146  22656421.436    22656426.577
  24170656.457    -4166330.90949  -3228246.90245  24170656.423    24170662.686
  20507451.072   -26099528.54149 -20321308.10948  20507450.747    20507453.934
 03  2 28  2  1  0.0000000  0  9G23G 6G14G17G26G15G 3G 9G18
  21680828.899   -15221877.21049 -11839074.39747  21680828.495    21680833.159
  24141833.114    -8156688.92449  -6343434.71745  24141833.066    24141840.842
  23032629.937   -10215694.95849  -7946372.62646  23032629.553    23032635.358
  20972060.151   -26800741.34449 -20616551.21847  20972059.645    20972064.664
  23695288.731    -6579563.12549  -4853833.31745  23695288.833    23695294.096
  20348058.552   -27770249.11349 -21629142.70548  20348057.983    20348062.607
  22644454.664   -10376683.29249  -8073909.45646  22644454.480    22644459.580
  24158334.673    -4231081.75349  -3278701.99145  24158334.703    24158341.071
  20509884.044   -26086743.07449 -20311345.38448  20509883.733    20509886.878
 03  2 28  2  1 30.0000000  0  9G23G 6G14G17G26G15G 3G 9G18
  21690793.226   -15169514.21449 -11798272.04647  21690792.836    21690797.471
  24162976.570    -8045579.57849  -6256856.15845  24162976.589    24162984.381
  23012456.364   -10321707.29649  -8028979.48446  23012455.978    23012461.766
  20977080.793   -26774357.41549 -20595992.29247  20977080.309    20977085.323
  23714822.320    -6476913.52849  -4773846.56845  23714822.490    23714827.628
  20344153.616   -27790769.56849 -21645132.63648  20344153.036    20344157.662
  22632571.491   -10439129.71049  -8122568.94946  22632571.297    22632576.362
  24146061.380    -4295576.88949  -3328957.79845  24146061.330    24146067.830
  20512371.672   -26073670.56249 -20301158.98548  20512371.351    20512374.476
 03  2 28  2  2  0.0000000  0  9G23G 6G14G17G26G15G 3G 9G18
  21700780.364   -15117031.61449 -11757376.49647  21700779.953    21700784.575
  24184133.046    -7934401.54749  -6170224.08445  24184133.303    24184140.962
  22992321.381   -10427517.15449  -8111428.57046  22992320.928    22992326.720
  20982159.526   -26747668.51849 -20575195.72847  20982159.014    20982164.057
  23734409.619    -6373981.94149  -4693640.10745  23734409.800    23734414.840
  20340304.427   -27810997.15849 -21660894.36448  20340303.861    20340308.486
  22620773.104   -10501130.55849  -8170881.26746  22620772.905    22620777.916
  24133838.048    -4359809.99149  -3379009.43245  24133838.022    24133844.567
  20514914.310   -26060308.81449 -20290747.20848  20514913.981    20514917.113
 03  2 28  2  2 30.0000000  0  9G23G 6G14G17G26G15G 3G 9G18
  21710790.572   -15064427.48449 -11716386.25347  21710790.173    21710794.787
  24205302.796    -7823154.35849  -6083538.11845  24205303.027    24205310.670
  22972225.928   -10533118.65049  -8193715.30346  22972225.520    22972231.216
  20987297.044   -26720670.65249 -20554158.41447  20987296.527    20987301.596
  23754050.456    -6270768.19449  -4613213.82245  23754050.503    23754055.773
  20336511.815   -27830927.36749 -21676424.36748  20336511.256    20336515.855
  22609060.474   -10562680.61949  -8218842.28346  22609060.263    22609065.268
  24121665.751    -4423774.66549  -3428851.91645  24121665.758    24121672.300
  20517512.355   -26046656.06549 -20280108.68048  20517512.022    20517515.153
 03  2 28  2  3  0.0000000  0  9G23G 6G14G17G26G15G 3G 9G18
  21720822.315   -15011710.10049 -11675307.75047  21720821.928    21720826.499
  24226484.009    -7711847.51849  -5996805.66845  24226484.054    24226491.790
  22952169.230   -10638516.15149  -8275843.07646  22952168.924    22952174.571
  20992492.132   -26693370.26849 -20532885.36647  20992491.631    20992496.701
  23773742.959    -6167282.49549  -4532575.60045  23773743.130    23773748.464
  20332774.713   -27850565.99949 -21691727.16448  20332774.143    20332778.732
  22597432.645   -10623785.07649  -8266456.11646  22597432.453    22597437.453
  24109543.978    -4487474.71049  -3478488.18145  24109543.941    24109550.507
  20520164.151   -26032720.53449 -20269249.79648  20520163.816    20520166.949
 03  2 28  2  3 30.0000000  0  9G23G 6G14G17G26G15G 3G 9G18
  21730876.500   -14958874.87849 -11634137.42847  21730876.118    21730880.656
  24247677.204    -7600477.34549  -5910023.85245  24247677.202    24247684.953
  22932153.144   -10743700.90549  -8357805.07346  22932152.801    22932158.406
  20997746.112   -26665760.48449 -20511371.22547  20997745.613    20997750.650
  23793488.024    -6063521.69549  -4451722.96545  23793488.181    23793493.369
  20329094.473   -27869905.64149 -21706796.98048  20329093.891    20329098.464
  22585891.211   -10684435.72749  -8313716.31846  22585890.993    22585895.975
  24097474.246    -4550900.84649  -3527911.00445  24097474.185    24097480.840
  20522870.796   -26018497.05549 -20258166.53748  20522870.442    20522873.559
 03  2 28  2  4  0.0000000  0  9G23G 6G14G17G26G15G 3G 9G18
  21740952.581   -14905924.76249 -11592877.58247  21740952.202    21740956.713
  24268881.702    -7489048.08049  -5823196.00545  24268881.613    24268889.438
  22912177.610   -10848672.21949  -8439600.74946  22912177.270    22912182.880
  21003058.694   -26637842.56149 -20489616.98447  21003058.195    21003063.208
  23813284.411    -5959490.80449  -4370659.88645  23813284.636    23813289.781
  20325471.052   -27888946.81649 -21721634.23448  20325470.480    20325475.036
  22574436.091   -10744632.39349  -8360622.77646  22574435.893    22574440.789
  24085457.072    -4614051.88849  -3577119.50445  24085457.085    24085463.398
  20525631.635   -26003988.60049 -20246861.22448  20525631.291    20525634.387
 03  2 28  2  4 30.0000000  0  9G23G 6G14G17G26G15G 3G 9G18
  21751050.566   -14852859.47449 -11551527.99347  21751050.171    21751054.689
  24290097.182    -7377560.25949  -5736322.54645  24290097.015    24290105.091
  22892243.596   -10953425.58649  -8521226.61146  22892243.290    22892248.825
  21008430.461   -26609613.48649 -20467620.29047  21008429.957    21008435.002
  23833132.080    -5855190.80649  -4289387.08445  23833132.386    23833137.355
  20321905.053   -27907686.15649 -21736236.29548  20321904.478    20321909.011
  22563068.087   -10804371.46949  -8407172.66346  22563067.883    22563072.772
  24073493.292    -4676922.46649  -3626109.48145  24073493.258    24073499.324
  20528446.812   -25989194.65349 -20235333.45848  20528446.482    20528449.567
 03  2 28  2  5  0.0000000  0  9G23G 6G14G17G26G15G 3G 9G18
  21761169.686   -14799682.74749 -11510091.56647  21761169.306    21761173.879
  24311322.848    -7266018.96949  -5649407.40245  24311322.662    24311330.737
  22872351.053   -11057960.89149  -8602682.54246  22872350.751    22872356.222
  21013861.159   -26581074.97849 -20445382.46847  21013860.647    21013865.689
  23853029.826    -5750627.43049  -4207909.06645  23853030.022    23853034.904
  20318396.209   -27926125.21449 -21750604.35848  20318395.617    20318400.140
  22551787.083   -10863653.40449  -8453366.34346  22551786.913    22551791.753
  24061582.935    -4739512.19949  -3674880.60945  24061582.872    24061588.725
  20531315.612   -25974119.00249 -20223586.16948  20531315.256    20531318.352
 03  2 28  2  5 30.0000000  0  9G23G 6G14G17G26G15G 3G 9G18
  21771310.023   -14746394.62549 -11468568.34547  21771309.656    21771314.260
  24332558.502    -7154425.56749  -5562451.65745  24332558.200    24332566.560
  22852500.820   -11162274.29549  -8683965.57846  22852500.473    22852505.912
  21019351.075   -26552225.21149 -20422902.11347  21019350.567    21019355.556
  23872977.162    -5645802.40449  -4126227.20345  23872977.382    23872982.532
  20314944.962   -27944261.50649 -21764736.51148  20314944.377    20314948.898
  22540593.651   -10922475.08749  -8499201.37246  22540593.452    22540598.290
  24049726.664    -4801816.73149  -3723429.46245  24049726.671    24049732.545
  20534238.051   -25958761.45749 -20211619.22948  20534237.703    20534240.778
 03  2 28  2  6  0.0000000  0  9G23G 6G14G17G26G15G 3G 9G18
  21781471.642   -14692995.08249 -11426958.28947  21781471.261    21781475.853
  24353803.847    -7042781.31749  -5475456.29845  24353803.612    24353811.893
  22832693.479   -11266362.01749  -8765072.74046  22832693.146    22832698.533
  21024900.548   -26523062.41649 -20400177.83347  21024900.045    21024905.041
  23892974.062    -5540717.62849  -4044342.91045  23892974.348    23892979.433
  20311551.830   -27962092.26549 -21778630.57848  20311551.246    20311555.787
  22529488.463   -10980833.27549  -8544675.25046  22529488.280    22529493.058
  24037925.377    -4863831.51749  -3771752.54545  24037925.421    24037931.571
  20537214.098   -25943122.10049 -20199432.69148  20537213.753    20537216.831
 03  2 28  2  6 30.0000000  0  9G23G 6G14G17G26G15G 3G 9G18
  21791653.542   -14639488.90949 -11385265.15047  21791653.152    21791657.688
  24375057.757    -6931092.05549  -5388425.86445  24375057.528    24375065.686
  22812929.042   -11370224.77849  -8846004.63146  22812928.698    22812933.972
  21030509.141   -26493588.79849 -20377211.36047  21030508.662    21030513.622
  23913019.300    -5435379.48549  -3962261.21645  23913019.611    23913024.725
  20308216.397   -27979619.80449 -21792288.37548  20308215.805    20308220.359
  22518471.226   -11038729.22949  -8589788.95846  22518471.057    22518475.779
  24026179.391    -4925556.81749  -3819850.05945  24026179.422    24026185.667
  20540242.846   -25927205.63749 -20187030.22848  20540242.526    20540245.619
 03  2 28  2  7  0.0000000  0  9G23G 6G14G17G26G15G 3G 9G18
  21801855.653   -14585876.43949 -11343489.18047  21801855.270    21801859.792
  24396319.983    -6819359.26649  -5301361.49245  24396319.709    24396328.092
  22793208.079   -11473858.73749  -8926758.23446  22793207.730    22793212.931
  21036177.183   -26463802.90549 -20354001.55247  21036176.728    21036181.686
  23933112.456    -5329790.08249  -3879983.69845  23933112.671    23933117.688
  20304939.159   -27996841.59249 -21805707.92148  20304938.574    20304943.116
  22507542.430   -11096160.29549  -8634540.39446  22507542.243    22507546.971
  24014489.155    -4986988.64749  -3867718.89245  24014489.186    24014495.538
  20543324.377   -25911011.98849 -20174411.77748  20543324.043    20543327.148
 03  2 28  2  7 30.0000000  0  9G23G 6G14G17G26G15G 3G 9G18
  21812078.348   -14532155.54249 -11301628.72547  21812077.953    21812082.556
  24417590.593    -6707582.02549  -5214262.53745  24417590.264    24417598.653
  22773531.698   -11577258.28649  -9007329.16746  22773531.322    22773536.538
  21041905.487   -26433700.59349 -20330545.18247  21041905.032    21041909.961
  23953253.259    -5223949.00549  -3797510.07345  23953253.567    23953258.458
  20301721.033   -28013753.03449 -21818885.63748  20301720.431    20301724.972
  22496703.111   -11153121.28249  -8678925.53546  22496702.897    22496707.589
  24002856.092    -5048120.37849  -3915353.87745  24002856.049    24002862.397
  20546459.059   -25894538.99449 -20161575.65248  20546458.743    20546461.830
 03  2 28  2  8  0.0000000  0  9G23G 6G14G17G26G15G 3G 9G18
  21822320.579   -14478332.11049 -11259688.37747  21822320.192    21822324.806
  24438868.285    -6595767.46549  -5127134.44145  24438867.954    24438876.224
  22753899.494   -11680425.42949  -9087719.02346  22753899.144    22753904.344
  21047693.234   -26403285.75949 -20306845.29547  21047692.766    21047697.683
  23973440.589    -5117864.06949  -3714846.40545  23973440.763    23973445.628
  20298561.262   -28030357.65949 -21831824.28048  20298560.679    20298565.188
  22485952.720   -11209614.88749  -8722946.48946  22485952.479    22485957.197
  23991279.905    -5108953.58849  -3962756.24945  23991279.683    23991286.180
  20549645.744   -25877792.73649 -20148526.59848  20549645.417    20549648.544
 03  2 28  2  8 30.0000000  0  9G23G 6G14G17G26G15G 3G 9G18
  21832582.975   -14424402.96949 -11217665.65847  21832582.598    21832587.153
  24460153.312    -6483913.58149  -5039975.74145  24460153.118    24460161.641
  22734312.892   -11783353.13249  -9167922.30646  22734312.533    22734317.738
  21053541.419   -26372553.21349 -20282897.84347  21053540.957    21053545.899
  23993674.434    -5011533.94149  -3631991.67145  23993674.726    23993679.551
  20295460.959   -28046649.70149 -21844519.35648  20295460.375    20295464.869
  22475292.429   -11265634.99049  -8766598.48446  22475292.199    22475296.897
  23979761.805    -5169480.65949  -4009920.12145  23979761.777    23979768.179
  20552885.078   -25860769.85349 -20135261.99648  20552884.764    20552887.872
 03  2 28  2  9  0.0000000  0  9G23G 6G14G17G26G15G 3G 9G18
  21842865.059   -14370370.32949 -11175562.27447  21842864.679    21842869.187
  24481445.391    -6372024.00749  -4952789.22245  24481445.258    24481453.633
  22714772.134   -11886039.80749  -9247937.77046  22714771.781    22714777.008
  21059450.039   -26341503.31249 -20258703.08847  21059449.567    21059454.502
  24013954.051    -4904962.44349  -3548948.93445  24013954.465    24013959.507
  20292420.214   -28062628.77549 -21856970.55248  20292419.650    20292424.125
  22464722.369   -11321180.84749  -8809880.92646  22464722.146    22464726.885
  23968302.598    -5229699.53949  -4056843.84145  23968302.469    23968308.735
  20556176.605   -25843472.80749 -20121783.74848  20556176.285    20556179.353
 03  2 28  2  9 30.0000000  0  9G23G 6G14G17G26G15G 3G 9G18
  21853165.970   -14316238.80349 -11133381.84447  21853165.578    21853170.064
  24502743.113    -6260104.41249  -4865579.31145  24502742.983    24502751.557
  22695277.142   -11988486.21649  -9327766.02346  22695276.787    22695281.936
  21065418.542   -26310138.72949 -20234263.13147  21065418.045    21065422.996
  24034278.505    -4798155.95949  -3465723.06945  24034279.005    24034284.053
  20289438.667   -28078296.88849 -21869179.44748  20289438.094    20289442.570
  22454242.282   -11376253.90649  -8852794.96046  22454242.072    22454246.811
  23956901.947    -5289610.39749  -4103527.54345  23956901.782    23956907.935
  20559519.519   -25825905.64049 -20108095.02348  20559519.191    20559522.254
 03  2 28  2 10  0.0000000  0  9G23G 6G14G17G26G15G 3G 9G18
  21863485.958   -14262006.74849 -11091123.07847  21863485.544    21863490.075
  24524046.592    -6148154.28849  -4778345.63545  24524046.497    24524055.268
  22675828.867   -12090686.86649  -9407402.78146  22675828.541    22675833.673
  21071447.581   -26278455.88349 -20209575.17947  21071447.071    21071451.990
  24054647.966    -4691114.69049  -3382314.21245  24054648.424    24054653.250
  20286517.089   -28093649.86149 -21881142.77648  20286516.517    20286520.956
  22443853.054   -11430849.41349  -8895336.86946  22443852.824    22443857.587
  23945561.067    -5349207.28249  -4149966.60045  23945560.943    23945566.862
  20562914.129   -25808066.76549 -20094194.57848  20562913.811    20562916.864
 03  2 28  2 10 30.0000000  0  8G23G14G17G26G15G 3G 9G18
  21873824.995   -14207674.76049 -11048786.44347  21873824.606    21873829.114
  22656427.976   -12192638.51749  -9486845.52646  22656427.702    22656432.801
  21077537.396   -26246453.49149 -20184638.23047  21077536.905    21077541.789
  24075061.427    -4583841.13049  -3298724.36845  24075061.811    24075066.598
  20283655.826   -28108685.88349 -21892859.13048  20283655.248    20283659.663
  22433555.100   -11484964.95449  -8937504.77946  22433554.903    22433559.649
  23934280.399    -5408486.51849  -4196158.12245  23934280.223    23934286.256
  20566360.274   -25789957.05449 -20080083.09148  20566359.955    20566363.002
 03  2 28  2 11  0.0000000  0  8G23G14G17G26G15G 3G 9G18
  21884182.640   -14153244.79649 -11006373.46447  21884182.246    21884186.732
  22637074.805   -12294339.45549  -9566092.90246  22637074.580    22637079.614
  21083688.083   -26214131.39349 -20159452.15747  21083687.577    21083692.441
  24095518.507    -4476338.98149  -3214956.39845  24095518.809    24095523.554
  20280855.004   -28123404.25549 -21904327.96448  20280854.427    20280858.856
  22423348.691   -11538599.41749  -8979297.83546  22423348.509    22423353.310
  23923060.681    -5467445.78649  -4242100.30645  23923060.580    23923066.619
  20569857.611   -25771578.23149 -20065761.91348  20569857.284    20569860.340
 03  2 28  2 11 30.0000000  0  8G23G14G17G26G15G 3G 9G18
  21894558.518   -14098719.15349 -10963885.92747  21894558.123    21894562.588
  22617769.750   -12395787.95649  -9645143.58646  22617769.494    22617774.500
  21089899.503   -26181489.94249 -20134017.24047  21089899.007    21089903.854
  24116018.144    -4368612.17049  -3131013.40945  24116018.409    24116023.252
  20278114.605   -28137804.92049 -21915549.23448  20278114.034    20278118.478
  22413234.017   -11591752.14649  -9020715.51746  22413233.841    22413238.638
  23911902.155    -5526083.07649  -4287791.56545  23911902.086    23911908.210
  20573405.762   -25752932.60749 -20051232.83248  20573405.418    20573408.444
 03  2 28  2 12  0.0000000  0  8G23G14G17G26G15G 3G 9G18
  21904952.559   -14044097.83649 -10921323.84347  21904952.167    21904956.631
  22598513.416   -12496980.44849  -9723994.78346  22598513.135    22598518.130
  21096171.970   -26148527.69749 -20108332.35547  21096171.484    21096176.363
  24136560.119    -4260662.62549  -3046896.85445  24136560.397    24136565.250
  20275435.205   -28151885.26849 -21926520.91048  20275434.639    20275439.056
  22403211.538   -11644420.28249  -9061755.58746  22403211.350    22403216.172
  23900805.736    -5584393.88349  -4333228.45745  23900805.747    23900811.920
  20577004.642   -25734020.04649 -20036495.75348  20577004.306    20577007.326
 03  2 28  2 12 30.0000000  0  8G23G14G17G26G15G 3G 9G18
  21915364.361   -13989383.46349 -10878689.24147  21915363.949    21915368.426
  22579305.983   -12597915.90849  -9802645.69846  22579305.653    22579310.623
  21102505.390   -26115245.32449 -20082398.01747  21102504.900    21102509.792
  24157143.684    -4152494.78649  -2962610.17345  24157144.057    24157148.851
  20272816.705   -28165645.55149 -21937243.18048  20272816.131    20272820.538
  22393281.399   -11696603.64549  -9102417.90246  22393281.184    22393286.030
  23889771.966    -5642376.82149  -4378409.85145  23889772.055    23889778.038
  20580653.829   -25714843.22549 -20021552.75448  20580653.500    20580656.535
 03  2 28  2 13  0.0000000  0  9G23G31G14G17G26G15G 3G 9G18
  21925793.276   -13934579.14249 -10835984.55147  21925792.860    21925797.359
  24386274.862    -1160907.38159   -880820.10645  24386274.043    24386279.539
  22560147.596   -12698593.66149  -9881095.79246  22560147.215    22560152.197
  21108899.508   -26081643.88549 -20056215.05647  21108899.023    21108903.909
  24177767.816    -4044113.48649  -2878157.15345  24177768.190    24177772.770
  20270259.063   -28179085.96749 -21947716.20348  20270258.472    20270262.865
  22383443.475   -11748302.11049  -9142702.37746  22383443.235    22383448.124
  23878800.945    -5700030.58349  -4423334.75945  23878800.940    23878806.760
  20584352.662   -25695405.50649 -20006406.45548  20584352.349    20584355.404
 03  2 28  2 13 30.0000000  0  9G23G31G14G17G26G15G 3G 9G18
  21936239.535   -13879683.16749 -10793208.45947  21936239.128    21936243.660
  24369270.042    -1250268.78949   -950452.37745  24369269.525    24369274.753
  22541039.254   -12799008.14849  -9959340.75846  22541038.914    22541043.858
  21115355.075   -26047719.58649 -20029780.52447  21115354.594    21115359.504
  24198432.750    -3935518.91449  -2793537.85745  24198433.174    24198437.282
  20267763.016   -28192202.67549 -21957936.99248  20267762.430    20267766.819
  22373698.649   -11799511.15249  -9182605.49446  22373698.431    22373703.316
  23867893.637    -5757349.13749  -4467998.47045  23867893.601    23867899.430
  20588101.556   -25675704.97549 -19991055.37648  20588101.234    20588104.287
 03  2 28  2 14  0.0000000  0  9G23G31G14G17G26G15G 3G 9G18
  21946702.798   -13824698.10349 -10750362.93147  21946702.404    21946706.876
  24352323.843    -1339321.74249  -1019844.23645  24352323.278    24352328.440
  22521981.204   -12899158.37349 -10037379.79546  22521980.907    22521985.777
  21121871.914   -26013473.25949 -20003095.05047  21121871.423    21121876.311
  24219137.333    -3826715.44949  -2708755.81545  24219137.770    24219141.945
  20265328.512   -28204996.01249 -21967905.79648  20265327.926    20265332.312
  22364047.056   -11850230.62049  -9222127.11946  22364046.823    22364051.689
  23857050.289    -5814330.75149  -4512399.61945  23857050.228    23857056.001
  20591899.978   -25655744.10849 -19975501.43148  20591899.655    20591902.692
 03  2 28  2 14 30.0000000  0  9G23G31G14G17G26G15G 3G 9G18
  21957183.510   -13769621.54549 -10707446.11947  21957183.118    21957187.561
  24335437.482    -1428060.07249  -1088990.91745  24335436.877    24335442.089
  22502974.678   -12999038.14049 -10115208.09946  22502974.375    22502979.177
  21128450.781   -25978901.12249 -19976155.70347  21128450.288    21128455.152
  24239881.749    -3717702.48749  -2623810.55845  24239882.129    24239886.421
  20262956.441   -28217461.01049 -21977618.75648  20262955.858    20262960.242
  22354489.596   -11900455.36149  -9261263.24347  22354489.379    22354494.217
  23846272.309    -5870969.10749  -4556533.32045  23846272.200    23846277.938
  20595748.319   -25635520.69349 -19959742.90848  20595748.000    20595751.010
 03  2 28  2 15  0.0000000  0  9G23G31G14G17G26G15G 3G 9G18
  21967680.783   -13714457.94249 -10664461.47747  21967680.381    21967684.891
  24318610.860    -1516484.46749  -1157892.97045  24318610.187    24318615.514
  22484019.467   -13098648.16849 -10192826.21046  22484019.177    22484023.926
  21135091.110   -25944005.66349 -19948964.41747  21135090.611    21135095.464
  24260664.833    -3608486.29149  -2538706.92145  24260665.201    24260669.448
  20260646.467   -28229599.81449 -21987077.53848  20260645.877    20260650.270
  22345026.005   -11950186.80749  -9300014.98247  22345025.760    22345030.609
  23835559.625    -5927264.27149  -4600399.58545  23835559.546    23835565.233
  20599645.764   -25615039.36349 -19943783.41148  20599645.442    20599648.492
 03  2 28  2 15 30.0000000  0  9G23G31G14G17G26G15G 3G 9G18
  21978194.750   -13659206.55649 -10621408.43147  21978194.343    21978198.845
  24301844.810    -1604590.43249  -1226546.92345  24301844.193    24301849.501
  22465116.465   -13197983.97849 -10270230.65146  22465116.154    22465120.845
  21141793.547   -25908784.19649 -19921519.09847  21141793.051    21141797.856
  24281486.306    -3499067.84249  -2453445.72945  24281486.707    24281491.106
  20258399.215   -28241409.08649 -21996279.54648  20258398.623    20258403.031
  22335656.965   -11999421.43749  -9338379.58647  22335656.737    22335661.558
  23824913.221    -5983211.19649  -4643994.47845  23824913.046    23824918.783
  20603592.441   -25594299.27049 -19927622.27848  20603592.130    20603595.189
 03  2 28  2 16  0.0000000  0  9G23G31G14G17G26G15G 3G 9G18
  21988725.097   -13603869.09849 -10578288.32347  21988724.693    21988729.223
  24285139.749    -1692376.15549  -1294951.34945  24285139.129    24285144.360
  22446265.909   -13297043.99049 -10347420.18946  22446265.593    22446270.214
  21148558.026   -25873236.41849 -19893819.52247  21148557.538    21148562.361
  24302345.566    -3389451.03549  -2368030.01845  24302345.906    24302350.651
  20256214.789   -28252888.11849 -22005224.22548  20256214.195    20256218.610
  22326382.547   -12048158.60049  -9376356.55847  22326382.327    22326387.133
  23814333.359    -6038807.87449  -4687316.45345  23814333.200    23814339.009
  20607588.051   -25573302.23949 -19911260.93748  20607587.734    20607590.756
 03  2 28  2 16 30.0000000  0  9G23G31G14G17G26G15G 3G 9G18
  21999271.383   -13548447.92549 -10535102.97547  21999270.982    21999275.565
  24268495.614    -1779840.35649  -1363105.18045  24268495.011    24268500.409
  22427468.098   -13395826.86349 -10424393.75546  22427467.797    22427472.368
  21155384.406   -25837363.53449 -19865866.60047  21155383.932    21155388.757
  24323241.862    -3279639.88249  -2282462.87745  24323242.130    24323247.049
  20254093.232   -28264036.88749 -22013911.54848  20254092.633    20254097.050
  22317202.825   -12096398.01449  -9413945.67047  22317202.622    22317207.420
  23803820.400    -6094052.58749  -4730364.15945  23803820.248    23803826.226
  20611632.072   -25552050.61849 -19894701.20548  20611631.744    20611634.783
 03  2 28  2 17  0.0000000  0  9G23G31G14G17G26G15G 3G 9G18
  22009834.082   -13492940.55549 -10491850.45747  22009833.679    22009838.192
  24251914.156    -1866976.66049  -1431003.55645  24251913.639    24251918.945
  22408724.150   -13494326.38749 -10501146.54046  22408723.884    22408728.436
  21162273.380   -25801161.50249 -19837657.21047  21162272.903    21162277.751
  24344175.424    -3169633.92249  -2196743.80445  24344175.668    24344180.302
  20252035.417   -28274850.64749 -22022337.82948  20252034.838    20252039.246
  22308118.832   -12144134.19349  -9451142.66247  22308118.661    22308123.513
  23793375.962    -6148938.53049  -4773132.31445  23793375.819    23793381.722
  20615724.974   -25530542.02349 -19877941.23848  20615724.661    20615727.723
 03  2 28  2 17 30.0000000  0  9G23G31G14G17G26G15G 3G 9G18
  22020411.871   -13437353.95849 -10448536.20947  22020411.476    22020415.955
  24235394.400    -1953788.51649  -1498649.05645  24235393.865    24235399.187
  22390033.515   -13592546.03049 -10577681.23946  22390033.193    22390037.755
  21169224.081   -25764635.34149 -19809195.25447  21169223.611    21169228.451
  24365144.330    -3059441.65649  -2110879.62845  24365144.462    24365149.201
  20250040.476   -28285333.95549 -22030506.61648  20250039.899    20250044.311
  22299129.867   -12191371.37349  -9487950.81747  22299129.684    22299134.555
  23782999.112    -6203468.54849  -4815623.13845  23782998.973    23783004.906
  20619865.458   -25508783.36549 -19860986.42248  20619865.144    20619868.220
 03  2 28  2 18  0.0000000  0  8G23G31G14G17G15G 3G 9G18
  22031005.325   -13381685.06649 -10405157.84047  22031004.913    22031009.412
  24218937.533    -2040269.16949  -1566036.56845  24218936.989    24218942.277
  22371397.426   -13690479.03549 -10653992.57846  22371397.124    22371401.634
  21176237.345   -25727780.17849 -19780476.94347  21176236.866    21176241.728
  20248109.550   -28295481.13149 -22038413.48448  20248108.956    20248113.349
  22290236.973   -12238103.80449  -9524365.66747  22290236.760    22290241.670
  23772691.405    -6257635.47049  -4857831.02345  23772691.348    23772697.203
  20624054.149   -25486771.65249 -19843834.41948  20624053.845    20624056.914
 03  2 28  2 18 30.0000000  0  9G23G31G26G14G17G15G 3G 9G18
  22041614.016   -13325935.67149 -10361716.73547  22041613.608    22041618.151
  24202544.360    -2126416.65249  -1633164.35745  24202543.747    24202548.892
                   -225815.59959   -193784.59543
  22352816.237   -13788123.63949 -10730079.17446  22352815.927    22352820.391
  21183313.260   -25690595.96649 -19751502.21847  21183312.788    21183317.666
  20246242.616   -28305291.66349 -22046058.03448  20246242.028    20246246.421
  22281440.271   -12284330.66549  -9560386.56147  22281440.060    22281444.954
  23762453.222    -6311437.11649  -4899754.29545  23762453.126    23762459.034
  20628290.623   -25464508.80349 -19826486.72148  20628290.302    20628293.366
 03  2 28  2 19  0.0000000  0  8G23G31G14G17G15G 3G 9G18
  22052237.595   -13270108.48049 -10318215.01347  22052237.204    22052241.720
  24186214.430    -2212230.07749  -1700031.83345  24186213.883    24186219.171
  22334290.104   -13885478.82849 -10805940.27146  22334289.773    22334294.243
  21190451.572   -25653083.68249 -19722271.85747  21190451.126    21190455.980
  20244439.649   -28314766.11249 -22053440.70548  20244439.077    20244443.462
  22272739.718   -12330052.10949  -9596013.63647  22272739.543    22272744.375
  23752284.835    -6364871.84549  -4941391.65045  23752284.706    23752290.643
  20632574.357   -25441997.51949 -19808945.44648  20632574.036    20632577.077
 03  2 28  2 19 30.0000000  0  8G23G31G14G17G15G 3G 9G18
  22062876.082   -13214202.92949 -10274652.23147  22062875.669    22062880.214
  24169948.798    -2297705.34249  -1766635.89845  24169948.363    24169953.598
  22315819.790   -13982540.49649 -10881572.63946  22315819.490    22315823.948
  21197652.804   -25615241.14249 -19692784.15347  21197652.341    21197657.179
  20242701.253   -28323901.39549 -22060559.08048  20242700.670    20242705.058
  22264135.992   -12375265.01149  -9631244.42947  22264135.770    22264140.627
  23742187.221    -6417935.27649  -4982739.68145  23742187.136    23742192.845
  20636905.455   -25419237.50149 -19791210.34348  20636905.138    20636908.128
 03  2 28  2 20  0.0000000  0  8G23G31G14G17G15G 3G 9G18
  22073529.439   -13158219.08549 -10231028.42947  22073529.034    22073533.532
  24153748.430    -2382838.80449  -1832973.56845  24153748.128    24153753.255
  22297405.914   -14079305.55549 -10956973.88146  22297405.598    22297410.062
  21204917.038   -25577067.44149 -19663038.39347  21204916.552    21204921.368
  20241027.778   -28332695.31349 -22067411.45548  20241027.209    20241031.578
  22255629.373   -12419967.26649  -9666077.32047  22255629.179    22255634.072
  23732160.889    -6470623.89149  -5023795.63445  23732160.797    23732166.351
  20641283.819   -25396228.95749 -19773281.57948  20641283.507    20641286.488
 03  2 28  2 20 30.0000000  0  8G23G31G14G17G15G 3G 9G18
  22084196.945   -13102160.74449 -10187346.58947  22084196.539    22084201.025
  24137613.043    -2467630.95449  -1899045.23245  24137612.519    24137617.746
  22279048.509   -14175773.96849 -11032143.98646  22279048.186    22279052.677
  21212243.981   -25538563.98449 -19633035.69247  21212243.500    21212248.311
  20239418.977   -28341149.60449 -22073999.19748  20239418.402    20239422.751
  22247219.686   -12464160.07849  -9700513.24847  22247219.531    22247224.436
  23722205.996    -6522937.18049  -5064559.13445  23722205.868    23722211.341
  20645708.759   -25372975.61549 -19755162.07548  20645708.444    20645711.438
 03  2 28  2 21  0.0000000  0  8G23G31G14G17G15G 3G 9G18
  22094878.638   -13046027.71549 -10143606.54947  22094878.234    22094882.728
  24121543.229    -2552077.78549  -1964847.92445  24121542.754    24121548.094
  22260748.270   -14271942.14249 -11107080.13146  22260747.895    22260752.364
  21219633.996   -25499729.01449 -19602774.67247  21219633.523    21219638.327
  20237875.258   -28349261.77549 -22080320.35148  20237874.681    20237879.035
  22238907.627   -12507840.31149  -9734549.76747  22238907.465    22238912.317
  23712323.197    -6574870.91449  -5105026.88745  23712323.080    23712328.484
  20650180.281   -25349477.46049 -19736851.80548  20650179.978    20650182.973
 03  2 28  2 21 30.0000000  0  8G23G31G14G17G15G 3G 9G18
  22105574.685   -12989819.42049 -10099807.85847  22105574.289    22105578.805
  24105539.896    -2636175.27949  -2030378.36645  24105539.493    24105544.695
  22242505.849   -14367806.14149 -11181779.25146  22242505.484    22242509.924
  21227087.346   -25460561.20349 -19572254.28347  21227086.894    21227091.691
  20236397.182   -28357028.91049 -22086372.63948  20236396.624    20236400.981
  22230693.659   -12551005.09249  -9768184.63047  22230693.501    22230698.288
  23702513.376    -6626420.67449  -5145195.43245  23702513.282    23702518.735
  20654698.485   -25325734.19149 -19718350.53348  20654698.180    20654701.165
 03  2 28  2 22  0.0000000  0  8G23G31G14G17G15G 3G 9G18
  22116284.563   -12933538.48349 -10055952.56947  22116284.175    22116288.718
  24089603.194    -2719922.47949  -2095635.87745  24089602.745    24089607.941
  22224321.526   -14463364.82349 -11256240.47746  22224321.232    22224325.658
  21234603.974   -25421060.96449 -19541474.87447  21234603.520    21234608.313
  20234984.759   -28364451.16549 -22092156.19848  20234984.202    20234988.515
  22222577.660   -12593654.57749  -9801417.96847  22222577.550    22222582.294
  23692776.954    -6677585.11349  -5185063.73845  23692776.912    23692782.299
  20659262.816   -25301748.29749 -19699660.21448  20659262.520    20659265.501
 03  2 28  2 22 30.0000000  0  8G23G31G14G17G15G 3G 9G18
  22127008.061   -12877186.13949 -10012041.63747  22127007.671    22127012.225
  24073733.595    -2803317.11149  -2160618.50845  24073733.191    24073738.388
  22206195.779   -14558616.14049 -11330462.18446  22206195.441    22206199.853
  21242183.938   -25381227.97649 -19510436.16747  21242183.492    21242188.291
  20233638.131   -28371527.61049 -22097670.28748  20233637.564    20233641.878
  22214559.976   -12635787.86949  -9834249.07447  22214559.880    22214564.555
  23683114.381    -6728361.40649  -5224629.59545  23683114.301    23683119.705
  20663873.050   -25277521.17049 -19680781.91248  20663872.759    20663875.724
 03  2 28  2 23  0.0000000  0  8G23G31G14G17G15G 3G 9G18
  22137744.576   -12820765.10949  -9968077.17947  22137744.179    22137748.719
  24057931.395    -2886358.27649  -2225325.94745  24057931.031    24057936.142
  22188128.645   -14653559.35949 -11404443.81447  22188128.278    22188132.670
  21249827.035   -25341063.25549 -19479138.96947  21249826.561    21249831.402
  20232357.281   -28378258.64449 -22102915.22548  20232356.711    20232360.987
  22206640.430   -12677405.28849  -9866678.20247  22206640.353    22206644.943
  23673525.938    -6778748.53249  -5263892.20245  23673525.749    23673531.161
  20668528.651   -25253055.79049 -19661717.95848  20668528.366    20668531.337
 03  2 28  2 23 30.0000000  0  8G23G31G14G17G15G 3G 9G18
  22148494.630   -12764273.02849  -9924057.35347  22148494.246    22148498.728
  24042197.483    -2969040.26949  -2289753.32845  24042197.142    24042202.152
  22170121.197   -14748188.89449 -11478181.02047  22170120.835    22170125.182
  21257533.854   -25300563.28849 -19447580.54047  21257533.416    21257538.227
  20231142.973   -28384639.70349 -22107887.45848  20231142.422    20231146.657
  22198819.964   -12718502.05049  -9898701.62047  22198819.867    22198824.464
  23664012.740    -6828740.54349  -5302846.92245  23664012.625    23664017.874
  20673230.021   -25228349.84849 -19642466.55748  20673229.731    20673232.700
 03  2 28  2 24  0.0000000  0  8G23G31G14G17G15G 3G 9G18
  22159258.005   -12707711.27449  -9879983.23747  22159257.595    22159262.071
  24026532.338    -3051360.94749  -2353899.30345  24026531.908    24026537.014
  22152173.823   -14842502.70149 -11551672.20647  22152173.479    22152177.774
  21265304.538   -25259728.23349 -19415761.00247  21265304.076    21265308.869
  20229995.426   -28390670.02149 -22112586.38348  20229994.856    20229999.120
  22191098.708   -12759077.24749  -9930318.63047  22191098.602    22191103.220
  23654575.152    -6878334.81549  -5341491.70045  23654574.929    23654580.409
  20677976.872   -25203405.04749 -19623029.02648  20677976.565    20677979.524
 03  2 28  2 24 30.0000000  0  8G23G31G14G17G15G 3G 9G18
  22170034.190   -12651081.77049  -9835856.33847  22170033.795    22170038.300
  24010936.174    -3133318.80649  -2417762.50145  24010935.885    24010940.817
  22134286.834   -14936499.14349 -11624916.09547  22134286.482    22134290.746
  21273138.933   -25218557.95649 -19383680.25947  21273138.473    21273143.313
  20228914.705   -28396349.15549 -22117011.66748  20228914.164    20228918.407
  22183476.867   -12799130.45849  -9961528.89847  22183476.719    22183481.309
  23645213.732    -6927529.22449  -5379824.91745  23645213.569    23645218.975
  20682768.782   -25178223.35149 -19603406.91148  20682768.477    20682771.423
 03  2 28  2 25  0.0000000  0  8G23G31G14G17G15G 3G 9G18
  22180822.404   -12594389.47449  -9791680.49847  22180822.016    22180826.476
  23995408.772    -3214915.32549  -2481344.13945  23995408.385    23995413.379
  22116459.894   -15030179.90349 -11697914.00647  22116459.564    22116463.780
  21281036.414   -25177056.09149 -19351341.13247  21281035.956    21281040.819
  20227900.309   -28401679.90349 -22121165.47248  20227899.736    20227903.994
  22175953.845   -12838664.33249  -9992334.49047  22175953.687    22175958.233
  23635928.176    -6976325.12349  -5417847.58445  23635927.988    23635933.484
  20687604.773   -25152809.97649 -19583604.25848  20687604.449    20687607.397
 03  2 28  2 25 30.0000000  0  8G23G31G14G17G15G 3G 9G18
  22191623.904   -12537627.15749  -9747450.10547  22191623.509    22191627.970
  23979952.363    -3296139.71149  -2544635.81145  23979952.005    23979956.998
  22098695.060   -15123534.31449 -11770657.62447  22098694.712    22098698.907
  21288998.727   -25135214.00749 -19318736.90247  21288998.283    21289003.130
  20226953.946   -28406652.90149 -22125040.51448  20226953.392    20226957.654
  22168531.437   -12877669.17549 -10022727.84747  22168531.285    22168535.813
  23626720.530    -7024711.35349  -5455551.06545  23626720.492    23626725.813
  20692486.235   -25127157.67849 -19563615.43248  20692485.910    20692488.850
 03  2 28  2 26  0.0000000  0  8G23G31G14G17G15G 3G 9G18
  22202436.773   -12480804.97949  -9703173.07047  22202436.373    22202440.866
  23964565.276    -3376998.88749  -2607642.98345  23964564.828    23964569.842
  22080991.006   -15216569.16549 -11843152.24247  22080990.678    22080994.853
  21297024.072   -25093040.47449 -19285874.39247  21297023.608    21297028.447
  20226074.111   -28411276.42549 -22128643.23348  20226073.551    20226077.809
  22161208.162   -12916153.22849 -10052715.39247  22161207.985    22161212.523
  23617589.539    -7072694.47749  -5492940.41845  23617589.483    23617594.862
  20697411.126   -25101276.89749 -19543448.57048  20697410.821    20697413.761
 03  2 28  2 26 30.0000000  0  8G23G31G14G17G15G 3G 9G18
  22213262.681   -12423914.72949  -9658842.98347  22213262.278    22213266.733
  23949249.943    -3457481.18449  -2670356.37545  23949249.420    23949254.500
  22063350.001   -15309273.08549 -11915388.98547  22063349.661    22063353.805
  21305114.270   -25050526.05749 -19252746.26347  21305113.817    21305118.663
  20225262.784   -28415539.94549 -22131965.43548  20225262.212    20225266.450
  22153985.935   -12954106.22849 -10082289.13147  22153985.745    22153990.303
  23608537.658    -7120262.46349  -5530006.30745  23608537.660    23608542.932
  20702381.115   -25075159.43849 -19523097.28148  20702380.800    20702383.779
 03  2 28  2 27  0.0000000  0  8G23G31G14G17G15G 3G 9G18
  22224100.176   -12366963.34949  -9614465.27447  22224099.746    22224104.192
  23934005.621    -3537590.12649  -2732778.85245  23934005.194    23934010.467
  22045771.252   -15401649.61949 -11987370.62947  22045770.930    22045775.050
  21313268.344   -25007675.93049 -19219356.54547  21313267.872    21313272.783
  20224519.033   -28419448.32349 -22135010.90248  20224518.457    20224522.672
  22146863.860   -12991532.86049 -10111452.71647  22146863.685    22146868.231
  23599564.130    -7167418.60749  -5566751.28445  23599564.132    23599569.368
  20707394.704   -25048812.57449 -19502567.23948  20707394.389    20707397.380
 03  2 28  2 27 30.0000000  0  8G23G31G14G17G15G 3G 9G18
  22234949.436   -12309950.00349  -9570039.26747  22234949.055    22234953.432
  23918833.075    -3617321.55149  -2794907.14545  23918832.698    23918837.799
  22028255.604   -15493694.75349 -12059094.04347  22028255.266    22028259.375
  21321486.664   -24964488.36749 -19185703.89247  21321486.202    21321491.113
  20223843.427   -28422998.58649 -22137777.32548  20223842.855    20223847.087
  22139842.549   -13028430.05349 -10140203.75747  22139842.396    22139846.874
  23590669.806    -7214158.34149  -5603171.78545  23590669.799    23590674.940
  20712452.095   -25022235.65749 -19481857.93448  20712451.798    20712454.799
 03  2 28  2 28  0.0000000  0  8G23G31G14G17G15G 3G 9G18
  22245810.308   -12252875.67549  -9525565.74847  22245809.906    22245814.306
  23903732.943    -3696673.05349  -2856739.55545  23903732.531    23903737.596
  22010803.404   -15585406.39949 -12130557.59147  22010803.068    22010807.197
  21329769.295   -24920962.86649 -19151787.91147  21329768.828    21329773.721
  20223236.163   -28426189.68549 -22140263.87848  20223235.615    20223239.813
  22132922.143   -13064796.91149 -10168541.54147  22132921.987    22132926.442
  23581855.142    -7260479.08049  -5639265.79345  23581855.192    23581860.332
  20717553.083   -24995429.82049 -19460970.24648  20717552.777    20717555.772
 03  2 28  2 28 30.0000000  0  8G23G31G14G17G15G 3G 9G18
  22256682.632   -12195740.88449  -9481045.11347  22256682.269    22256686.713
  23888705.430    -3775641.90649  -2918273.61145  23888705.034    23888710.423
  21993415.207   -15676781.46949 -12201758.87447  21993414.866    21993419.009
  21338116.457   -24877098.17449 -19117607.62247  21338115.990    21338120.884
  20222697.586   -28429019.90249 -22142469.22648  20222697.038    20222701.214
  22126102.947   -13100631.85349 -10196464.85047  22126102.788    22126107.245
  23573120.833    -7306377.68949  -5675030.87045  23573120.868    23573125.991
  20722697.423   -24968395.98949 -19439904.90348  20722697.115    20722700.108
 03  2 28  2 29  0.0000000  0  8G23G31G14G17G15G 3G 9G18
  22267566.021   -12138548.16149  -9436479.33647  22267565.655    22267570.111
  23873751.081    -3854227.27549  -2979508.88745  23873750.807    23873756.093
  21976091.205   -15767819.36949 -12272697.42647  21976090.879    21976095.021
  21346528.026   -24832895.23049 -19083163.76447  21346527.537    21346532.434
  20222227.618   -28431489.56349 -22144393.61748  20222227.054    20222231.240
  22119384.938   -13135935.28049 -10223973.98947  22119384.739    22119389.187
  23564466.971    -7351852.88549  -5710465.98445  23564466.999    23564472.292
  20727884.632   -24941136.69749 -19418663.87248  20727884.354    20727887.354
 03  2 28  2 29 30.0000000  0  8G23G31G14G17G15G 3G 9G18
  22278460.851   -12081295.46449  -9391866.82847  22278460.463    22278464.948
  23858870.860    -3932423.86349  -3040441.24845  23858870.538    23858875.677
  21958832.327   -15858515.00749 -12343369.28647  21958832.017    21958836.145
  21355004.331   -24788351.90749 -19048454.68047  21355003.839    21355008.751
  20221827.019   -28433594.71949 -22146033.98548  20221826.461    20221830.632
  22112768.696   -13170703.21249 -10251065.85647  22112768.559    22112773.011
  23555894.883    -7396899.27749  -5745566.96245  23555894.884    23555900.254
  20733115.173   -24913650.11349 -19397245.73348  20733114.883    20733117.852
 03  2 28  2 30  0.0000000  0  8G23G31G14G17G15G 3G 9G18
  22289366.371   -12023986.57849  -9347210.52847  22289366.003    22289370.437
  23844064.531    -4010232.05849  -3101070.93145  23844064.148    23844069.318
  21941638.571   -15948868.71749 -12413774.70347  21941638.240    21941642.366
  21363545.105   -24743469.72749 -19013481.55047  21363544.626    21363549.559
  20221495.487   -28435336.91149 -22147391.52048  20221494.920    20221499.104
  22106254.162   -13204937.18549 -10277741.65447  22106254.029    22106258.445
  23547404.382    -7441516.91749  -5780333.86445  23547404.411    23547409.746
  20738388.151   -24885940.38049 -19375653.71048  20738387.873    20738390.828
 03  2 28  2 30 30.0000000  0  8G23G31G14G17G15G 3G 9G18
  22300282.425   -11966622.31149  -9302511.08547  22300282.046    22300286.455
  23829332.458    -4087649.50049  -3161396.15445  23829332.067    23829337.171
  21924510.276   -16038878.21649 -12483911.91447  21924509.958    21924514.052
  21372150.389   -24698248.67749 -18978244.36547  21372149.918    21372154.844
  20221233.257   -28436714.95449 -22148465.30248  20221232.672    20221236.846
  22099841.484   -13238636.17149 -10304000.58947  22099841.318    22099845.743
  23538995.965    -7485703.27149  -5814764.70545  23538995.972    23539001.368
  20743703.443   -24858008.38249 -19353888.49348  20743703.133    20743706.078
 03  2 28  2 31  0.0000000  0  8G23G31G14G17G15G 3G 9G18
  22311209.103   -11909202.08849  -9257768.03447  22311208.741    22311213.090
  23814675.523    -4164672.37549  -3221413.96245  23814675.143    23814680.153
  21907448.136   -16128540.19649 -12553778.32747  21907447.810    21907451.854
  21380820.479   -24652687.12349 -18942741.85147  21380819.976    21380824.865
  20221040.801   -28437726.29649 -22149253.34148  20221040.225    20221044.398
  22093531.021   -13271797.87349 -10329840.85247  22093530.857    22093535.268
  23530670.528    -7529454.18949  -5848856.25746  23530670.506    23530675.797
  20749061.042   -24829853.95249 -19331949.95648  20749060.734    20749063.666
 03  2 28  2 31 30.0000000  0  8G23G31G14G17G15G 3G 9G18
  22322146.301   -11851726.59549  -9212981.91147  22322145.920    22322150.221
  23800093.908    -4241298.28749  -3281122.33445  23800093.618    23800098.778
  21890452.636   -16217851.86649 -12623371.77447  21890452.326    21890456.325
  21389555.512   -24606784.29549 -18906973.41547  21389555.049    21389559.852
  20220918.314   -28438369.88949 -22149754.82448  20220917.740    20220921.931
  22087323.033   -13304421.12849 -10355261.54447  22087322.854    22087327.280
  23522428.405    -7572766.72649  -5882606.20346  23522428.332    23522433.615
  20754460.787   -24801477.83949 -19309838.67848  20754460.486    20754463.430
 03  2 28  2 32  0.0000000  0  8G23G31G14G17G15G 3G 9G18
  22333093.953   -11794196.50049  -9168153.24847  22333093.561    22333097.849
  23785588.573    -4317524.59249  -3340519.42545  23785588.340    23785593.409
  21873524.240   -16306810.84949 -12692690.39447  21873523.925    21873527.896
  21398355.618   -24560539.52349 -18870938.52347  21398355.147    21398359.910
  20220866.079   -28438644.20149 -22149968.55648  20220865.506    20220869.712
  22081217.677   -13336504.87949 -10380261.84447  22081217.491    22081221.948
  23514270.180    -7615638.05949  -5916012.35645  23514270.159    23514275.370
  20759902.561   -24772881.12349 -19287555.50248  20759902.259    20759905.189
 03  2 28  2 32 30.0000000  0  8G23G31G14G17G15G 3G 9G18
  22344050.774   -11736618.02949  -9123286.88747  22344050.396    22344054.640
  23771158.635    -4393354.10449  -3399607.26346  23771158.369    23771163.441
  21856662.439   -16395419.97449 -12761736.40047  21856662.088    21856666.121
  21407219.793   -24513957.99549 -18834641.22747  21407219.291    21407224.117
  20220883.373   -28438553.26249 -22149897.67448  20220882.804    20220887.000
  22075214.263   -13368053.05849 -10404844.82147  22075214.037    22075218.498
  23506195.379    -7658070.97349  -5949076.90845  23506195.479    23506200.447
  20765385.123   -24744069.93149 -19265105.19648  20765384.813    20765387.733
 03  2 28  2 33  0.0000000  0  8G23G31G14G17G15G 3G 9G18
  22355018.549   -11678982.08949  -9078375.74547  22355018.163    22355022.419
  23756806.546    -4468774.76949  -3458376.55946  23756806.255    23756811.395
  21839869.435   -16483667.46749 -12830500.61147  21839869.073    21839873.138
  21416150.002   -24467029.37849 -18798073.48247  21416149.548    21416154.396
  20220972.216   -28438086.34349 -22149533.82548  20220971.653    20220975.822
  22069314.715   -13399055.15749 -10429002.27447  22069314.482    22069318.933
  23498206.427    -7700053.13949  -5981790.22345  23498206.480    23498211.230
  20770910.142   -24715035.78049 -19242481.16148  20770909.838    20770912.729
 03  2 28  2 33 30.0000000  0  8G23G31G14G17G15G 3G 9G18
  22365995.658   -11621296.72049  -9033426.09847  22365995.264    22365999.648
  23742531.281    -4543791.59349  -3516831.16946  23742530.988    23742535.983
  21823144.318   -16571558.32749 -12898986.92647  21823143.942    21823148.012
  21425144.971   -24419760.56349 -18761240.63547  21425144.501    21425149.345
  20221131.460   -28437249.45549 -22148881.68348  20221130.892    20221135.066
  22063517.774   -13429517.64649 -10452739.25247  22063517.645    22063522.062
  23490302.221    -7741589.31349  -6014155.99145  23490302.312    23490307.058
  20776475.965   -24685786.95549 -19219689.84648  20776475.685    20776478.541
 03  2 28  2 34  0.0000000  0  8G23G31G14G17G15G 3G 9G18
  22376982.570   -11563560.03749  -8988436.46447  22376982.188    22376986.530
  23728333.974    -4618399.35849  -3574967.01746  23728333.577    23728338.584
  21806487.976   -16659087.48849 -12967191.40547  21806487.633    21806491.685
  21434205.297   -24372148.31149 -18724140.18647  21434204.829    21434209.664
  20221361.819   -28436038.78949 -22147938.29448  20221361.243    20221365.418
  22057824.377   -13459436.50849 -10476052.63547  22057824.266    22057828.631
  23482483.907    -7782674.03549  -6046169.98345  23482484.174    23482488.842
  20782083.000   -24656321.82649 -19196729.99148  20782082.724    20782085.575
 03  2 28  2 34 30.0000000  0  8G23G31G14G17G15G 3G 9G18
  22387978.652   -11505775.38149  -8943409.43247  22387978.235    22387982.513
  23714214.498    -4692598.11949  -3632784.18546  23714214.081    23714219.035
  21789900.418   -16746255.13049 -13035114.17547  21789900.116    21789904.145
  21443330.512   -24324195.11249 -18686774.05747  21443330.022    21443334.802
  20221663.087   -28434455.53349 -22146704.56548  20221662.514    20221666.699
  22052234.294   -13488813.11049 -10498943.46447  22052234.076    22052238.470
  23474751.756    -7823307.02849  -6077831.97145  23474751.869    23474756.557
  20787730.586   -24626643.55349 -19173604.04348  20787730.284    20787733.143
 03  2 28  2 35  0.0000000  0  8G23G31G14G17G15G 3G 9G18
  22398984.116   -11447941.09549  -8898343.73647  22398983.736    22398988.014
  23700173.637    -4766383.31649  -3690279.12346  23700173.242    23700178.048
  21773382.668   -16833056.59249 -13102751.61247  21773382.351    21773386.314
  21452521.076   -24275898.21049 -18649140.10947  21452520.599    21452525.383
  20222035.944   -28432496.21849 -22145177.80448  20222035.366    20222039.539
  22046747.861   -13517644.34249 -10521409.33047  22046747.634    22046752.023
  23467106.449    -7863483.39349  -6109138.15145  23467106.431    23467111.135
  20793418.925   -24596751.03249 -19150311.14848  20793418.626    20793421.473
 03  2 28  2 35 30.0000000  0  8G23G31G14G17G15G 3G 9G18
  22409997.931   -11390062.95749  -8853243.87747  22409997.522    22410001.891
  23686210.918    -4839757.66349  -3747453.83746  23686210.519    23686215.344
  21756933.939   -16919494.80149 -13170105.99847  21756933.629    21756937.591
  21461776.175   -24227262.09649 -18611241.84747  21461775.712    21461780.534
  20222479.602   -28430164.57349 -22143360.92448  20222479.029    20222483.197
  22041364.373   -13545934.33749 -10543453.46347  22041364.201    22041368.634
  23459547.621    -7903205.63149  -6140090.47245  23459547.563    23459552.197
  20799146.932   -24566650.09549 -19126855.86348  20799146.640    20799149.451
 03  2 28  2 36  0.0000000  0  8G23G31G14G17G15G 3G 9G18
  22421021.769   -11332131.91049  -8808102.79447  22421021.370    22421025.810
  23672328.730    -4912709.01649  -3804299.03046  23672328.279    23672332.976
  21740556.677   -17005557.79249 -13237168.00447  21740556.366    21740560.289
  21471097.687   -24178277.01549 -18573071.66047  21471097.229    21471102.078
  20222996.211   -28427449.90849 -22141245.58048  20222995.631    20222999.784
  22036085.919   -13573672.67949 -10565067.73047  22036085.755    22036090.176
  23452077.452    -7942461.42249  -6170679.32645  23452077.415    23452082.025
  20804916.196   -24536332.26449 -19103231.55848  20804915.886    20804918.701
 03  2 28  2 36 30.0000000  0  8G23G31G14G17G15G 3G 9G18
  22432053.948   -11274157.42749  -8762927.85947  22432053.582    22432058.004
  23658525.667    -4985243.84549  -3860819.60046  23658525.393    23658530.187
  21724249.551   -17091252.00749 -13303942.65647  21724249.235    21724253.131
  21480484.076   -24128951.19149 -18534635.96047  21480483.621    21480488.429
  20223584.189   -28424359.89649 -22138837.76548  20223583.624    20223587.792
  22030911.002   -13600867.06549 -10586258.14547  22030910.858    22030915.218
  23444694.740    -7981257.14849  -6200909.68045  23444694.756    23444699.280
  20810724.911   -24505807.19349 -19079445.77448  20810724.615    20810727.447
 03  2 28  2 37  0.0000000  0  8G23G31G14G17G15G 3G 9G18
  22443095.406   -11216134.25649  -8717714.97947  22443095.019    22443099.408
  23644803.492    -5057353.94249  -3917009.21945  23644803.214    23644807.961
  21708014.197   -17176569.27249 -13370423.57447  21708013.885    21708017.748
  21489936.609   -24079278.11449 -18495929.67347  21489936.137    21489940.900
  20224244.999   -28420887.18149 -22136131.73048  20224244.427    20224248.589
  22025840.763   -13627510.83549 -10607019.49547  22025840.638    22025845.051
  23437401.195    -8019584.08349  -6230774.73245  23437401.265    23437405.712
  20816574.048   -24475069.80849 -19055494.55148  20816573.746    20816576.566
 03  2 28  2 37 30.0000000  0  8G23G31G14G17G15G 3G 9G18
  22454144.560   -11158070.59249  -8672470.55347  22454144.199    22454148.493
  23631161.279    -5129044.32349  -3972871.83945  23631160.977    23631165.645
  21691849.498   -17261514.99149 -13436614.97947  21691849.205    21691853.042
  21499453.788   -24029265.04049 -18456958.44747  21499453.308    21499458.076
  20224977.404   -28417038.17049 -22133132.48148  20224976.840    20224980.993
  22020874.172   -13653610.67649 -10627357.01047  22020874.006    22020878.430
  23430195.881    -8057447.54149  -6260278.65145  23430196.003    23430200.293
  20822461.899   -24444128.86049 -19031384.70348  20822461.600    20822464.397
 03  2 28  2 38  0.0000000  0  8G23G31G14G17G15G 3G 9G18
  22465202.551   -11099960.63449  -8627190.04547  22465202.164    22465206.390
  23617600.472    -5200306.36749  -4028400.67645  23617600.335    23617604.902
  21675757.178   -17346080.55349 -13502510.16047  21675756.846    21675760.691
  21509036.883   -23978905.52949 -18417717.27547  21509036.444    21509041.212
  20225782.862   -28412805.44849 -22129834.23948  20225782.292    20225786.442
  22016012.425   -13679159.08749 -10647264.83847  22016012.272    22016016.713
  23423080.593    -8094838.38549  -6289414.29945  23423080.699    23423084.982
  20828389.548   -24412978.73749 -19007111.86348  20828389.246    20828392.016
 03  2 28  2 38 30.0000000  0  8G23G31G14G17G15G 3G 9G18
  22476268.749   -11041807.19949  -8581875.66347  22476268.383    22476272.648
  23604121.306    -5271139.89749  -4083595.58345  23604121.087    23604125.506
  21659737.235   -17430265.78849 -13568108.98347  21659736.896    21659740.695
  21518685.563   -23928201.60549 -18378207.73147  21518685.114    21518689.848
  20226661.168   -28408189.80349 -22126237.61248  20226660.604    20226664.766
  22011255.351   -13704157.47849 -10666744.08347  22011255.215    22011259.674
  23416055.477    -8131756.28249  -6318181.42345  23416055.362    23416059.741
  20834356.411   -24381622.54749 -18982678.45148  20834356.135    20834358.891
 03  2 28  2 39  0.0000000  0  8G23G31G14G17G15G 3G 9G18
  22487342.956   -10983611.63549  -8536528.44947  22487342.567    22487346.895
  23590723.909    -5341543.27449  -4138455.28045  23590723.662    23590728.243
  21643789.936   -17514069.09349 -13633410.19547  21643789.606    21643793.407
  21528399.725   -23877153.21649 -18338429.77047  21528399.289    21528404.054
  20227612.447   -28403190.76049 -22122342.23048  20227611.896    20227616.072
  22006603.028   -13728605.68949 -10685794.61147  22006602.846    22006607.316
  23409120.674    -8168199.38749  -6346578.55545  23409120.414    23409124.816
  20840362.202   -24350061.81949 -18958085.65548  20840361.898    20840364.661
 03  2 28  2 39 30.0000000  0  8G23G31G14G17G15G 3G 9G18
  22498425.191   -10925373.76949  -8491148.28047  22498424.815    22498429.132
  23577409.102    -5411513.27749  -4192977.37845  23577408.838    23577413.316
  21627915.844   -17597487.48049 -13698411.47647  21627915.546    21627919.344
  21538179.661   -23825759.29449 -18298382.56947  21538179.209    21538184.004
  20228637.067   -28397806.45849 -22118146.65548  20228636.486    20228640.654
  22002055.661   -13752502.14549 -10704415.20447  22002055.474    22002059.944
  23402276.678    -8204164.34549  -6374603.13645  23402276.401    23402280.962
  20846406.943   -24318296.46349 -18933333.41748  20846406.643    20846409.396
 03  2 28  2 40  0.0000000  0  8G23G31G14G17G15G 3G 9G18
  22509515.400   -10867094.16449  -8445735.58047  22509515.017    22509519.341
  23564176.965    -5481047.95649  -4247160.14845  23564176.571    23564181.110
  21612115.449   -17680518.95749 -13763111.26347  21612115.144    21612118.941
  21548025.382   -23774019.56349 -18258065.89447  21548024.933    21548029.786
  20229735.086   -28392036.10549 -22113650.26148  20229734.516    20229738.679
  21997613.429   -13775846.42549 -10722605.52147  21997613.219    21997617.660
  23395524.361    -8239649.03349  -6402253.48746  23395523.916    23395528.471
  20852490.367   -24286327.65949 -18908422.63748  20852490.082    20852492.854
 03  2 28  2 40 30.0000000  0  8G23G31G14G17G15G 3G 9G18
  22520613.050   -10808775.76249  -8400292.65647  22520612.684    22520616.940
  23551027.677    -5550147.06049  -4301003.61345  23551027.393    23551031.880
  21596388.645   -17763163.61249 -13827509.63747  21596388.332    21596392.140
  21557936.588   -23721935.78049 -18217481.14047  21557936.111    21557941.035
  20230906.379   -28385880.76549 -22108853.87548  20230905.805    20230909.978
  21993275.939   -13798639.99749 -10740366.72547  21993275.732    21993280.159
  23388863.209    -8274653.20649  -6429529.39346  23388862.878    23388867.359
  20858611.880   -24254158.75049 -18883355.94048  20858611.584    20858614.362
 03  2 28  2 41  0.0000000  0  8G23G31G14G17G15G 3G 9G18
  22531718.476   -10750416.41549  -8354817.82247  22531718.096    22531722.353
  23537962.168    -5618805.97449  -4354503.95145  23537961.828    23537966.610
  21580736.411   -17845416.54349 -13891602.77147  21580736.087    21580739.903
  21567913.774   -23669505.11849 -18176626.08447  21567913.315    21567918.255
  20232151.671   -28379336.67849 -22103754.57248  20232151.093    20232155.277
  21989043.869   -13820879.31449 -10757696.03647  21989043.692    21989048.151
  23382294.129    -8309171.78149  -6456426.92546  23382294.085    23382298.636
  20864771.792   -24221788.02349 -18858131.97448  20864771.479    20864774.250
 03  2 28  2 41 30.0000000  0  8G23G31G14G17G15G 3G 9G18
  22542831.399   -10692017.58049  -8309312.22147  22542831.053    22542835.267
  23524980.864    -5687022.95249  -4407660.01145  23524980.494    23524985.014
  21565158.940   -17927276.36749 -13955389.58947  21565158.622    21565162.453
  21577956.840   -23616728.46649 -18135501.43547  21577956.372    21577961.278
  20233471.045   -28372403.29749 -22098351.92348  20233470.460    20233474.647
  21984917.304   -13842564.58249 -10774593.62447  21984917.079    21984921.536
  23375818.307    -8343202.92449  -6482944.63546  23375818.108    23375822.737
  20870969.842   -24189216.91349 -18832751.86848  20870969.549    20870972.333
 03  2 28  2 42  0.0000000  0  8G23G31G14G17G15G 3G 9G18
  22553951.494   -10633580.95449  -8263777.16847  22553951.125    22553955.336
  23512083.855    -5754796.76249  -4460470.71545  23512083.594    23512088.072
  21549656.454   -18008742.11549 -14018869.33047  21549656.164    21549659.947
  21588065.657   -23563606.30149 -18094107.54547  21588065.203    21588070.073
  20234864.523   -28365080.34249 -22092645.70648  20234863.945    20234868.118
  21980896.094   -13863696.02049 -10791059.65347  21980895.882    21980900.335
  23369435.320    -8376745.50849  -6509081.67246  23369435.147    23369439.752
  20877205.675   -24156447.31749 -18807217.09648  20877205.381    20877208.144
 03  2 28  2 42 30.0000000  0  8G23G31G14G17G15G 3G 9G18
  22565078.666   -10575107.05749  -8218213.08147  22565078.321    22565082.548
  23499271.601    -5822125.38649  -4512934.52645  23499271.363    23499275.818
  21534229.427   -18089811.68449 -14082040.36347  21534229.094    21534232.843
  21598240.303   -23510138.22149 -18052444.11647  21598239.840    21598244.684
  20236332.315   -28357366.94349 -22086635.24948  20236331.739    20236335.917
  21976980.229   -13884273.27649 -10807093.86247  21976980.133    21976984.573
  23363145.629    -8409797.23349  -6534836.20646  23363145.521    23363150.136
  20883479.107   -24123480.36149 -18781528.53848  20883478.808    20883481.550
 03  2 28  2 43  0.0000000  0  8G23G31G14G17G15G 3G 9G18
  22576213.054   -10516595.43449  -8172619.58847  22576212.713    22576216.927
  23486544.675    -5889005.52949  -4565048.90645  23486544.534    23486548.858
  21518878.294   -18170482.07249 -14144900.34647  21518877.971    21518881.688
  21608480.859   -23456323.60449 -18010510.66047  21608480.390    21608485.270
  20237874.766   -28349261.20049 -22080319.07148  20237874.191    20237878.368
  21973170.301   -13904294.58549 -10822694.86047  21973170.171    21973174.612
  23356950.096    -8442354.68449  -6560205.58846  23356950.020    23356954.539
  20889790.081   -24090316.09649 -18755686.23448  20889789.760    20889792.462
 03  2 28  2 43 30.0000000  0  8G23G31G14G17G15G 3G 9G18
  22587354.112   -10458048.32149  -8126998.45146  22587353.761    22587358.071
  23473903.125    -5955436.90949  -4616813.53645  23473903.024    23473907.482
  21503603.175   -18250752.86649 -14207448.95547  21503602.866    21503606.582
  21618787.148   -23402163.75849 -17968308.18947  21618786.715    21618791.600
  20239491.837   -28340763.54049 -22073697.50148  20239491.262    20239495.431
  21969465.900   -13923761.27949 -10837863.69147  21969465.766    21969470.180
  23350848.710    -8474417.35249  -6585189.41946  23350848.723    23350853.100
  20896138.074   -24056956.85649 -18729691.99848  20896137.775    20896140.496
 03  2 28  2 44  0.0000000  0  8G23G31G14G17G15G 3G 9G18
  22598502.101   -10399465.00049  -8081349.10046  22598501.743    22598506.124
  23461347.733    -6021415.91749  -4668225.67745  23461347.597    23461352.183
  21488404.797   -18330620.52649 -14269683.43447  21488404.487    21488408.194
  21629159.466   -23347657.10049 -17925835.48047  21629159.005    21629163.914
  20241183.879   -28331871.76549 -22066768.83048  20241183.300    20241187.471
  21965867.526   -13942671.38249 -10852598.81347  21965867.306    21965871.683
  23344842.151    -8505981.67649  -6609784.94445  23344842.113    23344846.488
  20902523.294   -24023402.30149 -18703545.57448  20902522.974    20902525.700
 03  2 28  2 44 30.0000000  0  8G23G31G14G17G15G 3G 9G18
  22609656.678   -10340847.54149  -8035673.14446  22609656.340    22609660.614
  23448878.703    -6086941.74749  -4719284.75345  23448878.499    23448883.029
  21473283.267   -18410084.42249 -14331603.29847  21473282.956    21473286.651
  21639597.512   -23292804.94049 -17883093.54647  21639597.049    21639601.948
  20242950.760   -28322586.43049 -22059533.48748  20242950.197    20242954.385
  21962374.797   -13961025.89749 -10866901.01747  21962374.565    21962378.912
  23338930.754    -8537046.70949  -6633991.42845  23338930.635    23338934.926
  20908945.201   -23989654.80449 -18677248.80548  20908944.899    20908947.618
 03  2 28  2 45  0.0000000  0  8G23G31G14G17G15G 3G 9G18
  22620818.115   -10282193.96049  -7989969.04146  22620817.774    22620822.017
  23436496.572    -6152010.06949  -4769987.29945  23436496.291    23436500.866
  21458239.432   -18489140.30249 -14393205.22547  21458239.100    21458242.771
  21650101.796   -23237604.62949 -17840080.32547  21650101.337    21650106.191
  20244793.270   -28312904.02449 -22051988.73948  20244792.702    20244796.880
  21958988.337   -13978821.72049 -10880767.87547  21958988.139    21958992.460
  23333115.042    -8567607.85449  -6657805.25345  23333114.981    23333119.152
  20915404.112   -23955712.88349 -18650800.53748  20915403.807    20915406.528
 03  2 28  2 45 30.0000000  0  8G23G31G14G17G15G 3G 9G18
  22631985.253   -10223510.29449  -7944241.49046  22631984.893    22631989.127
  23424200.910    -6216624.07649  -4820335.80746  23424200.663    23424205.261
  21443272.563   -18567791.37849 -14454491.71547  21443272.252    21443275.935
  21660671.248   -23182061.46949 -17796799.95447  21660670.820    21660675.691
  20246710.484   -28302828.82549 -22044137.91948  20246709.914    20246714.071
  21955707.312   -13996063.76549 -10894203.21547  21955707.060    21955711.378
  23327394.707    -8597668.36449  -6681228.96046  23327394.601    23327398.776
  20921898.862   -23921582.60949 -18624205.50248  20921898.571    20921901.282
 03  2 28  2 46  0.0000000  0  8G23G31G14G17G15G 3G 9G18
  22643159.235   -10164790.61149  -7898485.87346  22643158.858    22643163.125
  23411993.256    -6280775.18149  -4870323.60746  23411993.033    23411997.704
  21428384.282   -18646029.42049 -14515456.36147  21428383.999    21428387.658
  21671307.277   -23126168.82549 -17753247.25447  21671306.827    21671311.692
  20248703.957   -28292353.01249 -22035974.92648  20248703.384    20248707.519
  21952533.005   -14012745.40649 -10907201.87347  21952532.618    21952536.958
  23321771.213    -8627219.71949  -6704255.93246  23321771.144    23321775.311
  20928430.517   -23887258.54149 -18597459.45548  20928430.219    20928432.953
 03  2 28  2 46 30.0000000  0  8G23G31G14G17G15G 3G 9G18
  22654339.113   -10106039.48149  -7852705.78046  22654338.788    22654343.100
  23399873.420    -6344465.46849  -4919952.37746  23399873.155    23399877.741
  21413574.229   -18723856.45549 -14576100.75347  21413573.951    21413577.590
  21682009.053   -23069930.69949 -17709425.35547  21682008.598    21682013.483
  20250773.016   -28281480.02649 -22027502.45548  20250772.442    20250776.554
  21949464.550   -14028870.25049 -10919766.67247  21949464.132    21949468.459
  23316244.330    -8656263.60149  -6726887.47446  23316244.240    23316248.404
  20934998.079   -23852745.60649 -18570566.25148  20934997.783    20935000.539
 03  2 28  2 47  0.0000000  0  8G23G31G14G17G15G 3G 9G18
  22665525.831   -10047253.36849  -7806898.40347  22665525.453    22665529.770
  23387842.482    -6407688.68649  -4969217.20246  23387842.235    23387846.724
  21398843.623   -18801266.26849 -14636420.02947  21398843.319    21398846.930
  21692777.377   -23013342.89449 -17665330.97747  21692776.933    21692781.794
  20252918.559   -28270204.86749 -22018716.59648  20252917.997    20252922.098
  21946502.917   -14044433.73949 -10931894.04347  21946502.503    21946506.839
  23310815.226    -8684793.72849  -6749118.69446  23310815.118    23310819.220
  20941602.194   -23818040.72949 -18543523.47548  20941601.911    20941604.628
 03  2 28  2 47 30.0000000  0  8G23G31G14G17G15G 3G 9G18
  22676717.927    -9988438.37949  -7761068.53347  22676717.575    22676721.859
  23375899.626    -6470448.34949  -5018120.76446  23375899.451    23375904.036
  21384191.664   -18878262.59849 -14696417.12047  21384191.372    21384194.964
  21703611.253   -22956410.64249 -17620968.19947  21703610.803    21703615.639
  20255139.825   -28258532.00949 -22009620.85648  20255139.279    20255143.336
  21943647.014   -14059440.96749 -10943587.97847  21943646.670    21943651.035
  23305483.072    -8712813.66749  -6770952.34146  23305483.000    23305487.222
  20948241.629   -23783150.19449 -18516336.03648  20948241.334    20948244.032
 03  2 28  2 48  0.0000000  0  8G23G31G14G17G15G 3G 9G18
  22687915.764    -9929593.56449  -7715215.40646  22687915.393    22687919.633
  23364045.691    -6532741.07249  -5066660.49046  23364045.488    23364050.075
  21369619.054   -18954841.92549 -14756089.25247  21369618.771    21369622.334
  21714510.913   -22899132.50149 -17576335.88147  21714510.467    21714515.330
  20257437.256   -28246458.85349 -22000213.17148  20257436.698    20257440.746
  21940897.345   -14073890.15849 -10954847.05947  21940897.063    21940901.424
  23300248.757    -8740319.62849  -6792385.48246  23300248.763    23300253.062
  20954916.483   -23748073.56949 -18489003.57448  20954916.183    20954918.855
 03  2 28  2 48 30.0000000  0  8G23G31G14G17G15G 3G 9G18
  22699119.664    -9870716.75849  -7669337.36146  22699119.287    22699123.499
  23352281.474    -6594562.10249  -5114832.67946  23352281.293    23352285.846
  21355126.781   -19030999.53649 -14815432.79647  21355126.464    21355129.976
  21725476.882   -22841506.18849 -17531432.27747  21725476.426    21725481.282
  20259811.502   -28233982.03049 -21990490.96448  20259810.955    20259815.014
  21938254.521   -14087778.27849 -10965668.96047  21938254.223    21938258.590
  23295113.280    -8767307.25649  -6813414.75146  23295113.129    23295117.476
  20961627.085   -23712809.05449 -18461524.72348  20961626.798    20961629.483
 03  2 28  2 49  0.0000000  0  8G23G31G14G17G15G 3G 9G18
  22710328.939    -9811811.35249  -7623437.03646  22710328.547    22710332.811
  23340606.887    -6655912.37049  -5162638.04946  23340606.663    23340611.244
  21340714.446   -19106736.77849 -14874448.77147  21340714.131    21340717.600
  21736508.635   -22783533.86249 -17486259.05447  21736508.149    21736513.122
  20262262.189   -28221103.56149 -21980455.78848  20262261.648    20262265.688
  21935717.971   -14101108.01649 -10976055.75947  21935717.659    21935722.003
  23290076.068    -8793777.29149  -6834040.68046  23290076.036    23290080.344
  20968372.726   -23677360.37149 -18433902.36048  20968372.438    20968375.124
 03  2 28  2 49 30.0000000  0  8G23G31G14G17G15G 3G 9G18
  22721544.118    -9752874.75549  -7577512.40346  22721543.743    22721548.024
  23329022.891    -6716786.75149  -5210072.56346  23329022.642    23329027.150
  21326383.004   -19182048.59649 -14933133.24847  21326382.703    21326386.171
  21747606.818   -22725212.48749 -17440813.84547  21747606.365    21747611.356
  20264790.158   -28207819.13149 -21970104.26248  20264789.588    20264793.616
  21933288.307   -14113875.96249 -10986004.78347  21933287.991    21933292.339
  23285138.565    -8819724.65249  -6854259.34146  23285138.364    23285142.638
  20975153.902   -23641725.02549 -18406134.53747  20975153.593    20975156.268
 03  2 28  2 50  0.0000000  0  8G23G31G14G17G15G 3G 9G18
  22732763.894    -9693914.68149  -7531569.46546  22732763.485    22732767.777
  23317528.312    -6777190.63749  -5257140.51546  23317528.191    23317532.651
  21312131.510   -19256940.34349 -14991490.39347  21312131.209    21312134.714
  21758770.034   -22666549.83049 -17395102.69647  21758769.557    21758774.505
  20267394.089   -28194135.26049 -21959441.49048  20267393.516    20267397.574
  21930964.189   -14126089.27849 -10995521.62947  21930963.880    21930968.211
  23280299.236    -8845154.47449  -6874074.72146  23280299.134    23280303.459
  20981968.954   -23605911.45949 -18378227.84447  20981968.635    20981971.342
 03  2 28  2 50 30.0000000  0  8G23G31G14G17G15G 3G 9G18
  22743989.652    -9634922.95149  -7485601.87246  22743989.244    22743993.505
  23306125.391    -6837113.23849  -5303833.40846  23306125.325    23306129.750
  21297961.957   -19331401.39549 -15049511.93547  21297961.678    21297965.170
  21769999.831   -22607536.89649 -17349118.60847  21769999.393    21770004.211
  20270075.773   -28180042.58049 -21948460.16748  20270075.239    20270079.300
  21928747.246   -14137739.05349 -11004599.36047  21928746.994    21928751.298
  23275560.392    -8870056.04149  -6893478.46346  23275560.395    23275564.831
  20988819.417   -23569911.82749 -18350176.16547  20988819.143    20988821.827
 03  2 28  2 51  0.0000000  0  8G23G31G14G17G15G 3G 9G18
  22755220.810    -9575902.67649  -7439612.04446  22755220.379    22755224.685
  23294813.859    -6896555.50149  -5350152.01646  23294813.806    23294818.226
  21283874.264   -19405432.70849 -15107198.61647  21283873.951    21283877.413
  21781295.749   -22548176.59349 -17302863.83447  21781295.313    21781300.166
  20272835.063   -28165542.59749 -21937161.46548  20272834.519    20272838.560
  21926637.054   -14148827.81749 -11013239.94247  21926636.865    21926641.147
  23270921.898    -8894430.17349  -6912471.23246  23270922.016    23270926.584
  20995704.629   -23533729.83149 -18321982.38647  20995704.316    20995707.008
 03  2 28  2 51 30.0000000  0  8G23G31G14G17G15G 3G 9G18
  22766456.553    -9516858.48149  -7393603.56146  22766456.130    22766460.387
  23283593.256    -6955519.61649  -5396098.02046  23283593.134    23283597.606
  21269867.846   -19479036.61249 -15164552.24447  21269867.517    21269870.971
  21792657.062   -22488472.55549 -17256341.21447  21792656.598    21792661.449
  20275671.174   -28150638.71349 -21925548.03248  20275670.625    20275674.654
  21924632.873   -14159359.69449 -11021446.57647  21924632.712    21924636.981
  23266383.460    -8918279.09049  -6931054.72846  23266383.548    23266388.233
  21002623.624   -23497370.14149 -18293650.14047  21002623.346    21002626.006
 03  2 28  2 52  0.0000000  0  8G23G31G14G17G15G 3G 9G18
  22777698.038    -9457783.90749  -7347571.42346  22777697.628    22777701.887
  23272465.455    -7013996.73249  -5441664.52546  23272465.229    23272469.754
  21255944.453   -19552204.37949 -15221566.03347  21255944.126    21255947.554
  21804085.047   -22428417.96949 -17209545.44247  21804084.586    21804089.435
  20278585.668   -28135323.02649 -21913613.72448  20278585.098    20278589.140
  21922736.132   -14169327.33249 -11029213.55847  21922735.916    21922740.170
  23261946.669    -8941593.95149  -6949222.09546  23261946.909    23261951.472
  21009577.581   -23460826.95049 -18265174.91347  21009577.282    21009579.938
 03  2 28  2 52 30.0000000  0  8G23G31G14G17G15G 3G 9G18
  22788944.376    -9398683.92349  -7301519.47146  22788943.963    22788948.204
  23261429.794    -7071989.56649  -5486853.74946  23261429.559    23261433.883
  21242103.531   -19624938.61049 -15278241.99847  21242103.218    21242106.628
  21815578.874   -22368017.58349 -17162480.21047  21815578.399    21815583.254
  20281577.778   -28119599.19449 -21901361.37548  20281577.216    20281581.252
  21920945.968   -14178735.11549 -11036544.27447  21920945.675    21920949.932
  23257611.086    -8964377.43149  -6966975.39546  23257611.231    23257615.817
  21016565.463   -23424105.29849 -18236560.62347  21016565.165    21016567.840
 03  2 28  2 53  0.0000000  0  8G23G31G14G17G15G 3G 9G18
  22800194.673    -9339562.95649  -7255451.17046  22800194.294    22800198.508
  23250485.856    -7129500.23249  -5531667.18046  23250485.575    23250490.004
  21228344.625   -19697241.89349 -15334582.16047  21228344.313    21228347.698
  21827137.740   -22307275.43449 -17115148.67246  21827137.248    21827142.108
  20284646.955   -28103470.51649 -21888793.56048  20284646.392    20284650.452
  21919261.442   -14187587.15949 -11043441.95247  21919261.171    21919265.437
  23253376.472    -8986631.62149  -6984316.27846  23253376.403    23253380.846
  21023586.347   -23387210.37149 -18207811.31447  21023586.044    21023588.717
 03  2 28  2 53 30.0000000  0  8G23G31G14G17G15G 3G 9G18
  22811450.355    -9280413.86749  -7209360.95846  22811449.942    22811454.137
  23239635.442    -7186519.37349  -5576097.66345  23239635.155    23239639.455
  21214669.554   -19769104.68749 -15390579.08747  21214669.240    21214672.599
  21838763.018   -22246184.03749 -17067545.00546  21838762.529    21838767.440
  20287794.740   -28086928.62549 -21875903.76648  20287794.172    20287798.242
  21917683.986   -14195875.85149 -11049900.65847  21917683.833    21917688.114
  23249244.416    -9008347.38949  -7001237.61246  23249244.073    23249248.394
  21030641.478   -23350135.26449 -18178921.61247  21030641.190    21030643.849
 03  2 28  2 54  0.0000000  0  8G23G31G14G17G15G 3G 9G18
  22822710.086    -9221243.54549  -7163254.20846  22822709.687    22822713.873
  23228877.595    -7243051.61649  -5620148.69145  23228877.322    23228881.778
  21201077.376   -19840531.72649 -15446236.46047  21201077.060    21201080.417
  21850453.581   -22184749.95449 -17019674.30746  21850453.056    21850458.004
  20291020.114   -28069979.00249 -21862696.25148  20291019.550    20291023.639
  21916212.669   -14203607.58049 -11055925.36647  21916212.512    21916216.803
  23245213.604    -9029529.27449  -7017742.93346  23245213.214    23245217.523
  21037729.535   -23312887.25549 -18149897.16647  21037729.243    21037731.875
 03  2 28  2 54 30.0000000  0  8G23G31G14G17G15G 3G 9G18
  22833974.830    -9162047.17549  -7117127.15046  22833974.418    22833978.529
  23218213.877    -7299089.72749  -5663814.71645  23218213.614    23218218.084
  21187569.518   -19911515.73649 -15501548.61947  21187569.221    21187572.571
  21862210.268   -22122967.97049 -16971532.50246  21862209.787    21862214.739
  20294324.272   -28052615.38649 -21849166.15348  20294323.712    20294327.785
  21914848.383   -14210776.98449 -11061511.90147  21914848.236    21914852.506
  23241285.883    -9050170.16549  -7033826.69546  23241285.293    23241289.753
  21044851.371   -23275461.78449 -18120734.44647  21044851.063    21044853.699
 03  2 28  2 55  0.0000000  0  8G23G31G14G17G15G 3G 9G18
  22845244.230    -9102826.05849  -7070980.81146  22845243.807    22845247.927
  23207644.396    -7354633.06449  -5707095.20145  23207644.082    23207648.454
  21174146.070   -19982056.25249 -15556515.19847  21174145.754    21174149.127
  21874033.037   -22060839.09049 -16923120.39946  21874032.562    21874037.460
  20297707.161   -28034838.20149 -21835313.78848  20297706.610    20297710.648
  21913590.926   -14217384.96549 -11066660.96247  21913590.767    21913595.023
  23237461.051    -9070269.26249  -7049488.28446  23237460.631    23237465.017
  21052006.536   -23237860.87249 -18091435.01647  21052006.239    21052008.880
 03  2 28  2 55 30.0000000  0  8G23G31G14G17G15G 3G 9G18
  22856517.591    -9043583.81749  -7024818.01346  22856517.223    22856521.346
  23197168.687    -7409682.99549  -5749991.21545  23197168.325    23197172.654
  21160806.721   -20052154.72549 -15611137.33247  21160806.409    21160809.793
  21885921.146   -21998366.66849 -16874440.60046  21885920.682    21885925.601
  20301168.256   -28016649.83849 -21821141.02848  20301167.714    20301171.735
  21912439.638   -14223434.77949 -11071375.08547  21912439.474    21912443.760
  23233738.979    -9089827.98149  -7064728.79246  23233738.667    23233743.060
  21059194.380   -23200088.34149 -18062001.86247  21059194.083    21059196.746
 03  2 28  2 56  0.0000000  0  8G23G31G14G17G15G 3G 9G18
  22867795.507    -8984318.01849  -6978636.86846  22867795.095    22867799.278
  23186787.701    -7464234.99749  -5792499.22745  23186787.322    23186791.651
  21147552.324   -20121806.75349 -15665411.59047  21147552.004    21147555.392
  21897875.112   -21935547.81149 -16825490.86046  21897874.677    21897879.614
  20304708.372   -27998046.53749 -21806644.94048  20304707.833    20304711.811
  21911395.115   -14228923.70449 -11075652.16147  21911394.957    21911399.268
  23230120.658    -9108841.73049  -7079544.65846  23230120.512    23230124.815
  21066415.296   -23162142.16049 -18032433.39747  21066415.004    21066417.646
 03  2 28  2 56 30.0000000  0  8G23G31G14G17G15G 3G 9G18
  22879078.023    -8925027.92349  -6932436.79646  22879077.624    22879081.844
  23176502.081    -7518286.02449  -5834616.85446  23176501.673    23176506.115
  21134383.457   -20191009.37149 -15719335.65647  21134383.151    21134386.518
  21909895.217   -21872381.90649 -16776270.68146  21909894.805    21909899.634
  20308327.770   -27979026.48849 -21791824.10748  20308327.218    20308331.184
  21910457.565   -14233850.70449 -11079491.36847  21910457.376    21910461.651
  23226606.915    -9127307.60049  -7093933.60246  23226606.545    23226610.833
  21073669.351   -23124021.96649 -18002729.33447  21073669.042    21073671.647
 03  2 28  2 57  0.0000000  0  8G23G31G14G17G15G 3G 9G18
  22890363.853    -8865720.59349  -6886223.28946  22890363.451    22890367.665
  23166310.904    -7571841.15149  -5876348.07546  23166310.468    23166314.860
  21121299.211   -20259767.55549 -15772913.40747  21121298.859    21121302.243
  21921980.080   -21808875.60449 -16726785.26746  21921979.649    21921984.485
  20312025.311   -27959595.61349 -21776683.15148  20312024.758    20312028.753
  21909625.657   -14238222.60949 -11082898.03247  21909625.432    21909629.719
  23223196.039    -9145230.59749  -7107899.53046  23223195.767    23223200.131
  21080955.011   -23085735.33549 -17972895.57947  21080954.699    21080957.325
 03  2 28  2 57 30.0000000  0  8G23G31G14G17G15G 3G 9G18
  22901654.387    -8806388.46949  -6839990.44746  22901654.005    22901658.146
  23156215.891    -7624890.75549  -5917685.40546  23156215.506    23156219.899
  21108301.239   -20328072.02349 -15826137.61847  21108300.897    21108304.266
  21934131.252   -21745020.83049 -16677028.30546  21934130.817    21934135.671
  20315802.665   -27939745.41949 -21761215.45448  20315802.103    20315806.120
  21908900.779   -14242031.61449 -11085866.07547  21908900.604    21908904.889
  23219890.398    -9162601.28049  -7121435.07446  23219890.215    23219894.477
  21088273.774   -23047275.01949 -17942926.48647  21088273.472    21088276.116
 03  2 28  2 58  0.0000000  0  8G23G31G14G17G15G 3G 9G18
  22912948.739    -8747036.31149  -6793742.00146  22912948.376    22912952.414
  23146216.515    -7677437.52449  -5958630.91646  23146216.257    23146220.468
  21095389.053   -20395925.50849 -15879010.41147  21095388.746    21095392.118
  21946347.908   -21680821.85549 -16627003.14446  21946347.470    21946352.353
  20319659.189   -27919479.31649 -21745423.67348  20319658.643    20319662.664
  21908282.194   -14245282.31849 -11088399.07847  21908281.992    21908286.256
  23216689.435    -9179422.40949  -7134542.42146  23216689.251    23216693.390
  21095624.541   -23008646.38349 -17912826.23647  21095624.233    21095626.881
 03  2 28  2 58 30.0000000  0  8G23G31G14G17G15G 3G 9G18
  22924246.828    -8687664.22849  -6747478.04546  22924246.444    22924250.472
  23136313.202    -7729479.69249  -5999183.25746  23136313.062    23136317.019
  21082563.111   -20463326.07949 -15931530.29047  21082562.816    21082566.172
  21958629.891   -21616279.68849 -16576710.56546  21958629.427    21958634.331
  20323595.011   -27898796.50249 -21729307.18748  20323594.458    20323598.451
  21907769.835   -14247974.67549 -11090497.00747  21907769.647    21907773.901
  23213593.230    -9195692.15649  -7147220.10346  23213593.164    23213597.246
  21103007.262   -22969849.89549 -17882595.19147  21103006.952    21103009.574
 03  2 28  2 59  0.0000000  0  8G23G31G14G17G15G 3G 9G18
  22935548.660    -8628272.28849  -6701198.60146  22935548.300    22935552.345
  23126506.369    -7781015.08549  -6039340.65646  23126506.193    23126510.151
  21069823.743   -20530271.77449 -15983695.71447  21069823.455    21069826.777
  21970977.398   -21551393.55349 -16526149.95046  21970976.919    21970981.800
  20327610.343   -27877695.73749 -21712865.01248  20327609.789    20327613.784
  21907363.750   -14250108.37749 -11092159.61747  21907363.608    21907367.843
  23210602.418    -9211408.64349  -7159466.65346  23210602.285    23210606.473
  21110421.846   -22930885.92849 -17852233.63747  21110421.559    21110424.156
 03  2 28  2 59 30.0000000  0  8G23G31G14G17G15G 3G 9G18
  22946854.307    -8568860.59549  -6654903.76546  22946853.953    22946858.027
  23116796.296    -7832042.02649  -6079101.86246  23116796.026    23116800.038
  21057171.231   -20596760.95749 -16035505.42247  21057170.934    21057174.241
  21983390.305   -21486163.54849 -16475321.39246  21983389.786    21983394.668
  20331705.355   -27856176.28349 -21696096.59548  20331704.804    20331708.777
  21907064.081   -14251683.50849 -11093386.98647  21907063.875    21907068.097
  23207717.312    -9226570.18149  -7171280.78346  23207717.042    23207721.256
  21117868.224   -22891754.98749 -17821741.97947  21117867.914    21117870.469
 03  2 28  3  0  0.0000000  0  8G23G31G14G17G15G 3G 9G18
  22958163.835    -8509428.69849  -6608593.18946  22958163.484    22958167.645
  23107183.413    -7882558.09149  -6118464.98846  23107183.111    23107187.227
  21044606.083   -20662791.31349 -16086957.59447  21044605.773    21044609.057
  21995868.707   -21420589.07449 -16424224.39746  21995868.197    21995873.078
  20335880.325   -27834236.73049 -21679000.82148  20335879.763    20335883.718
  21906870.691   -14252699.62049 -11094178.74447  21906870.539    21906874.705
  23204938.052    -9241174.51949  -7182660.74046  23204937.856    23204942.057
  21125346.364   -22852457.04549 -17791120.18547  21125346.077    21125348.608
 03  2 28  3  0 30.0000000  0  8G23G31G14G17G15G 3G 9G18
  22969476.671    -8449979.79549  -6562269.36246  22969476.292    22969480.471
  23097667.464    -7932564.70949  -6157431.13946  23097667.169    23097671.246
  21032127.919   -20728364.30549 -16138053.38147  21032127.591    21032130.880
  22008412.003   -21354673.30749 -16372861.48246  22008411.514    22008416.461
  20340134.780   -27811879.36249 -21661579.48248  20340134.218    20340138.173
  21906783.118   -14253159.96849 -11094537.44947  21906782.940    21906787.118
  23202264.592    -9255223.00249  -7193607.55846  23202264.507    23202268.706
  21132855.587   -22812995.95149 -17760371.26647  21132855.279    21132857.834
 03  2 28  3  1  0.0000000  0  8G23G31G14G17G15G 3G 9G18
  22980793.758    -8390508.15149  -6515927.81746  22980793.368    22980797.589
  23088249.982    -7982054.19849  -6195994.36246  23088249.678    23088253.670
  21019738.223   -20793472.30049 -16188786.84447  21019737.888    21019741.180
  22021021.348   -21288410.73049 -16321228.32546  22021020.864    22021025.810
  20344470.013   -27789097.28049 -21643827.20348  20344469.457    20344473.422
  21906802.368   -14253058.75149 -11094458.57647  21906802.197    21906806.374
  23199698.409    -9268708.15349  -7204115.43446  23199698.373    23199702.574
  21140396.840   -22773366.19249 -17729490.93147  21140396.528    21140399.076
 03  2 28  3  1 30.0000000  0  8G23G31G14G17G15G 3G 9G18
  22992113.282    -8331023.39549  -6469576.05046  22992112.882    22992117.109
  23078929.358    -8031034.33749  -6234160.64546  23078929.001    23078932.996
  21007435.517   -20858123.07549 -16239164.02247  21007435.185    21007438.496
  22033694.999   -21221810.66249 -16269332.17646  22033694.520    22033699.365
  20348884.480   -27765899.08149 -21625750.66648  20348883.931    20348887.934
  21906926.509   -14252405.78949 -11093949.75947  21906926.380    21906930.598
  23197238.053    -9281637.89549  -7214190.49346  23197237.917    23197242.097
  21147968.273   -22733578.04649 -17698487.16147  21147967.966    21147970.485
 03  2 28  3  2  0.0000000  0  8G23G31G14G17G15G 3G 9G18
  23003436.412    -8271519.53849  -6423209.39646  23003436.063    23003440.255
  23069707.024    -8079497.33849  -6271923.99946  23069706.745    23069710.759
  20995221.322   -20922308.88149 -16289178.88947  20995220.991    20995224.287
  22046433.941   -21154867.19749 -16217168.45846  22046433.481    22046438.296
  20353379.429   -27742277.95349 -21607344.58148  20353378.879    20353382.856
  21907156.886   -14251195.04649 -11093006.31247  21907156.741    21907160.976
  23194884.723    -9294004.18949  -7223826.53346  23194884.686    23194888.834
  21155570.898   -22693625.98149 -17667355.66747  21155570.593    21155573.127
 03  2 28  3  2 30.0000000  0  8G23G31G14G17G15G 3G 9G18
  23014763.323    -8211996.12249  -6376827.49346  23014762.951    23014767.135
  23060583.635    -8127440.95049  -6309282.60146  23060583.370    23060587.401
  20983096.020   -20986027.66949 -16338829.84647  20983095.705    20983098.975
  22059238.388   -21087579.54649 -16164736.54446  22059237.927    22059242.754
  20357955.096   -27718232.53549 -21588607.88648  20357954.551    20357958.518
  21907493.506   -14249426.08949 -11091627.89747  21907493.368    21907497.605
  23192639.059    -9305805.11249  -7233022.02546  23192639.050    23192643.131
  21163204.701   -22653509.94849 -17636096.40747  21163204.399    21163206.928
 03  2 28  3  3  0.0000000  0  8G23G31G14G17G15G 3G 9G18
  23026093.383    -8152456.09249  -6330432.66746  23026093.037    23026097.314
  23051558.891    -8174866.30749  -6346237.40846  23051558.598    23051562.617
  20971059.387   -21049280.48649 -16388117.71647  20971059.068    20971062.323
  22072107.758   -21019950.64349 -16112038.71946  22072107.308    22072112.168
  20362611.146   -27693764.84049 -21569542.13648  20362610.598    20362614.534
  21907935.744   -14247101.76249 -11089816.72847  21907935.642    21907939.861
  23190500.873    -9317041.94049  -7241777.94846  23190500.820    23190504.775
  21170869.073   -22613233.27049 -17604711.97647  21170868.773    21170871.308
 03  2 28  3  3 30.0000000  0  8G23G31G14G17G15G 3G 9G18
  23037426.839    -8092898.42649  -6284024.08446  23037426.482    23037430.766
  23042633.188    -8221770.61749  -6382786.19246  23042632.867    23042636.908
  20959111.921   -21112064.67749 -16437040.41047  20959111.619    20959114.866
  22085042.136   -20951979.70449 -16059074.36846  22085041.664    22085046.624
  20367347.874   -27668873.13449 -21550145.98348  20367347.319    20367351.256
  21908483.913   -14244221.26649 -11087572.17047  21908483.782    21908488.012
  23188470.318    -9327712.09649  -7250092.30946  23188470.336    23188474.239
  21178564.134   -22572795.24949 -17573201.81347  21178563.855    21178566.411
 03  2 28  3  4  0.0000000  0  8G23G31G14G17G15G 3G 9G18
  23048762.960    -8033327.03049  -6237604.80246  23048762.604    23048766.809
  23033806.223    -8268156.03149  -6418930.59946  23033805.890    23033810.093
  20947253.225   -21174382.42549 -16485599.64747  20947252.919    20947256.135
  22098040.959   -20883670.37649 -16005846.32946  22098040.485    22098045.504
  20372164.731   -27643560.11249 -21530421.53848  20372164.174    20372168.167
  21909137.163   -14240788.63949 -11084897.38247  21909137.000    21909141.183
  23186547.355    -9337817.98549  -7257966.99246  23186547.297    23186551.015
  21186289.136   -22532200.29049 -17541569.36347  21186288.837    21186291.379
 03  2 28  3  4 30.0000000  0  8G23G31G14G17G15G 3G 9G18
  23060102.394    -7973737.92749  -6191171.73846  23060102.064    23060106.218
  23025079.020    -8314016.86349  -6454666.28346  23025078.770    23025082.988
  20935484.356   -21236228.06049 -16533791.00547  20935484.036    20935487.229
  22111104.913   -20815018.97049 -15952351.75446  22111104.431    22111109.490
  20377062.702   -27617821.02049 -21510365.09248  20377062.143    20377066.140
  21909896.063   -14236800.44649 -11081789.69147  21909895.935    21909900.093
  23184732.641    -9347353.98949  -7265397.61046  23184732.683    23184736.273
  21194044.652   -22491444.70349 -17509811.74647  21194044.358    21194046.864
 03  2 28  3  5  0.0000000  0  8G23G31G14G17G15G 3G 9G18
  23071444.814    -7914133.11949  -6144726.42746  23071444.501    23071448.670
  23016451.767    -8359353.41949  -6489993.43346  23016451.502    23016455.664
  20923805.258   -21297601.87049 -16581614.71147  20923804.971    20923808.154
  22124233.454   -20746027.68249 -15898592.33846  22124232.973    22124238.106
  20382041.550   -27591656.97649 -21489977.51948  20382040.997    20382044.984
  21910760.317   -14232258.88449 -11078250.79847  21910760.166    21910764.318
  23183026.504    -9356320.30049  -7272384.32246  23183026.455    23183029.994
  21201830.179   -22450531.27449 -17477931.13847  21201829.889    21201832.418
 03  2 28  3  5 30.0000000  0  8G23G31G14G17G15G 3G 9G18
  23082790.254    -7854512.49949  -6098268.79946  23082789.927    23082794.050
  23007924.545    -8404164.20649  -6524910.88646  23007924.285    23007928.462
  20912216.242   -21358502.45849 -16629069.67447  20912215.954    20912219.116
  22137426.757   -20676696.42149 -15844567.99546  22137426.279    22137431.424
  20387101.391   -27565067.27149 -21469258.26148  20387100.834    20387104.829
  21911729.759   -14227164.09849 -11074280.82747  21911729.635    21911733.818
  23181428.874    -9364715.65849  -7278926.13846  23181428.831    23181432.378
  21209645.737   -22409460.21949 -17445927.71047  21209645.438    21209647.966
 03  2 28  3  6  0.0000000  0  8G23G31G14G17G15G 3G 9G18
  23094138.514    -7794877.29249  -6051799.79346  23094138.131    23094142.186
  22999497.393    -8448448.68549  -6559418.23846  22999497.159    22999501.425
  20900717.338   -21418929.33649 -16676155.50348  20900717.045    20900720.203
  22150684.516   -20607026.55149 -15790279.80646  22150684.030    22150689.192
  20392242.114   -27538052.57449 -21448207.83448  20392241.555    20392245.553
  21912804.203   -14221517.52649 -11069880.88647  21912804.112    21912808.309
  23179939.889    -9372539.98749  -7285022.95246  23179939.902    23179943.415
  21217490.976   -22368233.07049 -17413802.64447  21217490.677    21217493.222
 03  2 28  3  6 30.0000000  0  8G23G31G14G17G15G 3G 9G18
  23105490.135    -7735223.77449  -6005316.52146  23105489.772    23105493.823
  22991171.450    -8492201.57049  -6593511.33546  22991171.164    22991175.552
  20889309.616   -21478877.29449 -16722868.15348  20889309.312    20889312.432
  22164007.394   -20537014.58049 -15735725.03346  22164006.898    22164012.009
  20397464.566   -27510608.24049 -21426822.63948  20397464.020    20397468.043
  21913984.334   -14215316.06049 -11065048.56147  21913984.214    21913988.408
  23178560.827    -9379787.92049  -7290670.65346  23178560.577    23178564.084
  21225366.537   -22326846.55849 -17381553.39647  21225366.245    21225368.834
 03  2 28  3  7  0.0000000  0  8G23G31G14G17G15G 3G 9G18
  23116843.913    -7675559.20349  -5958824.64046  23116843.542    23116847.606
  22982945.651    -8535428.56749  -6627194.68146  22982945.339    22982949.642
  20877991.935   -21538352.02349 -16769212.05748  20877991.637    20877994.739
  22177393.923   -20466667.94449 -15680909.49546  22177393.410    22177398.472
  20402767.545   -27482740.79449 -21405107.75048  20402767.018    20402771.026
  21915268.708   -14208567.12149 -11059789.63647  21915268.535    21915272.705
  23177289.969    -9386465.42849  -7295873.88246  23177289.846    23177293.413
  21233270.951   -22285308.41049 -17349185.99647  21233270.663    21233273.241
 03  2 28  3  7 30.0000000  0  8G23G31G14G17G15G 3G 9G18
  23128200.420    -7615880.39249  -5912321.66846  23128200.031    23128204.100
  22974820.795    -8578125.05649  -6660464.64046  22974820.483    22974824.737
  20866765.128   -21597348.91949 -16815183.62548  20866764.859    20866767.950
  22190844.718   -20395983.45549 -15625830.69246  22190844.208    22190849.247
  20408151.834   -27454446.27749 -21383060.06348  20408151.291    20408155.285
  21916657.645   -14201267.91149 -11054101.92747  21916657.514    21916661.646
  23176128.689    -9392567.87049  -7300629.02046  23176128.610    23176132.231
  21241204.722   -22243616.12549 -17316698.48547  21241204.430    21241206.996
 03  2 28  3  8  0.0000000  0  8G23G31G14G17G15G 3G 9G18
  23139560.380    -7556183.51549  -5865804.61846  23139559.986    23139564.059
  22966798.004    -8620285.63349  -6693317.01646  22966797.587    22966801.807
  20855630.330   -21655862.63949 -16860778.69248  20855630.048    20855633.130
  22204360.431   -20324957.73849 -15570486.00746  22204359.971    22204364.970
  20413618.210   -27425720.22949 -21360676.12648  20413617.657    20413621.641
  21918151.970   -14193415.09649 -11047982.84347  21918151.859    21918155.970
  23175077.728    -9398090.19149  -7304932.08046  23175077.688    23175081.339
  21249168.477   -22201766.22649 -17284088.15847  21249168.197    21249170.763
 03  2 28  3  8 30.0000000  0  8G23G31G14G17G15G 3G 9G18
  23150922.367    -7496475.66349  -5819279.00746  23150921.960    23150926.040
  22958875.882    -8661915.86149  -6725756.11146  22958875.502    22958879.717
  20844586.428   -21713898.74549 -16906001.59348  20844586.143    20844589.221
  22217939.908   -20253597.73449 -15514880.82146  22217939.450    22217944.332
  20419165.505   -27396568.88449 -21337960.78748  20419164.956    20419168.983
  21919750.231   -14185016.17949 -11041438.22147  21919750.073    21919754.199
  23174135.970    -9403038.03349  -7308787.52646  23174136.069    23174139.773
  21257160.860   -22159765.98849 -17251360.68447  21257160.584    21257163.117
 03  2 28  3  9  0.0000000  0  8G23G31G14G17G15G 3G 9G18
  23162287.330    -7436752.24649  -5772741.26546  23162286.963    23162291.074
  22951056.083    -8703009.75449  -6757777.29646  22951055.616    22951059.711
  20833634.493   -21771451.22049 -16950847.63848  20833634.225    20833637.274
  22231583.700   -20181899.23749 -15459011.88346  22231583.245    22231588.195
  20424794.712   -27366987.06449 -21314910.01348  20424794.179    20424798.247
  21921453.222   -14176066.71849 -11034464.60147  21921453.084    21921457.226
  23173304.672    -9407405.74149  -7312190.89446  23173304.835    23173308.596
  21265182.606   -22117611.47149 -17218512.99147  21265182.301    21265184.834
 03  2 28  3  9 30.0000000  0  8G23G31G14G17G15G 3G 9G18
  23173654.759    -7377015.68249  -5726193.29646  23173654.413    23173658.553
  22943338.189    -8743568.25549  -6789381.32446  22943337.618    22943341.665
  20822774.427   -21828521.21449 -16995317.72348  20822774.143    20822777.159
  22245291.414   -20109864.95349 -15402881.30146  22245290.975    22245295.961
  20430505.586   -27336976.40549 -21291525.07348  20430505.046    20430509.057
  21923260.348   -14166570.06549 -11027064.59847  21923260.243    21923264.358
  23172583.617    -9411194.55249  -7315143.20246  23172583.754    23172587.623
  21273233.148   -22075305.42449 -17185547.23147  21273232.857    21273235.428
 03  2 28  3 10  0.0000000  0  8G23G31G14G17G15G 3G 9G18
  23185024.704    -7317266.48949  -5679635.48546  23185024.332    23185028.464
  22935722.032    -8783590.58049  -6820567.53346  22935721.620    22935725.645
  20812006.339   -21885107.79549 -17039411.11748  20812006.048    20812009.048
  22259062.854   -20037495.57949 -15346489.59946  22259062.412    22259067.477
  20436298.020   -27306537.03449 -21267806.07448  20436297.476    20436301.450
  21925171.363   -14156527.40649 -11019239.13547  21925171.290    21925175.443
  23171972.996    -9414403.81149  -7317643.87446  23171973.097    23171976.849
  21281312.343   -22032848.82349 -17152464.14647  21281312.054    21281314.655
 03  2 28  3 10 30.0000000  0  8G23G31G14G17G15G 3G 9G18
  23196397.280    -7257502.98249  -5633066.50846  23196396.948    23196401.053
  22928208.616    -8823073.90349  -6851333.71646  22928208.212    22928212.217
  20801330.719   -21941208.35949 -17083125.80148  20801330.439    20801333.441
  22272898.186   -19964790.03249 -15289835.94546  22272897.734    22272902.863
  20442172.462   -27275666.71749 -21243751.27748  20442171.899    20442175.879
  21927186.540   -14145937.63249 -11010987.35847  21927186.475    21927190.584
  23171473.259    -9417030.61449  -7319690.70846  23171473.303    23171476.986
  21289420.368   -21990240.81649 -17119263.08847  21289420.081    21289422.648
 03  2 28  3 11  0.0000000  0  8G23G31G14G17G15G 3G 9G18
  23207771.824    -7197729.46149  -5586489.72346  23207771.464    23207775.599
  22920797.148    -8862021.09749  -6881682.14046  22920796.783    22920800.779
  20790747.072   -21996825.49049 -17126463.78948  20790746.796    20790749.813
  22286796.634   -19891752.71249 -15232923.77446  22286796.192    22286801.359
  20448128.117   -27244369.22549 -21219363.61948  20448127.576    20448131.562
  21929304.975   -14134805.49949 -11002312.95547  21929304.858    21929308.970
  23171083.604    -9419078.06449  -7321286.07946  23171083.563    23171087.388
  21297556.392   -21947485.86949 -17085947.53347  21297556.099    21297558.653
 03  2 28  3 11 30.0000000  0  8G23G31G14G17G15G 3G 9G18
  23219149.283    -7137940.48349  -5539900.89546  23219148.918    23219153.007
  22913488.992    -8900425.32449  -6911607.49446  22913488.692    22913492.647
  20780256.718   -22051952.48949 -17169419.85648  20780256.458    20780259.471
  22300759.334   -19818378.56649 -15175749.13146  22300758.855    22300763.969
  20454166.209   -27212638.76049 -21194638.57748  20454165.656    20454169.654
  21931527.454   -14123126.25549 -10993212.23747  21931527.320    21931531.413
  23170805.262    -9420539.77749  -7322425.08546  23170805.415    23170809.234
  21305721.254   -21904579.09949 -17052513.67147  21305720.966    21305723.493
 03  2 28  3 12  0.0000000  0  8G23G31G14G17G15G 3G 9G18
  23230528.806    -7078140.14549  -5493303.22646  23230528.480    23230532.602
  22906283.736    -8938289.44149  -6941111.99346  22906283.370    22906287.253
  20769859.081   -22106592.19549 -17211996.21048  20769858.816    20769861.821
  22314785.250   -19744672.11249 -15118315.55446  22314784.726    22314789.856
  20460286.094   -27180478.55149 -21169578.67148  20460285.539    20460289.516
  21933853.138   -14110904.79649 -10983689.00747  21933853.009    21933857.090
  23170637.828    -9421418.76249  -7323109.97246  23170638.032    23170642.011
  21313914.166   -21861524.99249 -17018965.00547  21313913.874    21313916.398
 03  2 28  3 12 30.0000000  0  8G23G31G14G17G15G 3G 9G18
  23241910.945    -7018326.55649  -5446695.23546  23241910.590    23241914.846
  22899181.729    -8975610.42049  -6970193.22646  22899181.407    22899185.297
  20759554.772   -22160741.49849 -17254190.42948  20759554.500    20759557.520
  22328874.614   -19670631.90349 -15060621.90246  22328874.112    22328879.250
  20466488.216   -27147886.14649 -21144181.98048  20466487.656    20466491.631
  21936282.199   -14098139.88449 -10973742.30547  21936282.058    21936286.187
  23170581.818    -9421712.03249  -7323338.44746  23170582.190    23170586.198
  21322135.424   -21818321.94649 -16985300.27547  21322135.103    21322137.656
 03  2 28  3 13  0.0000000  0  8G23G31G14G17G15G 3G 9G18
  23253295.237    -6958501.94649  -5400078.65046  23253294.849    23253299.135
  22892183.016    -9012389.20949  -6998852.00546  22892182.632    22892186.449
  20749343.581   -22214401.50649 -17296003.38148  20749343.309    20749346.328
  22343027.074   -19596260.21549 -15002669.94546  22343026.574    22343031.660
  20472772.231   -27114863.27249 -21118449.87048  20472771.695    20472775.642
  21938814.145   -14084834.39749 -10963374.38547  21938813.985    21938818.128
  23170637.407    -9421421.00849  -7323111.65546  23170637.641    23170641.582
  21330384.418   -21774972.96649 -16951521.84147  21330384.142    21330386.720
 03  2 28  3 13 30.0000000  0  8G23G31G14G17G15G 3G 9G18
  23264681.479    -6898666.79049  -5353453.83946  23264681.126    23264685.319
  22885287.511    -9048625.11549  -7027087.74146  22885287.116    22885290.981
  20739225.631   -22267571.58549 -17337434.57248  20739225.343    20739228.361
  22357242.537   -19521557.99249 -14944460.43946  22357242.023    22357247.103
  20479138.200   -27081409.87449 -21092382.28348  20479137.668    20479141.643
  21941448.745   -14070989.55249 -10952586.18647  21941448.552    21941452.697
  23170803.973    -9420545.28849  -7322429.21846  23170804.176    23170808.265
  21338661.071   -21731478.94949 -16917630.38547  21338660.782    21338663.319
 03  2 28  3 14  0.0000000  0  8G23G31G14G17G15G 3G 9G18
  23276070.502    -6838817.13749  -5306817.73746  23276070.162    23276074.278
  22878496.196    -9084313.06549  -7054896.51646  22878495.887    22878499.787
  20729201.928   -22320246.39049 -17378479.83948  20729201.642    20729204.647
  22371521.388   -19446522.08549 -14885990.92646  22371520.889    22371525.948
  20485586.881   -27047521.85449 -21065976.03648  20485586.354    20485590.330
  21944186.503   -14056602.40949 -10941375.41347  21944186.336    21944190.456
  23171082.779    -9419079.91149  -7321287.33946  23171082.903    23171087.135
  21346966.013   -21687836.13249 -16883622.99047  21346965.733    21346968.242
 03  2 28  3 14 30.0000000  0  8G23G31G14G17G15G 3G 9G18
  23287461.342    -6778957.74649  -5260174.07046  23287461.026    23287465.133
  22871808.524    -9119456.71949  -7082281.16046  22871808.276    22871812.127
  20719271.733   -22372429.66349 -17419142.09348  20719271.437    20719274.420
  22385862.854   -19371157.36249 -14827265.17546  22385862.370    22385867.457
  20492117.432   -27013203.52349 -21039234.47348  20492116.903    20492120.891
  21947026.451   -14041678.48349 -10929746.37047  21947026.300    21947030.367
  23171473.065    -9417028.83949  -7319689.08246  23171473.153    23171477.406
  21355298.289   -21644049.93849 -16849503.86247  21355297.995    21355300.461
 03  2 28  3 15  0.0000000  0  8G23G31G14G17G15G 3G 9G18
  23298854.678    -6719085.66749  -5213520.48446  23298854.368    23298858.354
  22865225.237    -9154051.98049  -7109238.48846  22865224.984    22865228.838
  20709435.854   -22424117.46549 -17459418.27348  20709435.576    20709438.530
  22400267.367   -19295461.63649 -14768281.52546  22400266.828    22400271.961
  20498730.574   -26978451.34949 -21012154.84148  20498730.015    20498733.990
  21949968.989   -14026215.47949 -10917697.27447  21949968.823    21949972.854
  23171975.539    -9414388.20149  -7317631.39946  23171975.565    23171979.912
  21363658.234   -21600117.86649 -16815271.06847  21363657.947    21363660.420
 03  2 28  3 15 30.0000000  0  8G23G31G14G17G15G 3G 9G18
  23310250.103    -6659202.35649  -5166858.15246  23310249.760    23310253.788
  22858746.230    -9188099.44549  -7135768.95346  22858745.989    22858749.790
  20699694.178   -22475310.18649 -17499308.66848  20699693.880    20699696.813
  22414734.354   -19219436.97449 -14709041.55646  22414733.823    22414739.044
  20505426.013   -26943266.42549 -20984738.01248  20505425.459    20505429.440
  21953013.585   -14010216.05449 -10905230.17847  21953013.415    21953017.445
  23172589.951    -9411158.81849  -7315114.95346  23172590.060    23172594.376
  21372045.558   -21556042.05349 -16780926.26747  21372045.271    21372047.739
 03  2 28  3 16  0.0000000  0  8G23G31G14G17G15G 3G 9G18
  23321647.462    -6599308.68049  -5120187.75546  23321647.110    23321651.178
  22852371.407    -9221598.80849  -7161872.31946  22852371.233    22852375.059
  20690046.764   -22526007.69949 -17538813.18648  20690046.459    20690049.381
  22429263.682   -19143084.35049 -14649546.03146  22429263.254    22429268.496
  20512203.705   -26907649.30449 -20956984.41048  20512203.147    20512207.166
  21956159.933   -13993681.82549 -10892346.35747  21956159.747    21956163.807
  23173316.476    -9407340.67849  -7312139.72946  23173316.567    23173320.990
  21380460.097   -21511823.57049 -16746470.29447  21380459.776    21380462.243
 03  2 28  3 16 30.0000000  0  8G23G31G14G17G15G 3G 9G18
  23333047.401    -6539401.57749  -5073506.88446  23333047.048    23333051.083
  22846101.645    -9254546.11549  -7187545.51446  22846101.503    22846105.410
  20680494.321   -22576205.95149 -17577928.67148  20680494.022    20680496.912
  22443856.034   -19066401.35749 -14589793.05846  22443855.582    22443860.742
  20519064.257   -26871596.78849 -20928891.53848  20519063.718    20519067.743
  21959408.332   -13976611.16249 -10879044.53847  21959408.178    21959412.262
  23174155.859    -9402930.16249  -7308702.94646  23174155.846    23174160.365
  21388902.198   -21467459.81349 -16711901.12947  21388901.881    21388904.385
 03  2 28  3 17  0.0000000  0  8G23G31G14G17G15G 3G 9G18
  23344448.688    -6479487.50149  -5026820.57746  23344448.325    23344452.327
  22839935.945    -9286946.79949  -7212792.78146  22839935.832    22839939.732
  20671035.870   -22625910.21949 -17616659.22548  20671035.560    20671038.447
  22458509.804   -18989395.25549 -14529788.29646  22458509.387    22458514.412
  20526006.504   -26835114.96249 -20900464.13748  20526005.972    20526009.999
  21962757.536   -13959011.20549 -10865330.27847  21962757.349    21962761.421
  23175106.841    -9397932.79549  -7304808.85946  23175106.758    23175111.329
  21397370.620   -21422957.97549 -16677224.36547  21397370.299    21397372.812
